Wetterdaten: Donnerstag, 12.10.2017
Datum Zeit Temp. A. Pool Temp. Feuchte A. Luftdruck Regen Wind Richtung Richtung Sonnenschein ET UV Solar Taupunkt Windchill Windben Empfang
12.10.2017 00:00 9,4 C 11,7 C 92 % 1019,4 hPa 0,0 l/m 3,6 km/h (1 Bft) S-SW 194 0 min 0,000 mm 0,0 UV-I 0 W/m 8,2 C 9,4 C 4,8 km/h (1 Bft) 100,00 %
12.10.2017 00:02 9,4 C 11,7 C 92 % 1019,4 hPa 0,0 l/m 2,9 km/h (1 Bft) S-SW 194 0 min 0,000 mm 0,0 UV-I 0 W/m 8,2 C 9,4 C 4,8 km/h (1 Bft) 97,50 %
12.10.2017 00:04 9,4 C 11,7 C 92 % 1019,4 hPa 0,0 l/m 3,3 km/h (1 Bft) S-SW 194 0 min 0,000 mm 0,0 UV-I 0 W/m 8,2 C 9,4 C 4,8 km/h (1 Bft) 100,00 %
12.10.2017 00:06 9,4 C 11,7 C 92 % 1019,4 hPa 0,0 l/m 2,5 km/h (1 Bft) S-SW 194 0 min 0,000 mm 0,0 UV-I 0 W/m 8,2 C 9,4 C 4,8 km/h (1 Bft) 100,00 %
12.10.2017 00:08 9,2 C 11,7 C 91 % 1019,4 hPa 0,0 l/m 2,2 km/h (1 Bft) S-SW 194 0 min 0,000 mm 0,0 UV-I 0 W/m 7,8 C 9,2 C 4,8 km/h (1 Bft) 100,00 %
12.10.2017 00:10 9,1 C 11,7 C 92 % 1019,4 hPa 0,0 l/m 2,3 km/h (1 Bft) S-SW 194 0 min 0,000 mm 0,0 UV-I 0 W/m 7,9 C 9,1 C 3,2 km/h (1 Bft) 100,00 %
12.10.2017 00:12 9,0 C 11,7 C 92 % 1019,4 hPa 0,0 l/m 3,3 km/h (1 Bft) S-SW 194 0 min 0,000 mm 0,0 UV-I 0 W/m 7,8 C 9,0 C 4,8 km/h (1 Bft) 100,00 %
12.10.2017 00:14 9,0 C 11,7 C 92 % 1019,4 hPa 0,0 l/m 4,7 km/h (1 Bft) S-SW 194 0 min 0,000 mm 0,0 UV-I 0 W/m 7,8 C 9,0 C 6,4 km/h (2 Bft) 100,00 %
12.10.2017 00:16 8,9 C 11,7 C 92 % 1019,4 hPa 0,0 l/m 4,3 km/h (1 Bft) S-SW 193 0 min 0,000 mm 0,0 UV-I 0 W/m 7,7 C 8,9 C 6,4 km/h (2 Bft) 98,00 %
12.10.2017 00:18 8,9 C 11,7 C 93 % 1019,4 hPa 0,0 l/m 4,5 km/h (1 Bft) S-SW 192 0 min 0,000 mm 0,0 UV-I 0 W/m 7,8 C 8,9 C 8,0 km/h (2 Bft) 100,00 %
12.10.2017 00:20 9,1 C 11,7 C 93 % 1019,3 hPa 0,0 l/m 4,4 km/h (1 Bft) S 179 0 min 0,000 mm 0,0 UV-I 0 W/m 8,0 C 9,1 C 6,4 km/h (2 Bft) 100,00 %
12.10.2017 00:22 9,2 C 11,7 C 93 % 1019,4 hPa 0,0 l/m 4,1 km/h (1 Bft) S 185 0 min 0,000 mm 0,0 UV-I 0 W/m 8,1 C 9,2 C 6,4 km/h (2 Bft) 100,00 %
12.10.2017 00:24 9,3 C 11,7 C 93 % 1019,4 hPa 0,0 l/m 2,9 km/h (1 Bft) S 185 0 min 0,000 mm 0,0 UV-I 0 W/m 8,2 C 9,3 C 4,8 km/h (1 Bft) 100,00 %
12.10.2017 00:26 9,4 C 11,7 C 93 % 1019,4 hPa 0,0 l/m 3,5 km/h (1 Bft) S 185 0 min 0,000 mm 0,0 UV-I 0 W/m 8,3 C 9,4 C 6,4 km/h (2 Bft) 100,00 %
12.10.2017 00:28 9,5 C 11,7 C 93 % 1019,3 hPa 0,0 l/m 2,9 km/h (1 Bft) S 185 0 min 0,000 mm 0,0 UV-I 0 W/m 8,4 C 9,5 C 6,4 km/h (2 Bft) 100,00 %
12.10.2017 00:30 9,5 C 11,7 C 93 % 1019,3 hPa 0,0 l/m 4,2 km/h (1 Bft) S 182 0 min 0,000 mm 0,0 UV-I 0 W/m 8,4 C 9,5 C 6,4 km/h (2 Bft) 100,00 %
12.10.2017 00:32 9,6 C 11,7 C 93 % 1019,3 hPa 0,0 l/m 3,3 km/h (1 Bft) S 182 0 min 0,000 mm 0,0 UV-I 0 W/m 8,5 C 9,6 C 4,8 km/h (1 Bft) 100,00 %
12.10.2017 00:34 9,6 C 11,7 C 93 % 1019,3 hPa 0,0 l/m 2,3 km/h (1 Bft) S 182 0 min 0,000 mm 0,0 UV-I 0 W/m 8,5 C 9,6 C 4,8 km/h (1 Bft) 100,00 %
12.10.2017 00:36 9,7 C 11,7 C 93 % 1019,3 hPa 0,0 l/m 2,7 km/h (1 Bft) S 182 0 min 0,000 mm 0,0 UV-I 0 W/m 8,6 C 9,7 C 4,8 km/h (1 Bft) 100,00 %
12.10.2017 00:38 9,7 C 11,7 C 93 % 1019,3 hPa 0,0 l/m 2,7 km/h (1 Bft) S 182 0 min 0,000 mm 0,0 UV-I 0 W/m 8,6 C 9,7 C 6,4 km/h (2 Bft) 100,00 %
12.10.2017 00:40 9,7 C 11,7 C 92 % 1019,3 hPa 0,0 l/m 2,3 km/h (1 Bft) S 182 0 min 0,000 mm 0,0 UV-I 0 W/m 8,5 C 9,7 C 3,2 km/h (1 Bft) 100,00 %
12.10.2017 00:42 9,6 C 11,7 C 92 % 1019,4 hPa 0,0 l/m 2,5 km/h (1 Bft) S 182 0 min 0,000 mm 0,0 UV-I 0 W/m 8,4 C 9,6 C 4,8 km/h (1 Bft) 100,00 %
12.10.2017 00:44 9,6 C 11,7 C 92 % 1019,4 hPa 0,0 l/m 2,8 km/h (1 Bft) S 182 0 min 0,000 mm 0,0 UV-I 0 W/m 8,4 C 9,6 C 6,4 km/h (2 Bft) 100,00 %
12.10.2017 00:46 9,5 C 11,7 C 92 % 1019,4 hPa 0,0 l/m 4,7 km/h (1 Bft) SW 230 0 min 0,000 mm 0,0 UV-I 0 W/m 8,3 C 9,5 C 8,0 km/h (2 Bft) 98,11 %
12.10.2017 00:48 9,4 C 11,7 C 92 % 1019,4 hPa 0,0 l/m 3,4 km/h (1 Bft) S 174 0 min 0,000 mm 0,0 UV-I 0 W/m 8,2 C 9,4 C 6,4 km/h (2 Bft) 100,00 %
12.10.2017 00:50 9,4 C 11,7 C 92 % 1019,4 hPa 0,0 l/m 3,9 km/h (1 Bft) S-SO 165 0 min 0,000 mm 0,0 UV-I 0 W/m 8,2 C 9,4 C 8,0 km/h (2 Bft) 97,56 %
12.10.2017 00:52 9,4 C 11,7 C 92 % 1019,4 hPa 0,0 l/m 4,7 km/h (1 Bft) S-SW 195 0 min 0,000 mm 0,0 UV-I 0 W/m 8,2 C 9,4 C 8,0 km/h (2 Bft) 100,00 %
12.10.2017 00:54 9,4 C 11,7 C 93 % 1019,4 hPa 0,0 l/m 3,1 km/h (1 Bft) S 180 0 min 0,000 mm 0,0 UV-I 0 W/m 8,3 C 9,4 C 4,8 km/h (1 Bft) 100,00 %
12.10.2017 00:56 9,4 C 11,7 C 93 % 1019,4 hPa 0,0 l/m 4,5 km/h (1 Bft) S 172 0 min 0,000 mm 0,0 UV-I 0 W/m 8,3 C 9,4 C 8,0 km/h (2 Bft) 100,00 %
12.10.2017 00:58 9,4 C 11,7 C 93 % 1019,3 hPa 0,0 l/m 3,8 km/h (1 Bft) S-SW 209 0 min 0,000 mm 0,0 UV-I 0 W/m 8,3 C 9,4 C 6,4 km/h (2 Bft) 100,00 %
12.10.2017 01:00 9,5 C 11,7 C 93 % 1019,3 hPa 0,0 l/m 3,2 km/h (1 Bft) S 186 0 min 0,000 mm 0,0 UV-I 0 W/m 8,4 C 9,5 C 6,4 km/h (2 Bft) 100,00 %
12.10.2017 01:02 9,5 C 11,7 C 93 % 1019,2 hPa 0,0 l/m 4,2 km/h (1 Bft) S-SW 207 0 min 0,000 mm 0,0 UV-I 0 W/m 8,4 C 9,5 C 8,0 km/h (2 Bft) 100,00 %
12.10.2017 01:04 9,5 C 11,7 C 92 % 1019,3 hPa 0,0 l/m 3,3 km/h (1 Bft) S-SW 199 0 min 0,000 mm 0,0 UV-I 0 W/m 8,3 C 9,5 C 4,8 km/h (1 Bft) 100,00 %
12.10.2017 01:06 9,4 C 11,7 C 92 % 1019,3 hPa 0,0 l/m 4,1 km/h (1 Bft) S-SW 200 0 min 0,000 mm 0,0 UV-I 0 W/m 8,2 C 9,4 C 6,4 km/h (2 Bft) 100,00 %
12.10.2017 01:08 9,3 C 11,7 C 92 % 1019,3 hPa 0,0 l/m 4,9 km/h (1 Bft) S-SW 200 0 min 0,000 mm 0,0 UV-I 0 W/m 8,1 C 9,3 C 6,4 km/h (2 Bft) 100,00 %
12.10.2017 01:10 9,3 C 11,7 C 92 % 1019,3 hPa 0,0 l/m 5,3 km/h (1 Bft) S 190 0 min 0,000 mm 0,0 UV-I 0 W/m 8,1 C 9,3 C 6,4 km/h (2 Bft) 100,00 %
12.10.2017 01:12 9,3 C 11,7 C 93 % 1019,3 hPa 0,0 l/m 5,7 km/h (1 Bft) S-SW 197 0 min 0,000 mm 0,0 UV-I 0 W/m 8,2 C 9,3 C 8,0 km/h (2 Bft) 97,87 %
12.10.2017 01:14 9,2 C 11,7 C 93 % 1019,3 hPa 0,0 l/m 5,2 km/h (1 Bft) S 181 0 min 0,000 mm 0,0 UV-I 0 W/m 8,1 C 9,2 C 6,4 km/h (2 Bft) 100,00 %
12.10.2017 01:16 9,2 C 11,7 C 93 % 1019,3 hPa 0,0 l/m 4,4 km/h (1 Bft) S 185 0 min 0,000 mm 0,0 UV-I 0 W/m 8,1 C 9,2 C 8,0 km/h (2 Bft) 100,00 %
12.10.2017 01:18 9,2 C 11,7 C 93 % 1019,3 hPa 0,0 l/m 4,0 km/h (1 Bft) S-SO 167 0 min 0,000 mm 0,0 UV-I 0 W/m 8,1 C 9,2 C 8,0 km/h (2 Bft) 97,14 %
12.10.2017 01:20 9,3 C 11,7 C 93 % 1019,2 hPa 0,0 l/m 4,8 km/h (1 Bft) S 190 0 min 0,000 mm 0,0 UV-I 0 W/m 8,2 C 9,3 C 8,0 km/h (2 Bft) 98,11 %
12.10.2017 01:22 9,2 C 11,7 C 93 % 1019,2 hPa 0,0 l/m 3,4 km/h (1 Bft) S 182 0 min 0,000 mm 0,0 UV-I 0 W/m 8,1 C 9,2 C 6,4 km/h (2 Bft) 97,87 %
12.10.2017 01:24 9,3 C 11,7 C 93 % 1019,3 hPa 0,0 l/m 3,6 km/h (1 Bft) S-SW 194 0 min 0,000 mm 0,0 UV-I 0 W/m 8,2 C 9,3 C 4,8 km/h (1 Bft) 97,87 %
12.10.2017 01:26 9,3 C 11,7 C 93 % 1019,2 hPa 0,0 l/m 3,5 km/h (1 Bft) S-SW 194 0 min 0,000 mm 0,0 UV-I 0 W/m 8,2 C 9,3 C 4,8 km/h (1 Bft) 96,23 %
12.10.2017 01:28 9,3 C 11,7 C 93 % 1019,2 hPa 0,0 l/m 3,0 km/h (1 Bft) S-SW 192 0 min 0,000 mm 0,0 UV-I 0 W/m 8,2 C 9,3 C 4,8 km/h (1 Bft) 97,37 %
12.10.2017 01:30 9,2 C 11,7 C 93 % 1019,2 hPa 0,0 l/m 3,1 km/h (1 Bft) S-SW 209 0 min 0,000 mm 0,0 UV-I 0 W/m 8,1 C 9,2 C 4,8 km/h (1 Bft) 98,00 %
12.10.2017 01:32 9,2 C 11,7 C 93 % 1019,2 hPa 0,0 l/m 3,1 km/h (1 Bft) S-SW 208 0 min 0,000 mm 0,0 UV-I 0 W/m 8,1 C 9,2 C 4,8 km/h (1 Bft) 94,00 %
12.10.2017 01:34 9,2 C 11,7 C 93 % 1019,3 hPa 0,0 l/m 2,6 km/h (1 Bft) S-SW 208 0 min 0,000 mm 0,0 UV-I 0 W/m 8,1 C 9,2 C 4,8 km/h (1 Bft) 97,44 %
12.10.2017 01:36 9,2 C 11,7 C 93 % 1019,3 hPa 0,0 l/m 3,4 km/h (1 Bft) S 189 0 min 0,000 mm 0,0 UV-I 0 W/m 8,1 C 9,2 C 6,4 km/h (2 Bft) 97,87 %
12.10.2017 01:38 9,1 C 11,7 C 93 % 1019,3 hPa 0,0 l/m 2,8 km/h (1 Bft) S 188 0 min 0,000 mm 0,0 UV-I 0 W/m 8,0 C 9,1 C 4,8 km/h (1 Bft) 91,43 %
12.10.2017 01:40 9,1 C 11,7 C 93 % 1019,3 hPa 0,0 l/m 2,7 km/h (1 Bft) S 187 0 min 0,000 mm 0,0 UV-I 0 W/m 8,0 C 9,1 C 4,8 km/h (1 Bft) 98,51 %
12.10.2017 01:42 9,1 C 11,7 C 93 % 1019,3 hPa 0,0 l/m 2,8 km/h (1 Bft) S 187 0 min 0,000 mm 0,0 UV-I 0 W/m 8,0 C 9,1 C 4,8 km/h (1 Bft) 97,44 %
12.10.2017 01:44 9,1 C 11,7 C 93 % 1019,2 hPa 0,0 l/m 2,5 km/h (1 Bft) S 188 0 min 0,000 mm 0,0 UV-I 0 W/m 8,0 C 9,1 C 6,4 km/h (2 Bft) 94,00 %
12.10.2017 01:46 9,1 C 11,7 C 93 % 1019,2 hPa 0,0 l/m 2,5 km/h (1 Bft) S 188 0 min 0,000 mm 0,0 UV-I 0 W/m 8,0 C 9,1 C 4,8 km/h (1 Bft) 95,74 %
12.10.2017 01:48 9,1 C 11,7 C 93 % 1019,2 hPa 0,0 l/m 3,3 km/h (1 Bft) S 188 0 min 0,000 mm 0,0 UV-I 0 W/m 8,0 C 9,1 C 4,8 km/h (1 Bft) 98,00 %
12.10.2017 01:50 9,1 C 11,7 C 93 % 1019,2 hPa 0,0 l/m 2,8 km/h (1 Bft) S 185 0 min 0,000 mm 0,0 UV-I 0 W/m 8,0 C 9,1 C 4,8 km/h (1 Bft) 98,00 %
12.10.2017 01:52 9,1 C 11,7 C 93 % 1019,3 hPa 0,0 l/m 3,1 km/h (1 Bft) S 188 0 min 0,000 mm 0,0 UV-I 0 W/m 8,0 C 9,1 C 8,0 km/h (2 Bft) 97,87 %
12.10.2017 01:54 9,1 C 11,7 C 93 % 1019,2 hPa 0,0 l/m 3,2 km/h (1 Bft) S 182 0 min 0,000 mm 0,0 UV-I 0 W/m 8,0 C 9,1 C 6,4 km/h (2 Bft) 100,00 %
12.10.2017 01:56 9,1 C 11,7 C 93 % 1019,2 hPa 0,0 l/m 3,9 km/h (1 Bft) S-SW 211 0 min 0,000 mm 0,0 UV-I 0 W/m 8,0 C 9,1 C 8,0 km/h (2 Bft) 97,56 %
12.10.2017 01:58 9,1 C 11,7 C 93 % 1019,2 hPa 0,0 l/m 3,4 km/h (1 Bft) S 171 0 min 0,000 mm 0,0 UV-I 0 W/m 8,0 C 9,1 C 6,4 km/h (2 Bft) 100,00 %
12.10.2017 02:00 9,1 C 11,7 C 93 % 1019,2 hPa 0,0 l/m 3,5 km/h (1 Bft) S-SW 194 0 min 0,000 mm 0,0 UV-I 0 W/m 8,0 C 9,1 C 6,4 km/h (2 Bft) 100,00 %
12.10.2017 02:02 9,1 C 11,7 C 93 % 1019,3 hPa 0,0 l/m 2,0 km/h (1 Bft) S 183 0 min 0,000 mm 0,0 UV-I 0 W/m 8,0 C 9,1 C 3,2 km/h (1 Bft) 100,00 %
12.10.2017 02:04 9,0 C 11,7 C 93 % 1019,3 hPa 0,0 l/m 3,0 km/h (1 Bft) S 183 0 min 0,000 mm 0,0 UV-I 0 W/m 7,9 C 9,0 C 6,4 km/h (2 Bft) 98,57 %
12.10.2017 02:06 8,9 C 11,7 C 93 % 1019,3 hPa 0,0 l/m 2,3 km/h (1 Bft) S 183 0 min 0,000 mm 0,0 UV-I 0 W/m 7,8 C 8,9 C 4,8 km/h (1 Bft) 98,11 %
12.10.2017 02:08 8,9 C 11,7 C 93 % 1019,2 hPa 0,0 l/m 2,8 km/h (1 Bft) S 188 0 min 0,000 mm 0,0 UV-I 0 W/m 7,8 C 8,9 C 4,8 km/h (1 Bft) 97,87 %
12.10.2017 02:10 8,9 C 11,7 C 93 % 1019,2 hPa 0,0 l/m 3,1 km/h (1 Bft) S 183 0 min 0,000 mm 0,0 UV-I 0 W/m 7,8 C 8,9 C 6,4 km/h (2 Bft) 97,56 %
12.10.2017 02:12 8,9 C 11,7 C 93 % 1019,3 hPa 0,0 l/m 2,8 km/h (1 Bft) S 180 0 min 0,000 mm 0,0 UV-I 0 W/m 7,8 C 8,9 C 4,8 km/h (1 Bft) 100,00 %
12.10.2017 02:14 8,9 C 11,7 C 93 % 1019,3 hPa 0,0 l/m 3,2 km/h (1 Bft) S 183 0 min 0,000 mm 0,0 UV-I 0 W/m 7,8 C 8,9 C 4,8 km/h (1 Bft) 100,00 %
12.10.2017 02:16 8,8 C 11,7 C 93 % 1019,3 hPa 0,0 l/m 2,1 km/h (1 Bft) S 182 0 min 0,000 mm 0,0 UV-I 0 W/m 7,7 C 8,8 C 3,2 km/h (1 Bft) 98,18 %
12.10.2017 02:18 8,8 C 11,7 C 93 % 1019,3 hPa 0,0 l/m 2,7 km/h (1 Bft) S 184 0 min 0,000 mm 0,0 UV-I 0 W/m 7,7 C 8,8 C 4,8 km/h (1 Bft) 100,00 %
12.10.2017 02:20 8,8 C 11,7 C 93 % 1019,3 hPa 0,0 l/m 3,3 km/h (1 Bft) S 184 0 min 0,000 mm 0,0 UV-I 0 W/m 7,7 C 8,8 C 4,8 km/h (1 Bft) 97,22 %
12.10.2017 02:22 8,8 C 11,7 C 93 % 1019,3 hPa 0,0 l/m 3,4 km/h (1 Bft) S 184 0 min 0,000 mm 0,0 UV-I 0 W/m 7,7 C 8,8 C 6,4 km/h (2 Bft) 100,00 %
12.10.2017 02:24 8,7 C 11,7 C 93 % 1019,3 hPa 0,0 l/m 2,3 km/h (1 Bft) S 184 0 min 0,000 mm 0,0 UV-I 0 W/m 7,6 C 8,7 C 3,2 km/h (1 Bft) 100,00 %
12.10.2017 02:26 8,7 C 11,7 C 93 % 1019,3 hPa 0,0 l/m 3,1 km/h (1 Bft) SW 214 0 min 0,000 mm 0,0 UV-I 0 W/m 7,6 C 8,7 C 6,4 km/h (2 Bft) 100,00 %
12.10.2017 02:28 8,7 C 11,7 C 93 % 1019,3 hPa 0,0 l/m 4,1 km/h (1 Bft) SW 214 0 min 0,000 mm 0,0 UV-I 0 W/m 7,6 C 8,7 C 4,8 km/h (1 Bft) 100,00 %
12.10.2017 02:30 8,7 C 11,7 C 93 % 1019,3 hPa 0,0 l/m 3,1 km/h (1 Bft) SW 214 0 min 0,000 mm 0,0 UV-I 0 W/m 7,6 C 8,7 C 6,4 km/h (2 Bft) 100,00 %
12.10.2017 02:32 8,7 C 11,7 C 93 % 1019,3 hPa 0,0 l/m 3,2 km/h (1 Bft) SW 214 0 min 0,000 mm 0,0 UV-I 0 W/m 7,6 C 8,7 C 4,8 km/h (1 Bft) 98,00 %
12.10.2017 02:34 8,6 C 11,7 C 93 % 1019,4 hPa 0,0 l/m 2,5 km/h (1 Bft) SW 214 0 min 0,000 mm 0,0 UV-I 0 W/m 7,5 C 8,6 C 3,2 km/h (1 Bft) 97,37 %
12.10.2017 02:36 8,6 C 11,7 C 93 % 1019,4 hPa 0,0 l/m 2,1 km/h (1 Bft) SW 214 0 min 0,000 mm 0,0 UV-I 0 W/m 7,5 C 8,6 C 3,2 km/h (1 Bft) 98,00 %
12.10.2017 02:38 8,4 C 11,7 C 93 % 1019,4 hPa 0,0 l/m 2,7 km/h (1 Bft) SW 214 0 min 0,000 mm 0,0 UV-I 0 W/m 7,3 C 8,4 C 4,8 km/h (1 Bft) 96,00 %
12.10.2017 02:40 8,3 C 11,7 C 93 % 1019,4 hPa 0,0 l/m 2,6 km/h (1 Bft) SW 214 0 min 0,000 mm 0,0 UV-I 0 W/m 7,2 C 8,3 C 4,8 km/h (1 Bft) 98,00 %
12.10.2017 02:42 8,2 C 11,7 C 93 % 1019,4 hPa 0,0 l/m 2,4 km/h (1 Bft) SW 214 0 min 0,000 mm 0,0 UV-I 0 W/m 7,1 C 8,2 C 4,8 km/h (1 Bft) 97,37 %
12.10.2017 02:44 8,2 C 11,7 C 93 % 1019,4 hPa 0,0 l/m 0,3 km/h (0 Bft) SW 214 0 min 0,000 mm 0,0 UV-I 0 W/m 7,1 C 8,2 C 1,6 km/h (1 Bft) 95,74 %
12.10.2017 02:46 8,2 C 11,7 C 93 % 1019,4 hPa 0,0 l/m 0,6 km/h (0 Bft) SW 214 0 min 0,000 mm 0,0 UV-I 0 W/m 7,1 C 8,2 C 3,2 km/h (1 Bft) 98,00 %
12.10.2017 02:48 8,2 C 11,7 C 94 % 1019,4 hPa 0,0 l/m 1,0 km/h (0 Bft) SW 214 0 min 0,000 mm 0,0 UV-I 0 W/m 7,3 C 8,2 C 1,6 km/h (1 Bft) 98,00 %
12.10.2017 02:50 8,1 C 11,7 C 94 % 1019,4 hPa 0,0 l/m 1,8 km/h (1 Bft) SW 214 0 min 0,000 mm 0,0 UV-I 0 W/m 7,2 C 8,1 C 3,2 km/h (1 Bft) 97,37 %
12.10.2017 02:52 8,2 C 11,7 C 94 % 1019,4 hPa 0,0 l/m 1,3 km/h (1 Bft) SW 214 0 min 0,000 mm 0,0 UV-I 0 W/m 7,3 C 8,2 C 1,6 km/h (1 Bft) 98,11 %
12.10.2017 02:54 8,2 C 11,7 C 94 % 1019,5 hPa 0,0 l/m 1,9 km/h (1 Bft) SW 214 0 min 0,000 mm 0,0 UV-I 0 W/m 7,3 C 8,2 C 4,8 km/h (1 Bft) 98,00 %
12.10.2017 02:56 8,1 C 11,7 C 94 % 1019,5 hPa 0,0 l/m 2,1 km/h (1 Bft) SW 214 0 min 0,000 mm 0,0 UV-I 0 W/m 7,2 C 8,1 C 3,2 km/h (1 Bft) 97,44 %
12.10.2017 02:58 8,1 C 11,7 C 94 % 1019,5 hPa 0,0 l/m 1,5 km/h (1 Bft) SW 214 0 min 0,000 mm 0,0 UV-I 0 W/m 7,2 C 8,1 C 3,2 km/h (1 Bft) 98,08 %
12.10.2017 03:00 8,2 C 11,7 C 94 % 1019,5 hPa 0,0 l/m 1,9 km/h (1 Bft) SW 214 0 min 0,000 mm 0,0 UV-I 0 W/m 7,3 C 8,2 C 3,2 km/h (1 Bft) 94,00 %
12.10.2017 03:02 8,2 C 11,7 C 94 % 1019,5 hPa 0,0 l/m 1,1 km/h (1 Bft) SW 214 0 min 0,000 mm 0,0 UV-I 0 W/m 7,3 C 8,2 C 3,2 km/h (1 Bft) 97,92 %
12.10.2017 03:04 8,2 C 11,7 C 94 % 1019,5 hPa 0,0 l/m 0,4 km/h (0 Bft) SW 214 0 min 0,000 mm 0,0 UV-I 0 W/m 7,3 C 8,2 C 1,6 km/h (1 Bft) 97,87 %
12.10.2017 03:06 8,1 C 11,7 C 94 % 1019,5 hPa 0,0 l/m 0,0 km/h (0 Bft) SW 214 0 min 0,000 mm 0,0 UV-I 0 W/m 7,2 C 8,1 C 0,0 km/h (0 Bft) 97,87 %
12.10.2017 03:08 8,1 C 11,7 C 94 % 1019,5 hPa 0,0 l/m 0,0 km/h (0 Bft) SW 214 0 min 0,000 mm 0,0 UV-I 0 W/m 7,2 C 8,1 C 0,0 km/h (0 Bft) 98,00 %
12.10.2017 03:10 8,1 C 11,7 C 94 % 1019,5 hPa 0,0 l/m 0,0 km/h (0 Bft) SW 214 0 min 0,000 mm 0,0 UV-I 0 W/m 7,2 C 8,1 C 0,0 km/h (0 Bft) 97,14 %
12.10.2017 03:12 8,1 C 11,7 C 94 % 1019,5 hPa 0,0 l/m 0,0 km/h (0 Bft) SW 214 0 min 0,000 mm 0,0 UV-I 0 W/m 7,2 C 8,1 C 0,0 km/h (0 Bft) 97,87 %
12.10.2017 03:14 8,1 C 11,7 C 94 % 1019,5 hPa 0,0 l/m 0,0 km/h (0 Bft) SW 214 0 min 0,000 mm 0,0 UV-I 0 W/m 7,2 C 8,1 C 0,0 km/h (0 Bft) 98,00 %
12.10.2017 03:16 8,0 C 11,7 C 94 % 1019,6 hPa 0,0 l/m 0,5 km/h (0 Bft) SW 214 0 min 0,000 mm 0,0 UV-I 0 W/m 7,1 C 8,0 C 1,6 km/h (1 Bft) 98,00 %
12.10.2017 03:18 7,8 C 11,7 C 94 % 1019,5 hPa 0,0 l/m 0,8 km/h (0 Bft) SW 214 0 min 0,000 mm 0,0 UV-I 0 W/m 6,9 C 7,8 C 3,2 km/h (1 Bft) 97,87 %
12.10.2017 03:20 7,7 C 11,7 C 94 % 1019,5 hPa 0,0 l/m 0,1 km/h (0 Bft) SW 214 0 min 0,000 mm 0,0 UV-I 0 W/m 6,8 C 7,7 C 1,6 km/h (1 Bft) 97,87 %
12.10.2017 03:22 7,7 C 11,7 C 94 % 1019,5 hPa 0,0 l/m 0,3 km/h (0 Bft) SW 214 0 min 0,000 mm 0,0 UV-I 0 W/m 6,8 C 7,7 C 3,2 km/h (1 Bft) 97,37 %
12.10.2017 03:24 7,7 C 11,7 C 94 % 1019,5 hPa 0,0 l/m 1,4 km/h (1 Bft) SW 214 0 min 0,000 mm 0,0 UV-I 0 W/m 6,8 C 7,7 C 3,2 km/h (1 Bft) 96,43 %
12.10.2017 03:26 7,7 C 11,7 C 95 % 1019,5 hPa 0,0 l/m 1,0 km/h (0 Bft) SW 214 0 min 0,000 mm 0,0 UV-I 0 W/m 7,0 C 7,7 C 1,6 km/h (1 Bft) 93,62 %
12.10.2017 03:28 7,8 C 11,7 C 95 % 1019,5 hPa 0,0 l/m 0,8 km/h (0 Bft) SW 214 0 min 0,000 mm 0,0 UV-I 0 W/m 7,0 C 7,8 C 1,6 km/h (1 Bft) 97,56 %
12.10.2017 03:30 7,8 C 11,7 C 95 % 1019,5 hPa 0,0 l/m 0,0 km/h (0 Bft) SW 214 0 min 0,000 mm 0,0 UV-I 0 W/m 7,0 C 7,8 C 0,0 km/h (0 Bft) 96,00 %
12.10.2017 03:32 7,7 C 11,7 C 94 % 1019,6 hPa 0,0 l/m 0,4 km/h (0 Bft) SW 214 0 min 0,000 mm 0,0 UV-I 0 W/m 6,8 C 7,7 C 1,6 km/h (1 Bft) 94,12 %
12.10.2017 03:34 7,7 C 11,7 C 94 % 1019,6 hPa 0,0 l/m 1,2 km/h (1 Bft) SW 214 0 min 0,000 mm 0,0 UV-I 0 W/m 6,8 C 7,7 C 3,2 km/h (1 Bft) 97,87 %
12.10.2017 03:36 7,5 C 11,7 C 94 % 1019,6 hPa 0,0 l/m 1,5 km/h (1 Bft) S-SW 211 0 min 0,000 mm 0,0 UV-I 0 W/m 6,6 C 7,5 C 3,2 km/h (1 Bft) 97,44 %
12.10.2017 03:38 7,4 C 11,7 C 94 % 1019,6 hPa 0,0 l/m 2,0 km/h (1 Bft) S-SW 211 0 min 0,000 mm 0,0 UV-I 0 W/m 6,5 C 7,4 C 4,8 km/h (1 Bft) 94,23 %
12.10.2017 03:40 7,4 C 11,7 C 95 % 1019,6 hPa 0,0 l/m 2,8 km/h (1 Bft) S-SW 211 0 min 0,000 mm 0,0 UV-I 0 W/m 6,7 C 7,4 C 4,8 km/h (1 Bft) 97,62 %
12.10.2017 03:42 7,5 C 11,7 C 95 % 1019,6 hPa 0,0 l/m 2,9 km/h (1 Bft) S-SW 211 0 min 0,000 mm 0,0 UV-I 0 W/m 6,8 C 7,5 C 4,8 km/h (1 Bft) 98,00 %
12.10.2017 03:44 7,4 C 11,7 C 95 % 1019,6 hPa 0,0 l/m 2,1 km/h (1 Bft) S-SW 211 0 min 0,000 mm 0,0 UV-I 0 W/m 6,7 C 7,4 C 3,2 km/h (1 Bft) 97,87 %
12.10.2017 03:46 7,4 C 11,7 C 95 % 1019,6 hPa 0,0 l/m 1,7 km/h (1 Bft) S-SW 211 0 min 0,000 mm 0,0 UV-I 0 W/m 6,7 C 7,4 C 3,2 km/h (1 Bft) 96,00 %
12.10.2017 03:48 7,4 C 11,7 C 95 % 1019,6 hPa 0,0 l/m 1,8 km/h (1 Bft) S-SW 211 0 min 0,000 mm 0,0 UV-I 0 W/m 6,7 C 7,4 C 3,2 km/h (1 Bft) 97,87 %
12.10.2017 03:50 7,3 C 11,7 C 95 % 1019,6 hPa 0,0 l/m 1,5 km/h (1 Bft) S-SW 211 0 min 0,000 mm 0,0 UV-I 0 W/m 6,6 C 7,3 C 3,2 km/h (1 Bft) 95,74 %
12.10.2017 03:52 7,3 C 11,7 C 95 % 1019,6 hPa 0,0 l/m 0,4 km/h (0 Bft) S-SW 211 0 min 0,000 mm 0,0 UV-I 0 W/m 6,6 C 7,3 C 1,6 km/h (1 Bft) 95,74 %
12.10.2017 03:54 7,2 C 11,7 C 95 % 1019,6 hPa 0,0 l/m 0,0 km/h (0 Bft) S-SW 211 0 min 0,000 mm 0,0 UV-I 0 W/m 6,5 C 7,2 C 1,6 km/h (1 Bft) 97,87 %
12.10.2017 03:56 7,2 C 11,7 C 95 % 1019,7 hPa 0,0 l/m 0,1 km/h (0 Bft) S-SW 211 0 min 0,000 mm 0,0 UV-I 0 W/m 6,5 C 7,2 C 1,6 km/h (1 Bft) 97,14 %
12.10.2017 03:58 7,3 C 11,7 C 95 % 1019,7 hPa 0,0 l/m 0,1 km/h (0 Bft) S-SW 211 0 min 0,000 mm 0,0 UV-I 0 W/m 6,6 C 7,3 C 1,6 km/h (1 Bft) 96,77 %
12.10.2017 04:00 7,4 C 11,7 C 95 % 1019,7 hPa 0,0 l/m 0,0 km/h (0 Bft) S-SW 211 0 min 0,000 mm 0,0 UV-I 0 W/m 6,7 C 7,4 C 0,0 km/h (0 Bft) 97,14 %
12.10.2017 04:02 7,5 C 11,7 C 96 % 1019,7 hPa 0,0 l/m 0,1 km/h (0 Bft) S-SW 211 0 min 0,000 mm 0,0 UV-I 0 W/m 6,9 C 7,5 C 1,6 km/h (1 Bft) 97,06 %
12.10.2017 04:04 7,4 C 11,7 C 95 % 1019,7 hPa 0,0 l/m 0,0 km/h (0 Bft) S-SW 211 0 min 0,000 mm 0,0 UV-I 0 W/m 6,7 C 7,4 C 0,0 km/h (0 Bft) 98,00 %
12.10.2017 04:06 7,4 C 11,7 C 95 % 1019,7 hPa 0,0 l/m 0,0 km/h (0 Bft) S-SW 211 0 min 0,000 mm 0,0 UV-I 0 W/m 6,7 C 7,4 C 0,0 km/h (0 Bft) 97,87 %
12.10.2017 04:08 7,4 C 11,7 C 95 % 1019,7 hPa 0,0 l/m 0,0 km/h (0 Bft) S-SW 211 0 min 0,000 mm 0,0 UV-I 0 W/m 6,7 C 7,4 C 0,0 km/h (0 Bft) 100,00 %
12.10.2017 04:10 7,4 C 11,7 C 95 % 1019,7 hPa 0,0 l/m 0,1 km/h (0 Bft) S-SW 211 0 min 0,000 mm 0,0 UV-I 0 W/m 6,7 C 7,4 C 1,6 km/h (1 Bft) 92,11 %
12.10.2017 04:12 7,4 C 11,7 C 95 % 1019,7 hPa 0,0 l/m 0,0 km/h (0 Bft) S-SW 211 0 min 0,000 mm 0,0 UV-I 0 W/m 6,7 C 7,4 C 0,0 km/h (0 Bft) 97,92 %
12.10.2017 04:15 7,4 C 11,7 C 95 % 1019,6 hPa 0,0 l/m 0,3 km/h (0 Bft) S-SW 211 0 min 0,000 mm 0,0 UV-I 0 W/m 6,7 C 7,4 C 1,6 km/h (1 Bft) 98,70 %
12.10.2017 04:16 7,4 C 11,7 C 95 % 1019,7 hPa 0,0 l/m 0,0 km/h (0 Bft) S-SW 211 0 min 0,000 mm 0,0 UV-I 0 W/m 6,7 C 7,4 C 0,0 km/h (0 Bft) 100,00 %
12.10.2017 04:18 7,4 C 11,7 C 95 % 1019,7 hPa 0,0 l/m 0,0 km/h (0 Bft) S-SW 211 0 min 0,000 mm 0,0 UV-I 0 W/m 6,7 C 7,4 C 0,0 km/h (0 Bft) 100,00 %
12.10.2017 04:20 7,3 C 11,7 C 95 % 1019,7 hPa 0,0 l/m 0,0 km/h (0 Bft) S-SW 211 0 min 0,000 mm 0,0 UV-I 0 W/m 6,6 C 7,3 C 0,0 km/h (0 Bft) 100,00 %
12.10.2017 04:22 7,1 C 11,7 C 95 % 1019,8 hPa 0,0 l/m 2,4 km/h (1 Bft) S 178 0 min 0,000 mm 0,0 UV-I 0 W/m 6,4 C 7,1 C 4,8 km/h (1 Bft) 100,00 %
12.10.2017 04:24 7,2 C 11,7 C 95 % 1019,7 hPa 0,0 l/m 0,9 km/h (0 Bft) S 178 0 min 0,000 mm 0,0 UV-I 0 W/m 6,5 C 7,2 C 3,2 km/h (1 Bft) 97,73 %
12.10.2017 04:26 7,2 C 11,7 C 96 % 1019,8 hPa 0,0 l/m 1,0 km/h (0 Bft) S 178 0 min 0,000 mm 0,0 UV-I 0 W/m 6,6 C 7,2 C 3,2 km/h (1 Bft) 98,11 %
12.10.2017 04:28 7,2 C 11,7 C 95 % 1019,8 hPa 0,0 l/m 1,1 km/h (1 Bft) S 178 0 min 0,000 mm 0,0 UV-I 0 W/m 6,5 C 7,2 C 3,2 km/h (1 Bft) 100,00 %
12.10.2017 04:30 7,2 C 11,7 C 95 % 1019,8 hPa 0,0 l/m 1,2 km/h (1 Bft) S 178 0 min 0,000 mm 0,0 UV-I 0 W/m 6,5 C 7,2 C 4,8 km/h (1 Bft) 97,56 %
12.10.2017 04:32 7,3 C 11,7 C 96 % 1019,8 hPa 0,0 l/m 0,5 km/h (0 Bft) S 178 0 min 0,000 mm 0,0 UV-I 0 W/m 6,7 C 7,3 C 1,6 km/h (1 Bft) 97,87 %
12.10.2017 04:34 7,3 C 11,7 C 95 % 1019,8 hPa 0,0 l/m 1,0 km/h (0 Bft) S 178 0 min 0,000 mm 0,0 UV-I 0 W/m 6,6 C 7,3 C 3,2 km/h (1 Bft) 100,00 %
12.10.2017 04:36 7,2 C 11,7 C 95 % 1019,7 hPa 0,0 l/m 0,0 km/h (0 Bft) S 178 0 min 0,000 mm 0,0 UV-I 0 W/m 6,5 C 7,2 C 0,0 km/h (0 Bft) 100,00 %
12.10.2017 04:38 7,1 C 11,7 C 95 % 1019,7 hPa 0,0 l/m 0,0 km/h (0 Bft) S 178 0 min 0,000 mm 0,0 UV-I 0 W/m 6,4 C 7,1 C 0,0 km/h (0 Bft) 100,00 %
12.10.2017 04:40 7,1 C 11,7 C 95 % 1019,7 hPa 0,0 l/m 0,0 km/h (0 Bft) S 178 0 min 0,000 mm 0,0 UV-I 0 W/m 6,4 C 7,1 C 0,0 km/h (0 Bft) 97,37 %
12.10.2017 04:42 7,1 C 11,7 C 96 % 1019,7 hPa 0,0 l/m 0,0 km/h (0 Bft) S 178 0 min 0,000 mm 0,0 UV-I 0 W/m 6,5 C 7,1 C 0,0 km/h (0 Bft) 100,00 %
12.10.2017 04:44 7,1 C 11,7 C 96 % 1019,7 hPa 0,0 l/m 0,0 km/h (0 Bft) S 178 0 min 0,000 mm 0,0 UV-I 0 W/m 6,5 C 7,1 C 0,0 km/h (0 Bft) 100,00 %
12.10.2017 04:46 7,1 C 11,7 C 96 % 1019,8 hPa 0,0 l/m 0,0 km/h (0 Bft) S 178 0 min 0,000 mm 0,0 UV-I 0 W/m 6,5 C 7,1 C 0,0 km/h (0 Bft) 97,87 %
12.10.2017 04:48 7,1 C 11,7 C 95 % 1019,9 hPa 0,0 l/m 0,2 km/h (0 Bft) S 178 0 min 0,000 mm 0,0 UV-I 0 W/m 6,4 C 7,1 C 1,6 km/h (1 Bft) 100,00 %
12.10.2017 04:50 7,1 C 11,7 C 96 % 1019,8 hPa 0,0 l/m 0,0 km/h (0 Bft) S 178 0 min 0,000 mm 0,0 UV-I 0 W/m 6,5 C 7,1 C 1,6 km/h (1 Bft) 100,00 %
12.10.2017 04:52 7,1 C 11,7 C 96 % 1019,9 hPa 0,0 l/m 0,0 km/h (0 Bft) S 178 0 min 0,000 mm 0,0 UV-I 0 W/m 6,5 C 7,1 C 0,0 km/h (0 Bft) 98,11 %
12.10.2017 04:54 7,1 C 11,7 C 96 % 1019,9 hPa 0,0 l/m 0,0 km/h (0 Bft) S 178 0 min 0,000 mm 0,0 UV-I 0 W/m 6,5 C 7,1 C 0,0 km/h (0 Bft) 100,00 %
12.10.2017 04:56 7,0 C 11,7 C 95 % 1019,9 hPa 0,0 l/m 0,0 km/h (0 Bft) S 178 0 min 0,000 mm 0,0 UV-I 0 W/m 6,3 C 7,0 C 0,0 km/h (0 Bft) 100,00 %
12.10.2017 04:58 7,1 C 11,7 C 96 % 1019,9 hPa 0,0 l/m 0,0 km/h (0 Bft) S 178 0 min 0,000 mm 0,0 UV-I 0 W/m 6,5 C 7,1 C 0,0 km/h (0 Bft) 100,00 %
12.10.2017 05:00 7,1 C 11,7 C 96 % 1019,9 hPa 0,0 l/m 0,0 km/h (0 Bft) S 178 0 min 0,000 mm 0,0 UV-I 0 W/m 6,5 C 7,1 C 0,0 km/h (0 Bft) 100,00 %
12.10.2017 05:02 6,9 C 11,7 C 96 % 1019,9 hPa 0,0 l/m 0,0 km/h (0 Bft) S 178 0 min 0,000 mm 0,0 UV-I 0 W/m 6,3 C 6,9 C 0,0 km/h (0 Bft) 100,00 %
12.10.2017 05:04 6,8 C 11,7 C 95 % 1019,9 hPa 0,0 l/m 0,0 km/h (0 Bft) S 178 0 min 0,000 mm 0,0 UV-I 0 W/m 6,1 C 6,8 C 0,0 km/h (0 Bft) 98,00 %
12.10.2017 05:06 6,8 C 11,7 C 96 % 1020,0 hPa 0,0 l/m 0,5 km/h (0 Bft) S 178 0 min 0,000 mm 0,0 UV-I 0 W/m 6,2 C 6,8 C 1,6 km/h (1 Bft) 98,00 %
12.10.2017 05:08 6,8 C 11,7 C 96 % 1019,9 hPa 0,0 l/m 0,0 km/h (0 Bft) S 178 0 min 0,000 mm 0,0 UV-I 0 W/m 6,2 C 6,8 C 1,6 km/h (1 Bft) 97,37 %
12.10.2017 05:10 6,8 C 11,7 C 96 % 1019,9 hPa 0,0 l/m 0,0 km/h (0 Bft) S 178 0 min 0,000 mm 0,0 UV-I 0 W/m 6,2 C 6,8 C 0,0 km/h (0 Bft) 100,00 %
12.10.2017 05:12 6,7 C 11,7 C 96 % 1019,9 hPa 0,0 l/m 0,0 km/h (0 Bft) S 178 0 min 0,000 mm 0,0 UV-I 0 W/m 6,1 C 6,7 C 0,0 km/h (0 Bft) 100,00 %
12.10.2017 05:14 6,7 C 11,7 C 96 % 1020,0 hPa 0,0 l/m 0,0 km/h (0 Bft) S 178 0 min 0,000 mm 0,0 UV-I 0 W/m 6,1 C 6,7 C 0,0 km/h (0 Bft) 100,00 %
12.10.2017 05:16 6,6 C 11,7 C 95 % 1019,9 hPa 0,0 l/m 0,0 km/h (0 Bft) S 178 0 min 0,000 mm 0,0 UV-I 0 W/m 5,9 C 6,6 C 0,0 km/h (0 Bft) 100,00 %
12.10.2017 05:18 6,6 C 11,7 C 96 % 1019,9 hPa 0,0 l/m 0,0 km/h (0 Bft) S 178 0 min 0,000 mm 0,0 UV-I 0 W/m 6,0 C 6,6 C 0,0 km/h (0 Bft) 97,87 %
12.10.2017 05:20 6,7 C 11,7 C 96 % 1020,0 hPa 0,0 l/m 0,0 km/h (0 Bft) S 178 0 min 0,000 mm 0,0 UV-I 0 W/m 6,1 C 6,7 C 0,0 km/h (0 Bft) 100,00 %
12.10.2017 05:22 6,8 C 11,7 C 96 % 1020,0 hPa 0,0 l/m 0,0 km/h (0 Bft) S 178 0 min 0,000 mm 0,0 UV-I 0 W/m 6,2 C 6,8 C 0,0 km/h (0 Bft) 100,00 %
12.10.2017 05:24 6,9 C 11,7 C 96 % 1020,0 hPa 0,0 l/m 0,0 km/h (0 Bft) S 178 0 min 0,000 mm 0,0 UV-I 0 W/m 6,3 C 6,9 C 0,0 km/h (0 Bft) 100,00 %
12.10.2017 05:26 6,8 C 11,7 C 96 % 1020,0 hPa 0,0 l/m 0,0 km/h (0 Bft) S 178 0 min 0,000 mm 0,0 UV-I 0 W/m 6,2 C 6,8 C 0,0 km/h (0 Bft) 100,00 %
12.10.2017 05:28 6,8 C 11,7 C 96 % 1020,0 hPa 0,0 l/m 0,0 km/h (0 Bft) S 178 0 min 0,000 mm 0,0 UV-I 0 W/m 6,2 C 6,8 C 0,0 km/h (0 Bft) 100,00 %
12.10.2017 05:30 6,7 C 11,7 C 96 % 1020,0 hPa 0,0 l/m 0,2 km/h (0 Bft) S 178 0 min 0,000 mm 0,0 UV-I 0 W/m 6,1 C 6,7 C 1,6 km/h (1 Bft) 91,49 %
12.10.2017 05:32 6,7 C 11,7 C 96 % 1020,1 hPa 0,0 l/m 0,0 km/h (0 Bft) S 178 0 min 0,000 mm 0,0 UV-I 0 W/m 6,1 C 6,7 C 0,0 km/h (0 Bft) 100,00 %
12.10.2017 05:34 6,6 C 11,7 C 96 % 1020,0 hPa 0,0 l/m 0,0 km/h (0 Bft) S 178 0 min 0,000 mm 0,0 UV-I 0 W/m 6,0 C 6,6 C 0,0 km/h (0 Bft) 100,00 %
12.10.2017 05:36 6,7 C 11,7 C 96 % 1020,0 hPa 0,0 l/m 0,0 km/h (0 Bft) S 178 0 min 0,000 mm 0,0 UV-I 0 W/m 6,1 C 6,7 C 1,6 km/h (1 Bft) 98,00 %
12.10.2017 05:38 6,7 C 11,7 C 96 % 1020,0 hPa 0,0 l/m 0,0 km/h (0 Bft) S 178 0 min 0,000 mm 0,0 UV-I 0 W/m 6,1 C 6,7 C 0,0 km/h (0 Bft) 100,00 %
12.10.2017 05:40 6,8 C 11,7 C 96 % 1020,1 hPa 0,0 l/m 0,5 km/h (0 Bft) S 178 0 min 0,000 mm 0,0 UV-I 0 W/m 6,2 C 6,8 C 1,6 km/h (1 Bft) 100,00 %
12.10.2017 05:42 6,7 C 11,7 C 96 % 1020,1 hPa 0,0 l/m 0,1 km/h (0 Bft) S 178 0 min 0,000 mm 0,0 UV-I 0 W/m 6,1 C 6,7 C 1,6 km/h (1 Bft) 95,74 %
12.10.2017 05:44 6,7 C 11,7 C 96 % 1020,1 hPa 0,0 l/m 0,0 km/h (0 Bft) S 178 0 min 0,000 mm 0,0 UV-I 0 W/m 6,1 C 6,7 C 0,0 km/h (0 Bft) 98,00 %
12.10.2017 05:46 6,6 C 11,7 C 96 % 1020,2 hPa 0,0 l/m 0,0 km/h (0 Bft) S 178 0 min 0,000 mm 0,0 UV-I 0 W/m 6,0 C 6,6 C 1,6 km/h (1 Bft) 95,74 %
12.10.2017 05:48 6,6 C 11,7 C 96 % 1020,1 hPa 0,0 l/m 0,0 km/h (0 Bft) S 178 0 min 0,000 mm 0,0 UV-I 0 W/m 6,0 C 6,6 C 0,0 km/h (0 Bft) 92,68 %
12.10.2017 05:50 6,6 C 11,7 C 96 % 1020,2 hPa 0,0 l/m 0,0 km/h (0 Bft) S 178 0 min 0,000 mm 0,0 UV-I 0 W/m 6,0 C 6,6 C 0,0 km/h (0 Bft) 93,62 %
12.10.2017 05:52 6,5 C 11,7 C 96 % 1020,1 hPa 0,0 l/m 0,0 km/h (0 Bft) S 178 0 min 0,000 mm 0,0 UV-I 0 W/m 5,9 C 6,5 C 0,0 km/h (0 Bft) 96,00 %
12.10.2017 05:54 6,4 C 11,7 C 96 % 1020,2 hPa 0,0 l/m 0,0 km/h (0 Bft) S 178 0 min 0,000 mm 0,0 UV-I 0 W/m 5,8 C 6,4 C 0,0 km/h (0 Bft) 95,74 %
12.10.2017 05:56 6,3 C 11,1 C 96 % 1020,3 hPa 0,0 l/m 0,0 km/h (0 Bft) S 178 0 min 0,000 mm 0,0 UV-I 0 W/m 5,7 C 6,3 C 0,0 km/h (0 Bft) 94,00 %
12.10.2017 05:58 6,2 C 11,1 C 96 % 1020,2 hPa 0,0 l/m 0,0 km/h (0 Bft) S 178 0 min 0,000 mm 0,0 UV-I 0 W/m 5,6 C 6,2 C 1,6 km/h (1 Bft) 95,74 %
12.10.2017 06:00 6,4 C 11,1 C 96 % 1020,3 hPa 0,0 l/m 1,3 km/h (1 Bft) S 178 0 min 0,000 mm 0,0 UV-I 0 W/m 5,8 C 6,4 C 3,2 km/h (1 Bft) 95,12 %
12.10.2017 06:02 6,5 C 11,1 C 96 % 1020,2 hPa 0,0 l/m 0,5 km/h (0 Bft) S 178 0 min 0,000 mm 0,0 UV-I 0 W/m 5,9 C 6,5 C 1,6 km/h (1 Bft) 96,00 %
12.10.2017 06:04 6,4 C 11,1 C 96 % 1020,2 hPa 0,0 l/m 0,0 km/h (0 Bft) S 178 0 min 0,000 mm 0,0 UV-I 0 W/m 5,8 C 6,4 C 0,0 km/h (0 Bft) 94,74 %
12.10.2017 06:06 6,5 C 11,1 C 96 % 1020,2 hPa 0,0 l/m 0,0 km/h (0 Bft) S 178 0 min 0,000 mm 0,0 UV-I 0 W/m 5,9 C 6,5 C 0,0 km/h (0 Bft) 89,36 %
12.10.2017 06:08 6,6 C 11,1 C 96 % 1020,1 hPa 0,0 l/m 0,0 km/h (0 Bft) S 178 0 min 0,000 mm 0,0 UV-I 0 W/m 6,0 C 6,6 C 0,0 km/h (0 Bft) 94,34 %
12.10.2017 06:10 6,6 C 11,1 C 96 % 1020,2 hPa 0,0 l/m 0,0 km/h (0 Bft) S 178 0 min 0,000 mm 0,0 UV-I 0 W/m 6,0 C 6,6 C 0,0 km/h (0 Bft) 95,74 %
12.10.2017 06:12 6,6 C 11,7 C 96 % 1020,3 hPa 0,0 l/m 0,0 km/h (0 Bft) S 178 0 min 0,000 mm 0,0 UV-I 0 W/m 6,0 C 6,6 C 0,0 km/h (0 Bft) 95,24 %
12.10.2017 06:14 6,6 C 11,1 C 96 % 1020,2 hPa 0,0 l/m 0,0 km/h (0 Bft) S 178 0 min 0,000 mm 0,0 UV-I 0 W/m 6,0 C 6,6 C 0,0 km/h (0 Bft) 97,37 %
12.10.2017 06:16 6,6 C 11,1 C 96 % 1020,3 hPa 0,0 l/m 0,0 km/h (0 Bft) S 178 0 min 0,000 mm 0,0 UV-I 0 W/m 6,0 C 6,6 C 0,0 km/h (0 Bft) 95,16 %
12.10.2017 06:19 6,6 C 11,1 C 96 % 1020,3 hPa 0,0 l/m 0,0 km/h (0 Bft) S 178 0 min 0,000 mm 0,0 UV-I 0 W/m 6,0 C 6,6 C 0,0 km/h (0 Bft) 92,86 %
12.10.2017 06:20 6,6 C 11,1 C 96 % 1020,3 hPa 0,0 l/m 0,0 km/h (0 Bft) S 178 0 min 0,000 mm 0,0 UV-I 0 W/m 6,0 C 6,6 C 0,0 km/h (0 Bft) 95,83 %
12.10.2017 06:22 6,5 C 11,1 C 96 % 1020,3 hPa 0,0 l/m 0,0 km/h (0 Bft) S 178 0 min 0,000 mm 0,0 UV-I 0 W/m 5,9 C 6,5 C 0,0 km/h (0 Bft) 98,00 %
12.10.2017 06:24 6,3 C 11,1 C 96 % 1020,3 hPa 0,0 l/m 0,8 km/h (0 Bft) W-SW 257 0 min 0,000 mm 0,0 UV-I 0 W/m 5,7 C 6,3 C 1,6 km/h (1 Bft) 95,74 %
12.10.2017 06:26 6,2 C 11,1 C 96 % 1020,3 hPa 0,0 l/m 0,7 km/h (0 Bft) W-SW 257 0 min 0,000 mm 0,0 UV-I 0 W/m 5,6 C 6,2 C 1,6 km/h (1 Bft) 97,87 %
12.10.2017 06:28 6,3 C 11,1 C 96 % 1020,3 hPa 0,0 l/m 0,0 km/h (0 Bft) W-SW 257 0 min 0,000 mm 0,0 UV-I 0 W/m 5,7 C 6,3 C 1,6 km/h (1 Bft) 97,37 %
12.10.2017 06:30 6,4 C 11,1 C 96 % 1020,3 hPa 0,0 l/m 0,4 km/h (0 Bft) W-SW 257 0 min 0,000 mm 0,0 UV-I 0 W/m 5,8 C 6,4 C 1,6 km/h (1 Bft) 96,00 %
12.10.2017 06:32 6,4 C 11,1 C 96 % 1020,3 hPa 0,0 l/m 0,0 km/h (0 Bft) W-SW 257 0 min 0,000 mm 0,0 UV-I 0 W/m 5,8 C 6,4 C 0,0 km/h (0 Bft) 97,56 %
12.10.2017 06:34 6,4 C 11,1 C 96 % 1020,3 hPa 0,0 l/m 0,0 km/h (0 Bft) W-SW 257 0 min 0,000 mm 0,0 UV-I 0 W/m 5,8 C 6,4 C 0,0 km/h (0 Bft) 94,34 %
12.10.2017 06:36 6,4 C 11,1 C 96 % 1020,3 hPa 0,0 l/m 0,0 km/h (0 Bft) W-SW 257 0 min 0,000 mm 0,0 UV-I 0 W/m 5,8 C 6,4 C 0,0 km/h (0 Bft) 97,87 %
12.10.2017 06:38 6,4 C 11,1 C 96 % 1020,3 hPa 0,0 l/m 0,0 km/h (0 Bft) W-SW 257 0 min 0,000 mm 0,0 UV-I 0 W/m 5,8 C 6,4 C 0,0 km/h (0 Bft) 93,62 %
12.10.2017 06:40 6,5 C 11,1 C 96 % 1020,3 hPa 0,0 l/m 0,0 km/h (0 Bft) W-SW 257 0 min 0,000 mm 0,0 UV-I 0 W/m 5,9 C 6,5 C 0,0 km/h (0 Bft) 98,04 %
12.10.2017 06:42 6,6 C 11,1 C 96 % 1020,3 hPa 0,0 l/m 0,0 km/h (0 Bft) W-SW 257 0 min 0,000 mm 0,0 UV-I 0 W/m 6,0 C 6,6 C 0,0 km/h (0 Bft) 97,37 %
12.10.2017 06:44 6,5 C 11,1 C 96 % 1020,3 hPa 0,0 l/m 0,0 km/h (0 Bft) W-SW 257 0 min 0,000 mm 0,0 UV-I 0 W/m 5,9 C 6,5 C 0,0 km/h (0 Bft) 100,00 %
12.10.2017 06:46 6,4 C 11,1 C 96 % 1020,3 hPa 0,0 l/m 0,0 km/h (0 Bft) W-SW 257 0 min 0,000 mm 0,0 UV-I 0 W/m 5,8 C 6,4 C 0,0 km/h (0 Bft) 100,00 %
12.10.2017 06:48 6,3 C 11,1 C 96 % 1020,3 hPa 0,0 l/m 0,0 km/h (0 Bft) W-SW 257 0 min 0,000 mm 0,0 UV-I 0 W/m 5,7 C 6,3 C 1,6 km/h (1 Bft) 100,00 %
12.10.2017 06:50 6,3 C 11,1 C 96 % 1020,3 hPa 0,0 l/m 0,7 km/h (0 Bft) W-SW 257 0 min 0,000 mm 0,0 UV-I 0 W/m 5,7 C 6,3 C 3,2 km/h (1 Bft) 100,00 %
12.10.2017 06:52 6,3 C 11,1 C 96 % 1020,4 hPa 0,0 l/m 0,1 km/h (0 Bft) W-SW 257 0 min 0,000 mm 0,0 UV-I 0 W/m 5,7 C 6,3 C 1,6 km/h (1 Bft) 100,00 %
12.10.2017 06:54 6,4 C 11,1 C 97 % 1020,4 hPa 0,0 l/m 0,0 km/h (0 Bft) W-SW 257 0 min 0,000 mm 0,0 UV-I 0 W/m 6,0 C 6,4 C 0,0 km/h (0 Bft) 100,00 %
12.10.2017 06:56 6,5 C 11,1 C 97 % 1020,4 hPa 0,0 l/m 0,0 km/h (0 Bft) W-SW 257 0 min 0,000 mm 0,0 UV-I 0 W/m 6,1 C 6,5 C 0,0 km/h (0 Bft) 98,00 %
12.10.2017 06:58 6,6 C 11,1 C 96 % 1020,4 hPa 0,0 l/m 0,0 km/h (0 Bft) W-SW 257 0 min 0,000 mm 0,0 UV-I 0 W/m 6,0 C 6,6 C 0,0 km/h (0 Bft) 100,00 %
12.10.2017 07:00 6,6 C 11,1 C 96 % 1020,4 hPa 0,0 l/m 0,1 km/h (0 Bft) W-SW 257 0 min 0,000 mm 0,0 UV-I 0 W/m 6,0 C 6,6 C 1,6 km/h (1 Bft) 100,00 %
12.10.2017 07:02 6,5 C 11,1 C 96 % 1020,4 hPa 0,0 l/m 0,0 km/h (0 Bft) W-SW 257 0 min 0,000 mm 0,0 UV-I 0 W/m 5,9 C 6,5 C 0,0 km/h (0 Bft) 100,00 %
12.10.2017 07:04 6,3 C 11,1 C 96 % 1020,4 hPa 0,0 l/m 0,0 km/h (0 Bft) W-SW 257 0 min 0,000 mm 0,0 UV-I 0 W/m 5,7 C 6,3 C 0,0 km/h (0 Bft) 100,00 %
12.10.2017 07:06 6,3 C 11,1 C 96 % 1020,3 hPa 0,0 l/m 0,0 km/h (0 Bft) W-SW 257 0 min 0,000 mm 0,0 UV-I 3 W/m 5,7 C 6,3 C 0,0 km/h (0 Bft) 97,14 %
12.10.2017 07:08 6,2 C 11,1 C 96 % 1020,3 hPa 0,0 l/m 0,0 km/h (0 Bft) W-SW 257 0 min 0,000 mm 0,0 UV-I 5 W/m 5,6 C 6,2 C 0,0 km/h (0 Bft) 100,00 %
12.10.2017 07:10 6,2 C 11,1 C 96 % 1020,4 hPa 0,0 l/m 0,0 km/h (0 Bft) W-SW 257 0 min 0,000 mm 0,0 UV-I 5 W/m 5,6 C 6,2 C 1,6 km/h (1 Bft) 100,00 %
12.10.2017 07:12 6,1 C 11,1 C 96 % 1020,4 hPa 0,0 l/m 0,1 km/h (0 Bft) W-SW 257 0 min 0,000 mm 0,0 UV-I 7 W/m 5,5 C 6,1 C 1,6 km/h (1 Bft) 100,00 %
12.10.2017 07:14 6,1 C 11,1 C 96 % 1020,4 hPa 0,0 l/m 0,0 km/h (0 Bft) W-SW 257 0 min 0,000 mm 0,0 UV-I 9 W/m 5,5 C 6,1 C 0,0 km/h (0 Bft) 100,00 %
12.10.2017 07:16 6,2 C 11,1 C 96 % 1020,5 hPa 0,0 l/m 0,0 km/h (0 Bft) W-SW 257 0 min 0,000 mm 0,0 UV-I 9 W/m 5,6 C 6,2 C 0,0 km/h (0 Bft) 100,00 %
12.10.2017 07:18 6,3 C 11,1 C 96 % 1020,5 hPa 0,0 l/m 0,0 km/h (0 Bft) W-SW 257 0 min 0,000 mm 0,0 UV-I 11 W/m 5,7 C 6,3 C 0,0 km/h (0 Bft) 100,00 %
12.10.2017 07:20 6,3 C 11,1 C 97 % 1020,5 hPa 0,0 l/m 0,0 km/h (0 Bft) W-SW 257 0 min 0,000 mm 0,0 UV-I 12 W/m 5,9 C 6,3 C 0,0 km/h (0 Bft) 97,87 %
12.10.2017 07:22 6,3 C 11,1 C 97 % 1020,6 hPa 0,0 l/m 0,0 km/h (0 Bft) W-SW 257 0 min 0,000 mm 0,0 UV-I 12 W/m 5,9 C 6,3 C 0,0 km/h (0 Bft) 100,00 %
12.10.2017 07:24 6,3 C 11,1 C 97 % 1020,6 hPa 0,0 l/m 0,7 km/h (0 Bft) W-SW 257 0 min 0,000 mm 0,0 UV-I 13 W/m 5,9 C 6,3 C 3,2 km/h (1 Bft) 98,00 %
12.10.2017 07:26 6,3 C 11,1 C 96 % 1020,6 hPa 0,0 l/m 2,9 km/h (1 Bft) S-SO 161 0 min 0,000 mm 0,0 UV-I 14 W/m 5,7 C 6,3 C 6,4 km/h (2 Bft) 100,00 %
12.10.2017 07:28 6,4 C 11,1 C 97 % 1020,7 hPa 0,0 l/m 1,6 km/h (1 Bft) S-SO 161 0 min 0,000 mm 0,0 UV-I 14 W/m 6,0 C 6,4 C 3,2 km/h (1 Bft) 97,87 %
12.10.2017 07:30 6,4 C 11,1 C 97 % 1020,7 hPa 0,0 l/m 0,0 km/h (0 Bft) S-SO 161 2 min 0,000 mm 0,0 UV-I 16 W/m 6,0 C 6,4 C 0,0 km/h (0 Bft) 100,00 %
12.10.2017 07:32 6,4 C 11,1 C 97 % 1020,7 hPa 0,0 l/m 0,0 km/h (0 Bft) S-SO 161 2 min 0,000 mm 0,0 UV-I 18 W/m 6,0 C 6,4 C 0,0 km/h (0 Bft) 97,87 %
12.10.2017 07:34 6,4 C 11,1 C 97 % 1020,7 hPa 0,0 l/m 0,0 km/h (0 Bft) S-SO 161 2 min 0,000 mm 0,0 UV-I 20 W/m 6,0 C 6,4 C 0,0 km/h (0 Bft) 100,00 %
12.10.2017 07:36 6,4 C 11,1 C 97 % 1020,8 hPa 0,0 l/m 0,0 km/h (0 Bft) S-SO 161 2 min 0,000 mm 0,0 UV-I 24 W/m 6,0 C 6,4 C 0,0 km/h (0 Bft) 100,00 %
12.10.2017 07:38 6,3 C 11,1 C 97 % 1020,8 hPa 0,0 l/m 0,0 km/h (0 Bft) S-SO 161 2 min 0,000 mm 0,0 UV-I 27 W/m 5,9 C 6,3 C 0,0 km/h (0 Bft) 100,00 %
12.10.2017 07:40 6,3 C 11,1 C 96 % 1020,8 hPa 0,0 l/m 0,0 km/h (0 Bft) S-SO 161 2 min 0,000 mm 0,0 UV-I 29 W/m 5,7 C 6,3 C 0,0 km/h (0 Bft) 100,00 %
12.10.2017 07:42 6,4 C 11,1 C 97 % 1020,8 hPa 0,0 l/m 0,0 km/h (0 Bft) S-SO 161 2 min 0,000 mm 0,0 UV-I 31 W/m 6,0 C 6,4 C 0,0 km/h (0 Bft) 100,00 %
12.10.2017 07:44 6,5 C 11,1 C 97 % 1020,8 hPa 0,0 l/m 0,0 km/h (0 Bft) S-SO 161 2 min 0,000 mm 0,0 UV-I 33 W/m 6,1 C 6,5 C 1,6 km/h (1 Bft) 100,00 %
12.10.2017 07:46 6,6 C 11,1 C 97 % 1020,9 hPa 0,0 l/m 0,0 km/h (0 Bft) S-SO 161 2 min 0,000 mm 0,0 UV-I 37 W/m 6,2 C 6,6 C 0,0 km/h (0 Bft) 97,87 %
12.10.2017 07:48 6,3 C 11,1 C 96 % 1020,9 hPa 0,0 l/m 0,0 km/h (0 Bft) S-SO 161 2 min 0,000 mm 0,0 UV-I 57 W/m 5,7 C 6,3 C 0,0 km/h (0 Bft) 97,37 %
12.10.2017 07:50 6,1 C 11,1 C 96 % 1021,0 hPa 0,0 l/m 0,0 km/h (0 Bft) S-SO 161 2 min 0,000 mm 0,0 UV-I 74 W/m 5,5 C 6,1 C 0,0 km/h (0 Bft) 100,00 %
12.10.2017 07:52 6,1 C 11,1 C 96 % 1020,9 hPa 0,0 l/m 0,0 km/h (0 Bft) S-SO 161 2 min 0,000 mm 0,0 UV-I 82 W/m 5,5 C 6,1 C 0,0 km/h (0 Bft) 100,00 %
12.10.2017 07:54 6,3 C 11,1 C 96 % 1021,0 hPa 0,0 l/m 0,0 km/h (0 Bft) S 186 2 min 0,000 mm 0,0 UV-I 86 W/m 5,7 C 6,3 C 0,0 km/h (0 Bft) 100,00 %
12.10.2017 07:56 6,3 C 11,1 C 97 % 1021,0 hPa 0,0 l/m 0,6 km/h (0 Bft) S 186 2 min 0,000 mm 0,0 UV-I 91 W/m 5,9 C 6,3 C 3,2 km/h (1 Bft) 100,00 %
12.10.2017 07:58 6,3 C 11,1 C 96 % 1021,0 hPa 0,0 l/m 0,2 km/h (0 Bft) S 186 2 min 0,000 mm 0,0 UV-I 94 W/m 5,7 C 6,3 C 1,6 km/h (1 Bft) 100,00 %
12.10.2017 08:00 6,4 C 11,1 C 96 % 1021,0 hPa 0,0 l/m 1,1 km/h (1 Bft) O-SO 102 2 min 0,025 mm 0,0 UV-I 85 W/m 5,8 C 6,4 C 3,2 km/h (1 Bft) 98,11 %
12.10.2017 08:02 6,5 C 11,1 C 97 % 1021,1 hPa 0,0 l/m 1,7 km/h (1 Bft) O-SO 103 2 min 0,000 mm 0,0 UV-I 99 W/m 6,1 C 6,5 C 4,8 km/h (1 Bft) 97,14 %
12.10.2017 08:04 6,6 C 11,1 C 97 % 1021,1 hPa 0,0 l/m 0,7 km/h (0 Bft) O-SO 102 2 min 0,000 mm 0,0 UV-I 108 W/m 6,2 C 6,6 C 3,2 km/h (1 Bft) 94,64 %
12.10.2017 08:06 6,7 C 11,1 C 97 % 1021,1 hPa 0,0 l/m 1,5 km/h (1 Bft) O-SO 103 2 min 0,000 mm 0,0 UV-I 102 W/m 6,3 C 6,7 C 3,2 km/h (1 Bft) 100,00 %
12.10.2017 08:08 6,9 C 11,1 C 97 % 1021,2 hPa 0,0 l/m 1,7 km/h (1 Bft) O-SO 102 2 min 0,000 mm 0,0 UV-I 77 W/m 6,5 C 6,9 C 4,8 km/h (1 Bft) 95,74 %
12.10.2017 08:10 7,1 C 11,1 C 97 % 1021,2 hPa 0,0 l/m 1,7 km/h (1 Bft) O-SO 102 0 min 0,000 mm 0,0 UV-I 56 W/m 6,7 C 7,1 C 3,2 km/h (1 Bft) 97,87 %
12.10.2017 08:12 7,1 C 11,1 C 97 % 1021,2 hPa 0,0 l/m 1,2 km/h (1 Bft) O-SO 102 0 min 0,000 mm 0,0 UV-I 55 W/m 6,7 C 7,1 C 3,2 km/h (1 Bft) 94,34 %
12.10.2017 08:14 7,2 C 11,1 C 97 % 1021,2 hPa 0,0 l/m 0,4 km/h (0 Bft) O-SO 103 0 min 0,000 mm 0,0 UV-I 56 W/m 6,8 C 7,2 C 3,2 km/h (1 Bft) 95,74 %
12.10.2017 08:16 7,2 C 11,1 C 97 % 1021,2 hPa 0,0 l/m 0,4 km/h (0 Bft) O-SO 102 0 min 0,000 mm 0,0 UV-I 57 W/m 6,8 C 7,2 C 1,6 km/h (1 Bft) 97,62 %
12.10.2017 08:18 7,2 C 11,1 C 97 % 1021,2 hPa 0,0 l/m 0,0 km/h (0 Bft) O-SO 102 0 min 0,000 mm 0,0 UV-I 68 W/m 6,8 C 7,2 C 0,0 km/h (0 Bft) 96,23 %
12.10.2017 08:20 7,1 C 11,1 C 97 % 1021,4 hPa 0,0 l/m 0,0 km/h (0 Bft) O-SO 103 0 min 0,000 mm 0,0 UV-I 75 W/m 6,7 C 7,1 C 0,0 km/h (0 Bft) 97,56 %
12.10.2017 08:23 7,2 C 11,1 C 97 % 1021,4 hPa 0,0 l/m 0,0 km/h (0 Bft) O-SO 102 0 min 0,000 mm 0,0 UV-I 72 W/m 6,8 C 7,2 C 0,0 km/h (0 Bft) 96,05 %
12.10.2017 08:24 7,2 C 11,1 C 97 % 1021,4 hPa 0,0 l/m 0,0 km/h (0 Bft) O-SO 102 0 min 0,000 mm 0,0 UV-I 78 W/m 6,8 C 7,2 C 0,0 km/h (0 Bft) 93,33 %
12.10.2017 08:26 7,2 C 11,1 C 97 % 1021,3 hPa 0,0 l/m 0,0 km/h (0 Bft) O-SO 102 0 min 0,000 mm 0,0 UV-I 81 W/m 6,8 C 7,2 C 0,0 km/h (0 Bft) 98,00 %
12.10.2017 08:28 7,2 C 11,1 C 97 % 1021,4 hPa 0,0 l/m 0,0 km/h (0 Bft) O-SO 102 2 min 0,000 mm 0,0 UV-I 100 W/m 6,8 C 7,2 C 0,0 km/h (0 Bft) 97,87 %
12.10.2017 08:30 7,3 C 11,1 C 97 % 1021,3 hPa 0,0 l/m 0,0 km/h (0 Bft) O-SO 102 0 min 0,000 mm 0,0 UV-I 100 W/m 6,9 C 7,3 C 0,0 km/h (0 Bft) 97,56 %
12.10.2017 08:33 7,3 C 11,1 C 97 % 1021,3 hPa 0,0 l/m 0,0 km/h (0 Bft) O-SO 102 3 min 0,000 mm 0,0 UV-I 174 W/m 6,9 C 7,3 C 0,0 km/h (0 Bft) 97,56 %
12.10.2017 08:34 7,3 C 11,1 C 97 % 1021,3 hPa 0,0 l/m 0,0 km/h (0 Bft) O-SO 102 1 min 0,000 mm 0,0 UV-I 198 W/m 6,9 C 7,3 C 0,0 km/h (0 Bft) 100,00 %
12.10.2017 08:36 7,6 C 11,1 C 97 % 1021,3 hPa 0,0 l/m 0,0 km/h (0 Bft) O-SO 102 2 min 0,000 mm 0,0 UV-I 148 W/m 7,2 C 7,6 C 0,0 km/h (0 Bft) 98,31 %
12.10.2017 08:38 7,8 C 11,1 C 97 % 1021,3 hPa 0,0 l/m 0,0 km/h (0 Bft) O-SO 103 2 min 0,000 mm 0,0 UV-I 116 W/m 7,4 C 7,8 C 0,0 km/h (0 Bft) 100,00 %
12.10.2017 08:40 7,9 C 11,1 C 97 % 1021,3 hPa 0,0 l/m 0,0 km/h (0 Bft) O-SO 102 2 min 0,000 mm 0,0 UV-I 138 W/m 7,5 C 7,9 C 0,0 km/h (0 Bft) 100,00 %
12.10.2017 08:42 7,9 C 11,1 C 97 % 1021,4 hPa 0,0 l/m 0,0 km/h (0 Bft) O-SO 102 2 min 0,000 mm 0,0 UV-I 201 W/m 7,5 C 7,9 C 0,0 km/h (0 Bft) 100,00 %
12.10.2017 08:44 8,2 C 11,1 C 97 % 1021,3 hPa 0,0 l/m 0,1 km/h (0 Bft) O-SO 102 2 min 0,000 mm 0,0 UV-I 247 W/m 7,8 C 8,2 C 1,6 km/h (1 Bft) 100,00 %
12.10.2017 08:46 8,4 C 11,1 C 97 % 1021,4 hPa 0,0 l/m 0,0 km/h (0 Bft) O-SO 103 2 min 0,000 mm 0,0 UV-I 188 W/m 8,0 C 8,4 C 0,0 km/h (0 Bft) 100,00 %
12.10.2017 08:48 8,5 C 11,1 C 97 % 1021,5 hPa 0,0 l/m 0,0 km/h (0 Bft) O-SO 102 2 min 0,000 mm 0,0 UV-I 147 W/m 8,1 C 8,5 C 0,0 km/h (0 Bft) 100,00 %
12.10.2017 08:50 8,6 C 11,1 C 97 % 1021,5 hPa 0,0 l/m 0,0 km/h (0 Bft) O-SO 102 0 min 0,000 mm 0,0 UV-I 115 W/m 8,2 C 8,6 C 0,0 km/h (0 Bft) 100,00 %
12.10.2017 08:52 8,7 C 11,1 C 97 % 1021,4 hPa 0,0 l/m 0,0 km/h (0 Bft) O-SO 102 0 min 0,000 mm 0,0 UV-I 105 W/m 8,3 C 8,7 C 0,0 km/h (0 Bft) 100,00 %
12.10.2017 08:54 8,7 C 11,1 C 97 % 1021,5 hPa 0,0 l/m 0,0 km/h (0 Bft) O-SO 102 0 min 0,000 mm 0,0 UV-I 109 W/m 8,3 C 8,7 C 1,6 km/h (1 Bft) 100,00 %
12.10.2017 08:56 8,7 C 11,1 C 97 % 1021,6 hPa 0,0 l/m 0,0 km/h (0 Bft) O-SO 102 0 min 0,000 mm 0,0 UV-I 113 W/m 8,3 C 8,7 C 0,0 km/h (0 Bft) 98,39 %
12.10.2017 08:58 8,8 C 11,1 C 97 % 1021,5 hPa 0,0 l/m 0,2 km/h (0 Bft) O-SO 102 0 min 0,000 mm 0,0 UV-I 120 W/m 8,4 C 8,8 C 1,6 km/h (1 Bft) 100,00 %
12.10.2017 09:00 8,8 C 11,1 C 96 % 1021,6 hPa 0,0 l/m 0,0 km/h (0 Bft) O-SO 102 0 min 0,051 mm 0,0 UV-I 114 W/m 8,2 C 8,8 C 0,0 km/h (0 Bft) 100,00 %
12.10.2017 09:02 8,8 C 11,1 C 96 % 1021,6 hPa 0,0 l/m 0,0 km/h (0 Bft) O-SO 102 0 min 0,000 mm 0,0 UV-I 111 W/m 8,2 C 8,8 C 0,0 km/h (0 Bft) 97,87 %
12.10.2017 09:04 8,8 C 11,1 C 96 % 1021,6 hPa 0,0 l/m 0,0 km/h (0 Bft) O-SO 102 0 min 0,000 mm 0,0 UV-I 109 W/m 8,2 C 8,8 C 0,0 km/h (0 Bft) 100,00 %
12.10.2017 09:06 8,9 C 11,1 C 96 % 1021,5 hPa 0,0 l/m 0,0 km/h (0 Bft) O-SO 102 0 min 0,000 mm 0,0 UV-I 113 W/m 8,3 C 8,9 C 0,0 km/h (0 Bft) 100,00 %
12.10.2017 09:08 8,9 C 11,1 C 96 % 1021,5 hPa 0,0 l/m 0,5 km/h (0 Bft) O-SO 102 0 min 0,000 mm 0,0 UV-I 131 W/m 8,3 C 8,9 C 3,2 km/h (1 Bft) 100,00 %
12.10.2017 09:10 9,0 C 11,1 C 96 % 1021,5 hPa 0,0 l/m 1,7 km/h (1 Bft) O-SO 102 0 min 0,000 mm 0,0 UV-I 127 W/m 8,4 C 9,0 C 3,2 km/h (1 Bft) 97,87 %
12.10.2017 09:12 9,1 C 11,1 C 96 % 1021,6 hPa 0,0 l/m 0,1 km/h (0 Bft) O-SO 102 0 min 0,000 mm 0,0 UV-I 123 W/m 8,5 C 9,1 C 1,6 km/h (1 Bft) 98,00 %
12.10.2017 09:14 9,1 C 11,1 C 96 % 1021,4 hPa 0,0 l/m 0,0 km/h (0 Bft) O-SO 102 0 min 0,000 mm 0,0 UV-I 119 W/m 8,5 C 9,1 C 0,0 km/h (0 Bft) 96,00 %
12.10.2017 09:16 9,2 C 11,1 C 95 % 1021,4 hPa 0,0 l/m 0,1 km/h (0 Bft) O-SO 102 0 min 0,000 mm 0,0 UV-I 123 W/m 8,4 C 9,2 C 1,6 km/h (1 Bft) 97,87 %
12.10.2017 09:18 9,2 C 11,1 C 95 % 1021,4 hPa 0,0 l/m 0,1 km/h (0 Bft) O-SO 102 0 min 0,000 mm 0,0 UV-I 127 W/m 8,4 C 9,2 C 1,6 km/h (1 Bft) 97,73 %
12.10.2017 09:20 9,3 C 11,1 C 95 % 1021,4 hPa 0,0 l/m 0,5 km/h (0 Bft) O-SO 102 0 min 0,000 mm 0,0 UV-I 129 W/m 8,5 C 9,3 C 1,6 km/h (1 Bft) 92,68 %
12.10.2017 09:22 9,3 C 11,1 C 95 % 1021,4 hPa 0,0 l/m 0,7 km/h (0 Bft) O-SO 102 0 min 0,000 mm 0,0 UV-I 134 W/m 8,5 C 9,3 C 3,2 km/h (1 Bft) 95,74 %
12.10.2017 09:24 9,5 C 11,1 C 95 % 1021,5 hPa 0,0 l/m 0,3 km/h (0 Bft) O-SO 103 0 min 0,000 mm 0,0 UV-I 140 W/m 8,7 C 9,5 C 1,6 km/h (1 Bft) 97,87 %
12.10.2017 09:26 9,6 C 11,1 C 94 % 1021,5 hPa 0,0 l/m 1,3 km/h (1 Bft) O-SO 121 0 min 0,000 mm 0,0 UV-I 148 W/m 8,7 C 9,6 C 4,8 km/h (1 Bft) 96,23 %
12.10.2017 09:28 9,7 C 11,1 C 94 % 1021,5 hPa 0,0 l/m 1,9 km/h (1 Bft) SO 142 0 min 0,000 mm 0,3 UV-I 167 W/m 8,8 C 9,7 C 4,8 km/h (1 Bft) 97,44 %
12.10.2017 09:30 9,8 C 11,1 C 94 % 1021,4 hPa 0,0 l/m 1,6 km/h (1 Bft) SO 142 2 min 0,000 mm 0,5 UV-I 189 W/m 8,9 C 9,8 C 4,8 km/h (1 Bft) 98,00 %
12.10.2017 09:32 9,8 C 11,1 C 94 % 1021,5 hPa 0,0 l/m 2,1 km/h (1 Bft) S-SO 150 0 min 0,000 mm 0,5 UV-I 179 W/m 8,9 C 9,8 C 4,8 km/h (1 Bft) 95,45 %
12.10.2017 09:34 9,9 C 11,1 C 93 % 1021,5 hPa 0,0 l/m 2,5 km/h (1 Bft) S-SO 156 0 min 0,000 mm 0,5 UV-I 160 W/m 8,8 C 9,9 C 8,0 km/h (2 Bft) 98,21 %
12.10.2017 09:36 10,1 C 11,1 C 93 % 1021,6 hPa 0,0 l/m 1,4 km/h (1 Bft) S-SO 156 0 min 0,000 mm 0,5 UV-I 156 W/m 9,0 C 10,1 C 4,8 km/h (1 Bft) 97,87 %
12.10.2017 09:38 10,2 C 11,1 C 93 % 1021,6 hPa 0,0 l/m 4,0 km/h (1 Bft) SO 137 0 min 0,000 mm 0,5 UV-I 157 W/m 9,1 C 10,2 C 6,4 km/h (2 Bft) 97,14 %
12.10.2017 09:40 10,2 C 11,1 C 93 % 1021,7 hPa 0,0 l/m 1,1 km/h (1 Bft) SO 137 0 min 0,000 mm 0,5 UV-I 153 W/m 9,1 C 10,2 C 3,2 km/h (1 Bft) 98,31 %
12.10.2017 09:42 10,2 C 11,1 C 93 % 1021,8 hPa 0,0 l/m 0,0 km/h (0 Bft) SO 137 0 min 0,000 mm 0,5 UV-I 146 W/m 9,1 C 10,2 C 0,0 km/h (0 Bft) 97,87 %
12.10.2017 09:44 10,2 C 11,1 C 93 % 1021,6 hPa 0,0 l/m 0,0 km/h (0 Bft) SO 137 0 min 0,000 mm 0,5 UV-I 142 W/m 9,1 C 10,2 C 1,6 km/h (1 Bft) 95,74 %
12.10.2017 09:46 10,3 C 11,1 C 93 % 1021,7 hPa 0,0 l/m 0,0 km/h (0 Bft) SO 137 0 min 0,000 mm 0,5 UV-I 142 W/m 9,2 C 10,3 C 0,0 km/h (0 Bft) 100,00 %
12.10.2017 09:48 10,3 C 11,1 C 93 % 1021,7 hPa 0,0 l/m 0,6 km/h (0 Bft) SO 137 0 min 0,000 mm 0,6 UV-I 143 W/m 9,2 C 10,3 C 3,2 km/h (1 Bft) 95,74 %
12.10.2017 09:50 10,3 C 11,1 C 93 % 1021,6 hPa 0,0 l/m 0,0 km/h (0 Bft) SO 137 0 min 0,000 mm 0,6 UV-I 191 W/m 9,2 C 10,3 C 0,0 km/h (0 Bft) 95,74 %
12.10.2017 09:52 10,4 C 11,1 C 93 % 1021,8 hPa 0,0 l/m 1,3 km/h (1 Bft) SO 137 0 min 0,000 mm 0,6 UV-I 142 W/m 9,3 C 10,4 C 3,2 km/h (1 Bft) 96,23 %
12.10.2017 09:54 10,4 C 11,1 C 93 % 1021,7 hPa 0,0 l/m 0,5 km/h (0 Bft) SO 137 0 min 0,000 mm 0,6 UV-I 145 W/m 9,3 C 10,4 C 3,2 km/h (1 Bft) 97,87 %
12.10.2017 09:56 10,4 C 11,1 C 92 % 1021,8 hPa 0,0 l/m 0,0 km/h (0 Bft) SO 137 0 min 0,000 mm 0,7 UV-I 200 W/m 9,2 C 10,4 C 0,0 km/h (0 Bft) 98,00 %
12.10.2017 09:58 10,5 C 11,1 C 93 % 1021,8 hPa 0,0 l/m 0,0 km/h (0 Bft) SO 137 2 min 0,000 mm 0,8 UV-I 246 W/m 9,4 C 10,5 C 0,0 km/h (0 Bft) 97,37 %
12.10.2017 10:00 10,6 C 11,1 C 92 % 1021,8 hPa 0,0 l/m 0,0 km/h (0 Bft) SO 137 2 min 0,076 mm 0,8 UV-I 390 W/m 9,4 C 10,6 C 0,0 km/h (0 Bft) 98,00 %
12.10.2017 10:02 10,7 C 11,1 C 92 % 1021,8 hPa 0,0 l/m 0,0 km/h (0 Bft) SO 137 2 min 0,000 mm 0,9 UV-I 356 W/m 9,5 C 10,7 C 0,0 km/h (0 Bft) 96,00 %
12.10.2017 10:04 10,8 C 11,1 C 91 % 1021,8 hPa 0,0 l/m 0,0 km/h (0 Bft) SO 137 2 min 0,000 mm 1,0 UV-I 394 W/m 9,4 C 10,8 C 1,6 km/h (1 Bft) 97,37 %
12.10.2017 10:06 10,9 C 11,1 C 91 % 1021,8 hPa 0,0 l/m 0,5 km/h (0 Bft) SO 137 2 min 0,000 mm 1,0 UV-I 391 W/m 9,5 C 10,9 C 3,2 km/h (1 Bft) 94,34 %
12.10.2017 10:08 11,2 C 11,1 C 91 % 1021,7 hPa 0,0 l/m 1,6 km/h (1 Bft) SO 137 2 min 0,000 mm 0,9 UV-I 316 W/m 9,8 C 11,2 C 3,2 km/h (1 Bft) 93,62 %
12.10.2017 10:10 11,3 C 11,1 C 90 % 1021,7 hPa 0,0 l/m 0,9 km/h (0 Bft) SO 137 2 min 0,000 mm 0,9 UV-I 284 W/m 9,7 C 11,3 C 3,2 km/h (1 Bft) 97,44 %
12.10.2017 10:12 11,4 C 11,1 C 89 % 1021,7 hPa 0,0 l/m 0,9 km/h (0 Bft) SO 137 2 min 0,000 mm 1,0 UV-I 304 W/m 9,7 C 11,4 C 3,2 km/h (1 Bft) 94,34 %
12.10.2017 10:14 11,5 C 11,1 C 89 % 1021,6 hPa 0,0 l/m 0,6 km/h (0 Bft) SO 137 2 min 0,000 mm 1,0 UV-I 331 W/m 9,8 C 11,5 C 3,2 km/h (1 Bft) 96,00 %
12.10.2017 10:16 11,8 C 11,1 C 89 % 1021,6 hPa 0,0 l/m 0,0 km/h (0 Bft) SO 137 2 min 0,000 mm 1,1 UV-I 381 W/m 10,0 C 11,8 C 0,0 km/h (0 Bft) 95,74 %
12.10.2017 10:18 11,9 C 11,1 C 87 % 1021,7 hPa 0,0 l/m 0,5 km/h (0 Bft) SO 137 2 min 0,000 mm 1,3 UV-I 481 W/m 9,8 C 11,9 C 1,6 km/h (1 Bft) 95,74 %
12.10.2017 10:20 12,2 C 11,1 C 87 % 1021,7 hPa 0,0 l/m 0,0 km/h (0 Bft) SO 137 2 min 0,000 mm 1,3 UV-I 503 W/m 10,1 C 12,2 C 0,0 km/h (0 Bft) 94,00 %
12.10.2017 10:22 12,3 C 11,1 C 86 % 1021,7 hPa 0,0 l/m 0,5 km/h (0 Bft) SO 137 2 min 0,000 mm 1,2 UV-I 460 W/m 10,0 C 12,3 C 3,2 km/h (1 Bft) 93,62 %
12.10.2017 10:24 12,5 C 11,1 C 84 % 1021,8 hPa 0,0 l/m 2,6 km/h (1 Bft) S 187 2 min 0,000 mm 1,2 UV-I 414 W/m 9,9 C 12,5 C 4,8 km/h (1 Bft) 97,14 %
12.10.2017 10:26 12,7 C 11,1 C 85 % 1021,8 hPa 0,0 l/m 2,2 km/h (1 Bft) S 188 2 min 0,000 mm 1,1 UV-I 257 W/m 10,2 C 12,7 C 4,8 km/h (1 Bft) 93,62 %
12.10.2017 10:28 12,6 C 11,1 C 83 % 1021,8 hPa 0,0 l/m 3,3 km/h (1 Bft) S 188 0 min 0,000 mm 1,1 UV-I 184 W/m 9,8 C 12,6 C 4,8 km/h (1 Bft) 98,00 %
12.10.2017 10:30 12,5 C 11,1 C 82 % 1021,9 hPa 0,0 l/m 3,1 km/h (1 Bft) S 188 0 min 0,000 mm 1,1 UV-I 181 W/m 9,5 C 12,5 C 4,8 km/h (1 Bft) 95,74 %
12.10.2017 10:32 12,6 C 11,1 C 83 % 1021,9 hPa 0,0 l/m 3,2 km/h (1 Bft) S 188 0 min 0,000 mm 1,3 UV-I 181 W/m 9,8 C 12,6 C 4,8 km/h (1 Bft) 95,74 %
12.10.2017 10:34 12,6 C 11,1 C 83 % 1021,8 hPa 0,0 l/m 2,5 km/h (1 Bft) S 188 0 min 0,000 mm 1,3 UV-I 210 W/m 9,8 C 12,6 C 4,8 km/h (1 Bft) 100,00 %
12.10.2017 10:36 12,7 C 11,1 C 82 % 1021,9 hPa 0,0 l/m 2,4 km/h (1 Bft) W-SW 254 2 min 0,000 mm 1,3 UV-I 393 W/m 9,7 C 12,7 C 3,2 km/h (1 Bft) 100,00 %
12.10.2017 10:38 12,7 C 11,1 C 81 % 1022,0 hPa 0,0 l/m 2,3 km/h (1 Bft) W-SW 254 2 min 0,000 mm 1,4 UV-I 441 W/m 9,5 C 12,7 C 4,8 km/h (1 Bft) 97,87 %
12.10.2017 10:40 12,8 C 11,1 C 81 % 1022,0 hPa 0,0 l/m 2,0 km/h (1 Bft) W 273 2 min 0,000 mm 1,4 UV-I 440 W/m 9,6 C 12,8 C 4,8 km/h (1 Bft) 100,00 %
12.10.2017 10:42 13,0 C 11,1 C 80 % 1022,0 hPa 0,0 l/m 0,0 km/h (0 Bft) W 273 2 min 0,000 mm 1,5 UV-I 452 W/m 9,6 C 13,0 C 0,0 km/h (0 Bft) 97,37 %
12.10.2017 10:44 13,2 C 11,1 C 78 % 1021,9 hPa 0,0 l/m 0,0 km/h (0 Bft) W 273 2 min 0,000 mm 1,5 UV-I 458 W/m 9,4 C 13,2 C 0,0 km/h (0 Bft) 100,00 %
12.10.2017 10:46 13,3 C 11,1 C 77 % 1021,9 hPa 0,0 l/m 0,0 km/h (0 Bft) W 273 2 min 0,000 mm 1,6 UV-I 464 W/m 9,4 C 13,3 C 1,6 km/h (1 Bft) 100,00 %
12.10.2017 10:48 13,2 C 11,1 C 78 % 1021,9 hPa 0,0 l/m 0,0 km/h (0 Bft) W 273 2 min 0,000 mm 1,6 UV-I 465 W/m 9,4 C 13,2 C 1,6 km/h (1 Bft) 100,00 %
12.10.2017 10:50 13,2 C 11,1 C 78 % 1021,9 hPa 0,0 l/m 1,4 km/h (1 Bft) W 273 2 min 0,000 mm 1,7 UV-I 468 W/m 9,4 C 13,2 C 3,2 km/h (1 Bft) 96,00 %
12.10.2017 10:52 13,4 C 11,1 C 79 % 1021,9 hPa 0,0 l/m 1,3 km/h (1 Bft) W 273 2 min 0,000 mm 1,7 UV-I 475 W/m 9,8 C 13,4 C 3,2 km/h (1 Bft) 100,00 %
12.10.2017 10:54 13,7 C 11,1 C 80 % 1021,9 hPa 0,0 l/m 1,1 km/h (1 Bft) W 273 2 min 0,000 mm 1,7 UV-I 478 W/m 10,3 C 13,7 C 3,2 km/h (1 Bft) 97,87 %
12.10.2017 10:56 13,8 C 11,1 C 77 % 1021,9 hPa 0,0 l/m 2,7 km/h (1 Bft) S-SO 148 2 min 0,000 mm 1,8 UV-I 492 W/m 9,8 C 13,8 C 3,2 km/h (1 Bft) 95,74 %
12.10.2017 10:58 14,0 C 11,1 C 79 % 1021,8 hPa 0,0 l/m 1,5 km/h (1 Bft) S-SO 148 2 min 0,000 mm 1,8 UV-I 499 W/m 10,4 C 14,0 C 3,2 km/h (1 Bft) 100,00 %
12.10.2017 11:00 14,1 C 11,1 C 78 % 1021,8 hPa 0,0 l/m 0,0 km/h (0 Bft) S-SO 148 2 min 0,204 mm 1,8 UV-I 490 W/m 10,3 C 14,1 C 0,0 km/h (0 Bft) 100,00 %
12.10.2017 11:02 14,2 C 11,1 C 78 % 1021,8 hPa 0,0 l/m 1,6 km/h (1 Bft) S-SW 196 2 min 0,000 mm 1,8 UV-I 492 W/m 10,4 C 14,2 C 3,2 km/h (1 Bft) 97,87 %
12.10.2017 11:04 14,2 C 11,1 C 77 % 1021,7 hPa 0,0 l/m 2,6 km/h (1 Bft) SW 229 2 min 0,000 mm 1,8 UV-I 492 W/m 10,2 C 14,2 C 4,8 km/h (1 Bft) 100,00 %
12.10.2017 11:06 14,3 C 11,1 C 78 % 1021,8 hPa 0,0 l/m 0,9 km/h (0 Bft) SW 229 2 min 0,000 mm 1,9 UV-I 501 W/m 10,5 C 14,3 C 4,8 km/h (1 Bft) 100,00 %
12.10.2017 11:08 14,3 C 11,1 C 78 % 1021,8 hPa 0,0 l/m 1,5 km/h (1 Bft) SW 231 2 min 0,000 mm 1,9 UV-I 508 W/m 10,5 C 14,3 C 4,8 km/h (1 Bft) 97,87 %
12.10.2017 11:10 14,6 C 11,1 C 79 % 1021,8 hPa 0,0 l/m 2,9 km/h (1 Bft) SW 230 2 min 0,000 mm 1,9 UV-I 512 W/m 11,0 C 14,6 C 4,8 km/h (1 Bft) 100,00 %
12.10.2017 11:12 14,7 C 11,1 C 78 % 1021,8 hPa 0,0 l/m 0,5 km/h (0 Bft) SW 230 2 min 0,000 mm 1,9 UV-I 510 W/m 10,9 C 14,7 C 1,6 km/h (1 Bft) 97,87 %
12.10.2017 11:14 14,8 C 11,1 C 79 % 1021,8 hPa 0,0 l/m 3,0 km/h (1 Bft) S-SW 211 2 min 0,000 mm 2,0 UV-I 509 W/m 11,2 C 14,8 C 6,4 km/h (2 Bft) 100,00 %
12.10.2017 11:16 14,9 C 11,1 C 77 % 1021,8 hPa 0,0 l/m 2,5 km/h (1 Bft) S 172 2 min 0,000 mm 2,0 UV-I 512 W/m 10,9 C 14,9 C 6,4 km/h (2 Bft) 100,00 %
12.10.2017 11:18 15,1 C 11,1 C 77 % 1021,7 hPa 0,0 l/m 2,8 km/h (1 Bft) S 171 2 min 0,000 mm 2,0 UV-I 515 W/m 11,1 C 15,1 C 6,4 km/h (2 Bft) 100,00 %
12.10.2017 11:20 15,4 C 11,1 C 77 % 1021,8 hPa 0,0 l/m 4,4 km/h (1 Bft) S-SW 194 2 min 0,000 mm 2,0 UV-I 514 W/m 11,4 C 15,4 C 9,7 km/h (2 Bft) 100,00 %
12.10.2017 11:22 15,6 C 11,1 C 75 % 1021,8 hPa 0,0 l/m 6,0 km/h (2 Bft) W-SW 257 2 min 0,000 mm 2,0 UV-I 517 W/m 11,2 C 15,6 C 9,7 km/h (2 Bft) 100,00 %
12.10.2017 11:24 15,6 C 11,1 C 76 % 1021,8 hPa 0,0 l/m 3,2 km/h (1 Bft) S-SW 200 2 min 0,000 mm 2,0 UV-I 514 W/m 11,4 C 15,6 C 4,8 km/h (1 Bft) 100,00 %
12.10.2017 11:26 15,7 C 11,1 C 76 % 1021,8 hPa 0,0 l/m 2,8 km/h (1 Bft) S-SW 208 2 min 0,000 mm 2,1 UV-I 516 W/m 11,5 C 15,7 C 4,8 km/h (1 Bft) 97,92 %
12.10.2017 11:28 15,8 C 11,1 C 74 % 1021,9 hPa 0,0 l/m 4,4 km/h (1 Bft) SW 225 2 min 0,000 mm 2,1 UV-I 518 W/m 11,2 C 15,8 C 6,4 km/h (2 Bft) 95,74 %
12.10.2017 11:30 15,9 C 11,1 C 75 % 1021,8 hPa 0,0 l/m 4,6 km/h (1 Bft) S-SW 213 2 min 0,000 mm 2,1 UV-I 519 W/m 11,5 C 15,9 C 8,0 km/h (2 Bft) 100,00 %
12.10.2017 11:32 16,0 C 11,1 C 73 % 1021,9 hPa 0,0 l/m 6,6 km/h (2 Bft) W 264 2 min 0,000 mm 2,1 UV-I 523 W/m 11,2 C 15,9 C 9,7 km/h (2 Bft) 100,00 %
12.10.2017 11:34 16,1 C 11,1 C 73 % 1021,8 hPa 0,0 l/m 6,5 km/h (2 Bft) S-SW 209 2 min 0,000 mm 2,1 UV-I 524 W/m 11,3 C 16,1 C 11,3 km/h (2 Bft) 100,00 %
12.10.2017 11:36 16,2 C 11,1 C 73 % 1021,8 hPa 0,0 l/m 5,0 km/h (1 Bft) SW 235 2 min 0,000 mm 2,1 UV-I 527 W/m 11,4 C 16,2 C 6,4 km/h (2 Bft) 97,87 %
12.10.2017 11:38 16,2 C 11,1 C 72 % 1021,8 hPa 0,0 l/m 2,6 km/h (1 Bft) SW 235 2 min 0,000 mm 2,2 UV-I 531 W/m 11,1 C 16,2 C 4,8 km/h (1 Bft) 100,00 %
12.10.2017 11:40 16,3 C 11,1 C 74 % 1021,8 hPa 0,0 l/m 4,0 km/h (1 Bft) S-SW 207 2 min 0,000 mm 2,2 UV-I 532 W/m 11,7 C 16,3 C 8,0 km/h (2 Bft) 97,87 %
12.10.2017 11:42 16,5 C 11,1 C 73 % 1021,8 hPa 0,0 l/m 4,3 km/h (1 Bft) S-SW 200 2 min 0,000 mm 2,2 UV-I 536 W/m 11,6 C 16,5 C 8,0 km/h (2 Bft) 97,87 %
12.10.2017 11:44 16,4 C 11,1 C 73 % 1021,7 hPa 0,0 l/m 3,7 km/h (1 Bft) S-SW 200 2 min 0,000 mm 2,2 UV-I 538 W/m 11,5 C 16,4 C 6,4 km/h (2 Bft) 100,00 %
12.10.2017 11:46 16,6 C 11,1 C 72 % 1021,8 hPa 0,0 l/m 3,3 km/h (1 Bft) W 259 2 min 0,000 mm 2,2 UV-I 541 W/m 11,5 C 16,6 C 4,8 km/h (1 Bft) 95,74 %
12.10.2017 11:48 16,7 C 11,1 C 72 % 1021,8 hPa 0,0 l/m 2,8 km/h (1 Bft) W-SW 239 2 min 0,000 mm 2,2 UV-I 542 W/m 11,6 C 16,7 C 4,8 km/h (1 Bft) 97,87 %
12.10.2017 11:50 16,8 C 11,1 C 71 % 1021,9 hPa 0,0 l/m 4,4 km/h (1 Bft) S-SW 203 2 min 0,000 mm 2,2 UV-I 542 W/m 11,5 C 16,8 C 8,0 km/h (2 Bft) 97,87 %
12.10.2017 11:52 16,9 C 11,1 C 72 % 1021,9 hPa 0,0 l/m 3,6 km/h (1 Bft) W-NW 294 2 min 0,000 mm 2,3 UV-I 546 W/m 11,8 C 16,9 C 8,0 km/h (2 Bft) 95,74 %
12.10.2017 11:54 17,1 C 11,1 C 71 % 1021,9 hPa 0,0 l/m 2,4 km/h (1 Bft) W 276 2 min 0,000 mm 2,3 UV-I 552 W/m 11,8 C 17,1 C 4,8 km/h (1 Bft) 97,87 %
12.10.2017 11:56 17,3 C 11,1 C 69 % 1021,9 hPa 0,0 l/m 2,2 km/h (1 Bft) W 269 2 min 0,000 mm 2,3 UV-I 558 W/m 11,6 C 17,3 C 4,8 km/h (1 Bft) 97,87 %
12.10.2017 11:58 17,5 C 11,1 C 71 % 1021,8 hPa 0,0 l/m 2,4 km/h (1 Bft) W-SW 256 2 min 0,000 mm 2,4 UV-I 568 W/m 12,2 C 17,5 C 4,8 km/h (1 Bft) 95,74 %
12.10.2017 12:00 17,8 C 11,1 C 68 % 1021,8 hPa 0,0 l/m 2,9 km/h (1 Bft) SW 225 2 min 0,279 mm 2,4 UV-I 574 W/m 11,8 C 17,8 C 6,4 km/h (2 Bft) 96,23 %
12.10.2017 12:02 17,9 C 11,1 C 69 % 1021,8 hPa 0,0 l/m 2,0 km/h (1 Bft) SW 232 2 min 0,000 mm 2,4 UV-I 577 W/m 12,1 C 17,9 C 4,8 km/h (1 Bft) 95,74 %
12.10.2017 12:04 17,9 C 11,1 C 68 % 1021,9 hPa 0,0 l/m 3,6 km/h (1 Bft) W 262 2 min 0,000 mm 2,4 UV-I 572 W/m 11,9 C 17,9 C 6,4 km/h (2 Bft) 97,37 %
12.10.2017 12:06 17,9 C 11,1 C 68 % 1021,8 hPa 0,0 l/m 4,4 km/h (1 Bft) W 261 2 min 0,000 mm 2,4 UV-I 556 W/m 11,9 C 17,9 C 9,7 km/h (2 Bft) 95,83 %
12.10.2017 12:08 17,9 C 11,1 C 66 % 1021,9 hPa 0,0 l/m 7,8 km/h (2 Bft) S-SW 207 2 min 0,000 mm 2,3 UV-I 507 W/m 11,5 C 17,2 C 14,5 km/h (3 Bft) 98,00 %
12.10.2017 12:10 17,9 C 11,1 C 67 % 1021,9 hPa 0,0 l/m 6,6 km/h (2 Bft) W-SW 242 2 min 0,000 mm 2,2 UV-I 470 W/m 11,7 C 17,8 C 12,9 km/h (3 Bft) 97,87 %
12.10.2017 12:12 17,9 C 11,1 C 66 % 1021,9 hPa 0,0 l/m 7,4 km/h (2 Bft) SW 222 2 min 0,000 mm 2,2 UV-I 474 W/m 11,5 C 17,4 C 12,9 km/h (3 Bft) 91,49 %
12.10.2017 12:14 18,0 C 11,1 C 67 % 1021,9 hPa 0,0 l/m 4,0 km/h (1 Bft) W 267 2 min 0,000 mm 2,2 UV-I 476 W/m 11,8 C 18,0 C 8,0 km/h (2 Bft) 97,87 %
12.10.2017 12:16 18,1 C 11,1 C 67 % 1021,8 hPa 0,0 l/m 5,9 km/h (2 Bft) W 263 2 min 0,000 mm 2,3 UV-I 510 W/m 11,9 C 18,1 C 11,3 km/h (2 Bft) 100,00 %
12.10.2017 12:18 18,1 C 11,1 C 67 % 1021,8 hPa 0,0 l/m 3,8 km/h (1 Bft) SW 232 2 min 0,000 mm 2,4 UV-I 540 W/m 11,9 C 18,1 C 6,4 km/h (2 Bft) 96,15 %
12.10.2017 12:20 18,1 C 11,1 C 67 % 1021,8 hPa 0,0 l/m 6,5 km/h (2 Bft) W 263 2 min 0,000 mm 2,4 UV-I 565 W/m 11,9 C 18,1 C 12,9 km/h (3 Bft) 100,00 %
12.10.2017 12:22 18,2 C 11,1 C 65 % 1021,8 hPa 0,0 l/m 6,1 km/h (2 Bft) W-SW 248 2 min 0,000 mm 2,4 UV-I 550 W/m 11,5 C 18,2 C 9,7 km/h (2 Bft) 97,87 %
12.10.2017 12:24 18,4 C 11,1 C 68 % 1021,7 hPa 0,0 l/m 2,9 km/h (1 Bft) W 274 2 min 0,000 mm 2,4 UV-I 553 W/m 12,4 C 18,4 C 6,4 km/h (2 Bft) 98,00 %
12.10.2017 12:26 18,4 C 11,1 C 67 % 1021,7 hPa 0,0 l/m 2,8 km/h (1 Bft) W 277 2 min 0,000 mm 2,4 UV-I 555 W/m 12,2 C 18,4 C 4,8 km/h (1 Bft) 97,87 %
12.10.2017 12:28 18,4 C 11,1 C 69 % 1021,7 hPa 0,0 l/m 1,9 km/h (1 Bft) W-NW 294 2 min 0,000 mm 2,4 UV-I 556 W/m 12,6 C 18,4 C 4,8 km/h (1 Bft) 97,87 %
12.10.2017 12:30 18,6 C 11,1 C 67 % 1021,7 hPa 0,0 l/m 2,2 km/h (1 Bft) W 264 2 min 0,000 mm 2,4 UV-I 548 W/m 12,3 C 18,6 C 4,8 km/h (1 Bft) 100,00 %
12.10.2017 12:32 18,7 C 11,1 C 67 % 1021,7 hPa 0,0 l/m 3,3 km/h (1 Bft) W-SW 255 2 min 0,000 mm 2,4 UV-I 555 W/m 12,4 C 18,7 C 8,0 km/h (2 Bft) 97,56 %
12.10.2017 12:34 18,7 C 11,1 C 63 % 1021,7 hPa 0,0 l/m 3,9 km/h (1 Bft) W-SW 250 2 min 0,000 mm 2,4 UV-I 558 W/m 11,5 C 18,7 C 8,0 km/h (2 Bft) 100,00 %
12.10.2017 12:36 18,9 C 11,1 C 62 % 1021,7 hPa 0,0 l/m 6,7 km/h (2 Bft) NW 326 2 min 0,000 mm 2,5 UV-I 559 W/m 11,5 C 18,8 C 14,5 km/h (3 Bft) 100,00 %
12.10.2017 12:38 19,1 C 11,1 C 62 % 1021,6 hPa 0,0 l/m 3,7 km/h (1 Bft) W-SW 256 2 min 0,000 mm 2,5 UV-I 557 W/m 11,6 C 19,1 C 6,4 km/h (2 Bft) 100,00 %
12.10.2017 12:40 19,2 C 11,7 C 63 % 1021,6 hPa 0,0 l/m 5,3 km/h (1 Bft) W-SW 244 2 min 0,000 mm 2,5 UV-I 557 W/m 12,0 C 19,2 C 8,0 km/h (2 Bft) 100,00 %
12.10.2017 12:42 19,2 C 11,7 C 59 % 1021,5 hPa 0,0 l/m 13,8 km/h (3 Bft) W-SW 257 2 min 0,000 mm 2,5 UV-I 562 W/m 11,0 C 16,6 C 20,9 km/h (4 Bft) 100,00 %
12.10.2017 12:44 19,3 C 11,7 C 60 % 1021,6 hPa 0,0 l/m 11,0 km/h (2 Bft) W 265 2 min 0,000 mm 2,5 UV-I 562 W/m 11,3 C 17,5 C 19,3 km/h (3 Bft) 97,87 %
12.10.2017 12:46 19,3 C 11,7 C 56 % 1021,5 hPa 0,0 l/m 14,3 km/h (3 Bft) S-SW 211 2 min 0,000 mm 2,5 UV-I 564 W/m 10,3 C 16,6 C 22,5 km/h (4 Bft) 100,00 %
12.10.2017 12:48 19,4 C 11,7 C 55 % 1021,5 hPa 0,0 l/m 16,9 km/h (3 Bft) W-SW 246 2 min 0,000 mm 2,5 UV-I 560 W/m 10,1 C 16,1 C 25,7 km/h (4 Bft) 100,00 %
12.10.2017 12:50 19,6 C 11,7 C 56 % 1021,5 hPa 0,0 l/m 9,3 km/h (2 Bft) W-SW 242 2 min 0,000 mm 2,5 UV-I 559 W/m 10,6 C 18,4 C 17,7 km/h (3 Bft) 100,00 %
12.10.2017 12:52 19,7 C 11,7 C 58 % 1021,5 hPa 0,0 l/m 9,3 km/h (2 Bft) W-SW 255 2 min 0,000 mm 2,5 UV-I 565 W/m 11,2 C 18,6 C 12,9 km/h (3 Bft) 100,00 %
12.10.2017 12:54 19,8 C 11,7 C 56 % 1021,5 hPa 0,0 l/m 14,3 km/h (3 Bft) W-SW 253 2 min 0,000 mm 2,4 UV-I 529 W/m 10,8 C 17,2 C 22,5 km/h (4 Bft) 100,00 %
12.10.2017 12:56 19,8 C 11,7 C 54 % 1021,5 hPa 0,0 l/m 13,8 km/h (3 Bft) W 263 2 min 0,000 mm 2,4 UV-I 551 W/m 10,2 C 17,3 C 22,5 km/h (4 Bft) 100,00 %
12.10.2017 12:58 19,8 C 11,7 C 56 % 1021,5 hPa 0,0 l/m 8,5 km/h (2 Bft) SW 215 2 min 0,000 mm 2,5 UV-I 558 W/m 10,8 C 18,9 C 17,7 km/h (3 Bft) 100,00 %
12.10.2017 13:00 19,9 C 11,7 C 54 % 1021,5 hPa 0,0 l/m 13,9 km/h (3 Bft) S-SW 205 2 min 0,330 mm 2,5 UV-I 568 W/m 10,3 C 17,4 C 19,3 km/h (3 Bft) 100,00 %
12.10.2017 13:02 19,9 C 11,7 C 54 % 1021,5 hPa 0,0 l/m 16,2 km/h (3 Bft) W 265 2 min 0,000 mm 2,5 UV-I 573 W/m 10,3 C 16,9 C 25,7 km/h (4 Bft) 97,87 %
12.10.2017 13:04 20,1 C 11,7 C 54 % 1021,5 hPa 0,0 l/m 9,5 km/h (2 Bft) S-SW 213 2 min 0,000 mm 2,5 UV-I 585 W/m 10,5 C 18,9 C 16,1 km/h (3 Bft) 98,00 %
12.10.2017 13:06 20,2 C 11,7 C 54 % 1021,6 hPa 0,0 l/m 13,1 km/h (3 Bft) W-SW 252 2 min 0,000 mm 2,5 UV-I 612 W/m 10,6 C 18,0 C 24,1 km/h (4 Bft) 97,87 %
12.10.2017 13:08 20,2 C 11,7 C 55 % 1021,6 hPa 0,0 l/m 14,2 km/h (3 Bft) W-SW 257 2 min 0,000 mm 2,2 UV-I 615 W/m 10,9 C 17,7 C 24,1 km/h (4 Bft) 97,87 %
12.10.2017 13:10 20,4 C 11,7 C 56 % 1021,6 hPa 0,0 l/m 10,3 km/h (2 Bft) W-SW 245 2 min 0,000 mm 2,3 UV-I 410 W/m 11,3 C 19,0 C 16,1 km/h (3 Bft) 100,00 %
12.10.2017 13:12 20,6 C 11,7 C 56 % 1021,5 hPa 0,0 l/m 10,4 km/h (2 Bft) W 259 2 min 0,000 mm 2,5 UV-I 675 W/m 11,5 C 19,2 C 16,1 km/h (3 Bft) 97,87 %
12.10.2017 13:14 20,7 C 11,7 C 54 % 1021,6 hPa 0,0 l/m 12,4 km/h (3 Bft) W 269 2 min 0,000 mm 2,3 UV-I 643 W/m 11,1 C 18,7 C 17,7 km/h (3 Bft) 97,87 %
12.10.2017 13:16 20,8 C 11,7 C 55 % 1021,5 hPa 0,0 l/m 11,8 km/h (2 Bft) W-NW 282 2 min 0,000 mm 2,5 UV-I 678 W/m 11,4 C 19,0 C 19,3 km/h (3 Bft) 97,87 %
12.10.2017 13:18 21,0 C 11,7 C 55 % 1021,5 hPa 0,0 l/m 13,8 km/h (3 Bft) W-SW 244 2 min 0,000 mm 2,5 UV-I 666 W/m 11,6 C 18,7 C 20,9 km/h (4 Bft) 95,74 %
12.10.2017 13:20 21,1 C 11,7 C 53 % 1021,5 hPa 0,0 l/m 14,0 km/h (3 Bft) W-SW 253 2 min 0,000 mm 2,5 UV-I 666 W/m 11,1 C 18,8 C 25,7 km/h (4 Bft) 100,00 %
12.10.2017 13:22 21,0 C 11,7 C 52 % 1021,5 hPa 0,0 l/m 18,7 km/h (3 Bft) W-NW 296 2 min 0,000 mm 2,3 UV-I 662 W/m 10,8 C 17,7 C 30,6 km/h (5 Bft) 97,87 %
12.10.2017 13:24 21,0 C 11,7 C 54 % 1021,5 hPa 0,0 l/m 16,5 km/h (3 Bft) SW 217 2 min 0,000 mm 2,2 UV-I 664 W/m 11,3 C 18,1 C 24,1 km/h (4 Bft) 100,00 %
12.10.2017 13:26 20,9 C 11,7 C 53 % 1021,5 hPa 0,0 l/m 20,8 km/h (4 Bft) SW 220 2 min 0,000 mm 2,3 UV-I 696 W/m 11,0 C 17,2 C 32,2 km/h (5 Bft) 96,15 %
12.10.2017 13:28 20,8 C 11,7 C 53 % 1021,5 hPa 0,0 l/m 17,7 km/h (3 Bft) N-NW 337 2 min 0,000 mm 1,9 UV-I 684 W/m 10,9 C 17,7 C 32,2 km/h (5 Bft) 100,00 %
12.10.2017 13:30 20,8 C 11,7 C 54 % 1021,5 hPa 0,0 l/m 20,7 km/h (4 Bft) W 272 2 min 0,000 mm 2,4 UV-I 693 W/m 11,1 C 17,1 C 33,8 km/h (5 Bft) 100,00 %
12.10.2017 13:32 20,7 C 11,7 C 54 % 1021,5 hPa 0,0 l/m 17,2 km/h (3 Bft) SW 230 2 min 0,000 mm 2,2 UV-I 696 W/m 11,1 C 17,6 C 27,4 km/h (4 Bft) 100,00 %
12.10.2017 13:34 20,8 C 11,7 C 55 % 1021,6 hPa 0,0 l/m 11,9 km/h (2 Bft) W-SW 253 2 min 0,000 mm 1,9 UV-I 693 W/m 11,4 C 19,0 C 19,3 km/h (3 Bft) 97,92 %
12.10.2017 13:36 20,8 C 11,7 C 55 % 1021,6 hPa 0,0 l/m 14,0 km/h (3 Bft) W-SW 239 2 min 0,000 mm 1,7 UV-I 693 W/m 11,4 C 18,4 C 19,3 km/h (3 Bft) 96,30 %
12.10.2017 13:38 20,8 C 11,7 C 54 % 1021,7 hPa 0,0 l/m 15,4 km/h (3 Bft) W 276 2 min 0,000 mm 1,3 UV-I 307 W/m 11,1 C 18,1 C 24,1 km/h (4 Bft) 96,00 %
12.10.2017 13:40 20,6 C 11,7 C 55 % 1021,7 hPa 0,0 l/m 16,0 km/h (3 Bft) W 268 0 min 0,000 mm 1,1 UV-I 266 W/m 11,2 C 17,8 C 25,7 km/h (4 Bft) 97,14 %
12.10.2017 13:42 20,4 C 11,7 C 56 % 1021,7 hPa 0,0 l/m 16,1 km/h (3 Bft) W 267 0 min 0,000 mm 1,0 UV-I 194 W/m 11,3 C 17,5 C 27,4 km/h (4 Bft) 96,00 %
12.10.2017 13:44 20,2 C 11,7 C 56 % 1021,7 hPa 0,0 l/m 17,0 km/h (3 Bft) W-SW 252 0 min 0,000 mm 1,0 UV-I 190 W/m 11,1 C 17,0 C 32,2 km/h (5 Bft) 98,00 %
12.10.2017 13:46 19,9 C 11,7 C 57 % 1021,7 hPa 0,0 l/m 18,9 km/h (3 Bft) SW 236 0 min 0,000 mm 1,0 UV-I 186 W/m 11,1 C 16,3 C 33,8 km/h (5 Bft) 93,62 %
12.10.2017 13:48 19,7 C 11,7 C 57 % 1021,8 hPa 0,0 l/m 19,8 km/h (3 Bft) W 263 0 min 0,000 mm 0,8 UV-I 148 W/m 10,9 C 15,9 C 43,5 km/h (6 Bft) 97,87 %
12.10.2017 13:50 19,6 C 11,7 C 58 % 1021,8 hPa 0,0 l/m 20,2 km/h (4 Bft) W-SW 258 0 min 0,000 mm 0,3 UV-I 106 W/m 11,1 C 15,7 C 29,0 km/h (5 Bft) 96,00 %
12.10.2017 13:52 19,4 C 11,7 C 58 % 1021,8 hPa 0,0 l/m 22,3 km/h (4 Bft) W 266 0 min 0,000 mm 0,0 UV-I 81 W/m 10,9 C 15,0 C 37,0 km/h (5 Bft) 97,92 %
12.10.2017 13:54 19,3 C 11,7 C 58 % 1021,9 hPa 0,0 l/m 17,3 km/h (3 Bft) W 268 0 min 0,000 mm 0,4 UV-I 112 W/m 10,8 C 15,9 C 35,4 km/h (5 Bft) 97,87 %
12.10.2017 13:56 19,2 C 11,7 C 59 % 1021,9 hPa 0,0 l/m 10,6 km/h (2 Bft) W-SW 241 0 min 0,000 mm 0,7 UV-I 134 W/m 11,0 C 17,6 C 27,4 km/h (4 Bft) 97,87 %
12.10.2017 13:58 19,1 C 11,7 C 60 % 1021,9 hPa 0,0 l/m 6,8 km/h (2 Bft) N-NO 15 0 min 0,000 mm 0,7 UV-I 126 W/m 11,1 C 18,9 C 14,5 km/h (3 Bft) 94,74 %
12.10.2017 14:00 18,9 C 11,7 C 61 % 1021,9 hPa 0,0 l/m 9,5 km/h (2 Bft) W 276 0 min 0,330 mm 0,8 UV-I 153 W/m 11,2 C 17,6 C 24,1 km/h (4 Bft) 98,00 %
12.10.2017 14:02 18,9 C 11,7 C 61 % 1021,8 hPa 0,0 l/m 11,3 km/h (2 Bft) SW 228 0 min 0,000 mm 1,1 UV-I 199 W/m 11,2 C 17,0 C 14,5 km/h (3 Bft) 95,45 %
12.10.2017 14:04 18,8 C 11,7 C 62 % 1021,8 hPa 0,0 l/m 4,4 km/h (1 Bft) S-SW 198 0 min 0,000 mm 1,2 UV-I 201 W/m 11,4 C 18,8 C 11,3 km/h (2 Bft) 100,00 %
12.10.2017 14:06 18,8 C 11,7 C 63 % 1021,8 hPa 0,0 l/m 4,0 km/h (1 Bft) W-NW 303 0 min 0,000 mm 1,1 UV-I 194 W/m 11,6 C 18,8 C 12,9 km/h (3 Bft) 97,87 %
12.10.2017 14:08 18,7 C 11,7 C 63 % 1021,9 hPa 0,0 l/m 6,8 km/h (2 Bft) W 259 0 min 0,000 mm 0,9 UV-I 207 W/m 11,5 C 18,5 C 14,5 km/h (3 Bft) 97,87 %
12.10.2017 14:10 18,6 C 11,7 C 64 % 1021,9 hPa 0,0 l/m 6,6 km/h (2 Bft) W 280 0 min 0,000 mm 0,7 UV-I 154 W/m 11,7 C 18,5 C 17,7 km/h (3 Bft) 97,87 %
12.10.2017 14:12 18,4 C 11,7 C 65 % 1021,9 hPa 0,0 l/m 4,4 km/h (1 Bft) W-SW 250 0 min 0,000 mm 0,6 UV-I 124 W/m 11,7 C 18,4 C 8,0 km/h (2 Bft) 97,87 %
12.10.2017 14:14 18,3 C 11,7 C 65 % 1022,0 hPa 0,0 l/m 3,9 km/h (1 Bft) S-SW 209 0 min 0,000 mm 0,7 UV-I 142 W/m 11,6 C 18,3 C 8,0 km/h (2 Bft) 97,87 %
12.10.2017 14:16 18,2 C 11,7 C 66 % 1022,0 hPa 0,0 l/m 4,7 km/h (1 Bft) NW 317 0 min 0,000 mm 1,0 UV-I 185 W/m 11,7 C 18,2 C 9,7 km/h (2 Bft) 100,00 %
12.10.2017 14:18 18,2 C 11,7 C 65 % 1022,0 hPa 0,0 l/m 5,3 km/h (1 Bft) W-NW 290 0 min 0,000 mm 1,1 UV-I 187 W/m 11,5 C 18,2 C 11,3 km/h (2 Bft) 100,00 %
12.10.2017 14:20 18,1 C 11,7 C 66 % 1022,0 hPa 0,0 l/m 4,7 km/h (1 Bft) W-NW 284 0 min 0,000 mm 1,1 UV-I 173 W/m 11,6 C 18,1 C 9,7 km/h (2 Bft) 97,87 %
12.10.2017 14:22 18,1 C 11,7 C 66 % 1022,0 hPa 0,0 l/m 4,3 km/h (1 Bft) W 266 0 min 0,000 mm 0,9 UV-I 146 W/m 11,6 C 18,1 C 12,9 km/h (3 Bft) 100,00 %
12.10.2017 14:24 18,0 C 11,7 C 66 % 1022,0 hPa 0,0 l/m 6,1 km/h (2 Bft) N-NW 328 0 min 0,000 mm 0,8 UV-I 128 W/m 11,6 C 18,0 C 16,1 km/h (3 Bft) 100,00 %
12.10.2017 14:26 18,0 C 11,7 C 66 % 1022,1 hPa 0,0 l/m 3,9 km/h (1 Bft) W 280 0 min 0,000 mm 0,7 UV-I 123 W/m 11,6 C 18,0 C 12,9 km/h (3 Bft) 100,00 %
12.10.2017 14:28 17,9 C 11,7 C 67 % 1022,1 hPa 0,0 l/m 2,3 km/h (1 Bft) W 271 0 min 0,000 mm 0,7 UV-I 113 W/m 11,7 C 17,9 C 9,7 km/h (2 Bft) 100,00 %
12.10.2017 14:30 17,9 C 11,7 C 67 % 1022,1 hPa 0,0 l/m 3,2 km/h (1 Bft) W-SW 250 0 min 0,000 mm 0,6 UV-I 110 W/m 11,7 C 17,9 C 9,7 km/h (2 Bft) 98,36 %
12.10.2017 14:32 17,8 C 11,7 C 68 % 1022,1 hPa 0,0 l/m 3,1 km/h (1 Bft) SW 235 0 min 0,000 mm 0,7 UV-I 116 W/m 11,8 C 17,8 C 9,7 km/h (2 Bft) 100,00 %
12.10.2017 14:34 17,8 C 11,7 C 66 % 1022,1 hPa 0,0 l/m 5,2 km/h (1 Bft) W 260 0 min 0,000 mm 0,8 UV-I 128 W/m 11,4 C 17,8 C 11,3 km/h (2 Bft) 97,92 %
12.10.2017 14:36 17,8 C 11,7 C 68 % 1022,1 hPa 0,0 l/m 4,6 km/h (1 Bft) W-SW 246 0 min 0,000 mm 0,9 UV-I 133 W/m 11,8 C 17,8 C 11,3 km/h (2 Bft) 98,00 %
12.10.2017 14:38 17,8 C 11,7 C 68 % 1022,1 hPa 0,0 l/m 2,8 km/h (1 Bft) W-SW 246 0 min 0,000 mm 0,9 UV-I 132 W/m 11,8 C 17,8 C 3,2 km/h (1 Bft) 100,00 %
12.10.2017 14:42 17,8 C 11,7 C 68 % 1022,2 hPa 0,0 l/m 6,1 km/h (2 Bft) W-SW 257 0 min 0,000 mm 1,0 UV-I 155 W/m 11,8 C 17,8 C 11,3 km/h (2 Bft) 100,00 %
12.10.2017 14:44 17,8 C 11,7 C 68 % 1022,2 hPa 0,0 l/m 7,5 km/h (2 Bft) W 259 0 min 0,000 mm 0,9 UV-I 147 W/m 11,8 C 17,3 C 14,5 km/h (3 Bft) 98,00 %
12.10.2017 14:50 17,8 C 11,7 C 67 % 1022,2 hPa 0,0 l/m 7,5 km/h (2 Bft) W 269 0 min 0,000 mm 0,8 UV-I 118 W/m 11,6 C 17,3 C 12,9 km/h (3 Bft) 99,20 %
12.10.2017 14:52 17,8 C 11,7 C 68 % 1022,2 hPa 0,0 l/m 5,3 km/h (1 Bft) W-NW 286 0 min 0,000 mm 1,0 UV-I 130 W/m 11,8 C 17,8 C 11,3 km/h (2 Bft) 98,31 %
12.10.2017 14:54 17,8 C 11,7 C 67 % 1022,3 hPa 0,0 l/m 8,4 km/h (2 Bft) W 261 0 min 0,000 mm 1,0 UV-I 132 W/m 11,6 C 16,9 C 12,9 km/h (3 Bft) 98,11 %
12.10.2017 14:56 17,8 C 11,7 C 67 % 1022,4 hPa 0,0 l/m 5,1 km/h (1 Bft) W-SW 255 0 min 0,000 mm 1,0 UV-I 147 W/m 11,6 C 17,8 C 9,7 km/h (2 Bft) 100,00 %
12.10.2017 14:58 17,9 C 11,7 C 67 % 1022,2 hPa 0,0 l/m 8,2 km/h (2 Bft) W 273 0 min 0,000 mm 1,2 UV-I 196 W/m 11,7 C 17,1 C 14,5 km/h (3 Bft) 100,00 %
12.10.2017 15:00 18,0 C 11,7 C 67 % 1022,3 hPa 0,0 l/m 7,6 km/h (2 Bft) W 263 2 min 0,127 mm 1,2 UV-I 298 W/m 11,8 C 17,4 C 11,3 km/h (2 Bft) 100,00 %
12.10.2017 15:02 18,1 C 11,7 C 67 % 1022,3 hPa 0,0 l/m 5,4 km/h (1 Bft) W 259 0 min 0,000 mm 1,2 UV-I 248 W/m 11,9 C 18,1 C 9,7 km/h (2 Bft) 100,00 %
12.10.2017 15:04 18,2 C 11,7 C 68 % 1022,3 hPa 0,0 l/m 6,8 km/h (2 Bft) W-SW 248 0 min 0,000 mm 1,1 UV-I 246 W/m 12,2 C 18,0 C 11,3 km/h (2 Bft) 97,14 %
12.10.2017 15:06 18,2 C 11,7 C 67 % 1022,3 hPa 0,0 l/m 7,3 km/h (2 Bft) W 275 0 min 0,000 mm 0,9 UV-I 208 W/m 12,0 C 17,8 C 11,3 km/h (2 Bft) 98,00 %
12.10.2017 15:08 18,2 C 11,7 C 68 % 1022,4 hPa 0,0 l/m 6,4 km/h (2 Bft) W 262 0 min 0,000 mm 0,7 UV-I 160 W/m 12,2 C 18,2 C 9,7 km/h (2 Bft) 100,00 %
12.10.2017 15:10 18,2 C 11,7 C 68 % 1022,4 hPa 0,0 l/m 8,5 km/h (2 Bft) W-NW 297 0 min 0,000 mm 0,6 UV-I 148 W/m 12,2 C 17,2 C 14,5 km/h (3 Bft) 98,00 %
12.10.2017 15:12 18,3 C 11,7 C 68 % 1022,4 hPa 0,0 l/m 7,4 km/h (2 Bft) W-SW 240 0 min 0,000 mm 0,6 UV-I 137 W/m 12,3 C 17,8 C 12,9 km/h (3 Bft) 100,00 %
12.10.2017 15:14 18,2 C 11,7 C 67 % 1022,4 hPa 0,0 l/m 10,1 km/h (2 Bft) SW 229 0 min 0,000 mm 0,5 UV-I 125 W/m 12,0 C 16,6 C 16,1 km/h (3 Bft) 100,00 %
12.10.2017 15:16 18,2 C 11,7 C 67 % 1022,4 hPa 0,0 l/m 8,2 km/h (2 Bft) SW 230 0 min 0,000 mm 0,5 UV-I 121 W/m 12,0 C 17,4 C 12,9 km/h (3 Bft) 100,00 %
12.10.2017 15:18 18,2 C 11,7 C 67 % 1022,4 hPa 0,0 l/m 11,6 km/h (2 Bft) W-SW 258 0 min 0,000 mm 0,5 UV-I 121 W/m 12,0 C 16,1 C 19,3 km/h (3 Bft) 98,00 %
12.10.2017 15:20 18,3 C 11,7 C 67 % 1022,4 hPa 0,0 l/m 16,4 km/h (3 Bft) W 263 0 min 0,000 mm 0,5 UV-I 126 W/m 12,1 C 14,8 C 20,9 km/h (4 Bft) 100,00 %
12.10.2017 15:22 18,3 C 11,7 C 67 % 1022,4 hPa 0,0 l/m 14,5 km/h (3 Bft) W-SW 243 0 min 0,000 mm 0,6 UV-I 133 W/m 12,1 C 15,3 C 22,5 km/h (4 Bft) 100,00 %
12.10.2017 15:24 18,3 C 11,7 C 67 % 1022,4 hPa 0,0 l/m 12,0 km/h (2 Bft) W-SW 254 0 min 0,000 mm 0,6 UV-I 133 W/m 12,1 C 16,1 C 20,9 km/h (4 Bft) 100,00 %
12.10.2017 15:26 18,3 C 11,7 C 67 % 1022,5 hPa 0,0 l/m 12,3 km/h (3 Bft) W-SW 249 0 min 0,000 mm 0,4 UV-I 135 W/m 12,1 C 16,0 C 24,1 km/h (4 Bft) 97,56 %
12.10.2017 15:28 18,3 C 11,7 C 68 % 1022,5 hPa 0,0 l/m 9,9 km/h (2 Bft) SW 221 0 min 0,000 mm 0,0 UV-I 113 W/m 12,3 C 16,8 C 17,7 km/h (3 Bft) 97,37 %
12.10.2017 15:30 18,1 C 11,7 C 68 % 1022,6 hPa 0,0 l/m 5,6 km/h (1 Bft) N-NW 338 0 min 0,000 mm 0,0 UV-I 86 W/m 12,1 C 18,1 C 14,5 km/h (3 Bft) 98,44 %
12.10.2017 15:32 17,9 C 11,7 C 69 % 1022,8 hPa 0,0 l/m 11,0 km/h (2 Bft) W-NW 303 0 min 0,000 mm 0,0 UV-I 83 W/m 12,1 C 16,0 C 17,7 km/h (3 Bft) 97,56 %
12.10.2017 15:34 17,8 C 11,7 C 70 % 1022,7 hPa 0,0 l/m 7,3 km/h (2 Bft) W-SW 257 0 min 0,000 mm 0,2 UV-I 108 W/m 12,3 C 17,4 C 11,3 km/h (2 Bft) 97,73 %
12.10.2017 15:36 17,6 C 11,7 C 71 % 1022,7 hPa 0,0 l/m 4,0 km/h (1 Bft) S-SW 202 0 min 0,000 mm 0,5 UV-I 122 W/m 12,3 C 17,6 C 9,7 km/h (2 Bft) 94,64 %
12.10.2017 15:38 17,5 C 11,7 C 71 % 1022,7 hPa 0,0 l/m 5,9 km/h (2 Bft) W-SW 251 0 min 0,000 mm 0,6 UV-I 144 W/m 12,2 C 17,5 C 14,5 km/h (3 Bft) 97,56 %
12.10.2017 15:40 17,4 C 11,7 C 72 % 1022,7 hPa 0,0 l/m 4,2 km/h (1 Bft) NW 318 0 min 0,000 mm 0,6 UV-I 154 W/m 12,3 C 17,4 C 12,9 km/h (3 Bft) 98,00 %
12.10.2017 15:42 17,3 C 11,7 C 73 % 1022,7 hPa 0,0 l/m 3,5 km/h (1 Bft) SW 214 0 min 0,000 mm 0,6 UV-I 183 W/m 12,4 C 17,3 C 8,0 km/h (2 Bft) 97,87 %
12.10.2017 15:44 17,3 C 11,7 C 72 % 1022,8 hPa 0,0 l/m 7,2 km/h (2 Bft) W-SW 252 0 min 0,000 mm 0,6 UV-I 176 W/m 12,2 C 16,9 C 17,7 km/h (3 Bft) 97,87 %
12.10.2017 15:46 17,3 C 11,7 C 73 % 1022,8 hPa 0,0 l/m 4,3 km/h (1 Bft) W-SW 246 0 min 0,000 mm 0,5 UV-I 153 W/m 12,4 C 17,3 C 11,3 km/h (2 Bft) 94,74 %
12.10.2017 15:48 17,4 C 11,7 C 72 % 1022,8 hPa 0,0 l/m 4,9 km/h (1 Bft) W 260 0 min 0,000 mm 0,5 UV-I 131 W/m 12,3 C 17,4 C 11,3 km/h (2 Bft) 94,00 %
12.10.2017 15:50 17,3 C 11,7 C 72 % 1022,8 hPa 0,0 l/m 8,8 km/h (2 Bft) W 267 0 min 0,000 mm 0,5 UV-I 156 W/m 12,2 C 16,2 C 12,9 km/h (3 Bft) 95,24 %
12.10.2017 15:52 17,3 C 11,7 C 72 % 1022,8 hPa 0,0 l/m 7,4 km/h (2 Bft) W-NW 292 0 min 0,000 mm 0,6 UV-I 171 W/m 12,2 C 16,8 C 14,5 km/h (3 Bft) 96,36 %
12.10.2017 15:54 17,4 C 11,7 C 72 % 1022,9 hPa 0,0 l/m 3,8 km/h (1 Bft) W-SW 248 2 min 0,000 mm 0,6 UV-I 202 W/m 12,3 C 17,4 C 8,0 km/h (2 Bft) 92,00 %
12.10.2017 15:56 17,4 C 11,7 C 72 % 1022,9 hPa 0,0 l/m 7,1 km/h (2 Bft) W-SW 258 0 min 0,000 mm 0,6 UV-I 192 W/m 12,3 C 17,1 C 12,9 km/h (3 Bft) 97,44 %
12.10.2017 15:58 17,4 C 11,7 C 72 % 1022,9 hPa 0,0 l/m 10,4 km/h (2 Bft) W-NW 282 0 min 0,000 mm 0,6 UV-I 141 W/m 12,3 C 15,6 C 16,1 km/h (3 Bft) 91,49 %
12.10.2017 16:00 17,3 C 11,7 C 72 % 1023,0 hPa 0,0 l/m 7,9 km/h (2 Bft) W 264 0 min 0,127 mm 0,4 UV-I 106 W/m 12,2 C 16,6 C 16,1 km/h (3 Bft) 96,23 %
12.10.2017 16:02 17,3 C 11,7 C 72 % 1023,0 hPa 0,0 l/m 8,8 km/h (2 Bft) N-NW 329 0 min 0,000 mm 0,0 UV-I 103 W/m 12,2 C 16,2 C 17,7 km/h (3 Bft) 97,78 %
12.10.2017 16:04 17,3 C 11,7 C 72 % 1023,0 hPa 0,0 l/m 10,9 km/h (2 Bft) W 281 0 min 0,000 mm 0,4 UV-I 123 W/m 12,2 C 15,3 C 20,9 km/h (4 Bft) 97,73 %
12.10.2017 16:06 17,3 C 11,7 C 72 % 1023,0 hPa 0,0 l/m 8,4 km/h (2 Bft) W 281 0 min 0,000 mm 0,3 UV-I 146 W/m 12,2 C 16,3 C 12,9 km/h (3 Bft) 96,00 %
12.10.2017 16:08 17,2 C 11,7 C 72 % 1022,9 hPa 0,0 l/m 10,8 km/h (2 Bft) W 267 2 min 0,000 mm 0,2 UV-I 195 W/m 12,1 C 15,2 C 16,1 km/h (3 Bft) 95,12 %
12.10.2017 16:10 17,3 C 11,7 C 73 % 1022,9 hPa 0,0 l/m 9,3 km/h (2 Bft) SW 225 0 min 0,000 mm 0,0 UV-I 155 W/m 12,4 C 15,9 C 14,5 km/h (3 Bft) 97,87 %
12.10.2017 16:12 17,3 C 11,7 C 73 % 1022,9 hPa 0,0 l/m 7,6 km/h (2 Bft) W-SW 243 0 min 0,000 mm 0,0 UV-I 125 W/m 12,4 C 16,7 C 11,3 km/h (2 Bft) 98,21 %
12.10.2017 16:14 17,3 C 11,7 C 72 % 1022,9 hPa 0,0 l/m 14,8 km/h (3 Bft) W 259 0 min 0,000 mm 0,0 UV-I 98 W/m 12,2 C 14,0 C 22,5 km/h (4 Bft) 97,73 %
12.10.2017 16:16 17,3 C 11,7 C 72 % 1023,0 hPa 0,0 l/m 12,6 km/h (3 Bft) W 277 0 min 0,000 mm 0,0 UV-I 85 W/m 12,2 C 14,7 C 19,3 km/h (3 Bft) 97,92 %
12.10.2017 16:18 17,2 C 11,7 C 73 % 1023,0 hPa 0,0 l/m 13,6 km/h (3 Bft) W 277 0 min 0,000 mm 0,0 UV-I 71 W/m 12,3 C 14,3 C 27,4 km/h (4 Bft) 97,37 %
12.10.2017 16:20 17,2 C 11,7 C 72 % 1023,0 hPa 0,0 l/m 15,9 km/h (3 Bft) W-SW 257 0 min 0,000 mm 0,0 UV-I 69 W/m 12,1 C 13,6 C 24,1 km/h (4 Bft) 97,73 %
12.10.2017 16:22 17,2 C 11,7 C 72 % 1023,0 hPa 0,0 l/m 16,4 km/h (3 Bft) W 262 0 min 0,000 mm 0,0 UV-I 67 W/m 12,1 C 13,5 C 24,1 km/h (4 Bft) 95,83 %
12.10.2017 16:24 17,2 C 11,7 C 72 % 1023,0 hPa 0,0 l/m 13,7 km/h (3 Bft) W-SW 245 0 min 0,000 mm 0,0 UV-I 65 W/m 12,1 C 14,2 C 22,5 km/h (4 Bft) 98,11 %
12.10.2017 16:26 17,2 C 11,7 C 72 % 1023,0 hPa 0,0 l/m 11,8 km/h (2 Bft) W-SW 254 0 min 0,000 mm 0,0 UV-I 59 W/m 12,1 C 14,9 C 17,7 km/h (3 Bft) 96,00 %
12.10.2017 16:28 17,1 C 11,7 C 72 % 1023,0 hPa 0,0 l/m 11,5 km/h (2 Bft) W-SW 242 0 min 0,000 mm 0,0 UV-I 47 W/m 12,0 C 14,9 C 19,3 km/h (3 Bft) 97,37 %
12.10.2017 16:30 17,1 C 11,7 C 72 % 1023,0 hPa 0,0 l/m 9,4 km/h (2 Bft) W 275 0 min 0,000 mm 0,0 UV-I 41 W/m 12,0 C 15,7 C 14,5 km/h (3 Bft) 98,21 %
12.10.2017 16:32 17,0 C 11,7 C 72 % 1023,1 hPa 0,0 l/m 10,2 km/h (2 Bft) SW 215 0 min 0,000 mm 0,0 UV-I 46 W/m 11,9 C 15,2 C 19,3 km/h (3 Bft) 95,24 %
12.10.2017 16:34 17,0 C 11,7 C 72 % 1023,0 hPa 0,0 l/m 13,5 km/h (3 Bft) W 280 0 min 0,000 mm 0,0 UV-I 46 W/m 11,9 C 14,1 C 22,5 km/h (4 Bft) 96,55 %
12.10.2017 16:36 16,9 C 11,7 C 73 % 1023,0 hPa 0,0 l/m 11,1 km/h (2 Bft) W-SW 250 0 min 0,000 mm 0,0 UV-I 46 W/m 12,0 C 14,8 C 19,3 km/h (3 Bft) 98,59 %
12.10.2017 16:38 16,9 C 11,7 C 73 % 1023,1 hPa 0,0 l/m 11,3 km/h (2 Bft) W 281 0 min 0,000 mm 0,0 UV-I 50 W/m 12,0 C 14,7 C 17,7 km/h (3 Bft) 97,87 %
12.10.2017 16:40 16,9 C 11,7 C 73 % 1023,1 hPa 0,0 l/m 12,4 km/h (3 Bft) W 262 0 min 0,000 mm 0,0 UV-I 47 W/m 12,0 C 14,3 C 20,9 km/h (4 Bft) 97,37 %
12.10.2017 16:42 16,9 C 11,7 C 73 % 1023,1 hPa 0,0 l/m 12,4 km/h (3 Bft) W-SW 256 0 min 0,000 mm 0,0 UV-I 52 W/m 12,0 C 14,3 C 17,7 km/h (3 Bft) 92,00 %
12.10.2017 16:44 16,9 C 11,7 C 72 % 1023,0 hPa 0,0 l/m 14,6 km/h (3 Bft) W-SW 247 0 min 0,000 mm 0,0 UV-I 63 W/m 11,8 C 13,6 C 24,1 km/h (4 Bft) 98,11 %
12.10.2017 16:46 16,8 C 11,7 C 71 % 1023,0 hPa 0,0 l/m 16,8 km/h (3 Bft) W-SW 254 0 min 0,000 mm 0,0 UV-I 73 W/m 11,5 C 12,9 C 27,4 km/h (4 Bft) 95,12 %
12.10.2017 16:48 16,9 C 11,7 C 71 % 1023,0 hPa 0,0 l/m 18,5 km/h (3 Bft) W-SW 255 0 min 0,000 mm 0,0 UV-I 77 W/m 11,6 C 12,6 C 30,6 km/h (5 Bft) 98,11 %
12.10.2017 16:50 16,9 C 11,7 C 70 % 1023,0 hPa 0,0 l/m 21,1 km/h (4 Bft) W-SW 254 0 min 0,000 mm 0,0 UV-I 76 W/m 11,4 C 12,0 C 29,0 km/h (5 Bft) 97,37 %
12.10.2017 16:52 16,9 C 11,7 C 70 % 1023,1 hPa 0,0 l/m 14,0 km/h (3 Bft) W 277 0 min 0,000 mm 0,0 UV-I 63 W/m 11,4 C 13,8 C 25,7 km/h (4 Bft) 96,43 %
12.10.2017 16:54 16,9 C 11,7 C 71 % 1023,1 hPa 0,0 l/m 10,7 km/h (2 Bft) S-SW 207 0 min 0,000 mm 0,0 UV-I 48 W/m 11,6 C 14,9 C 17,7 km/h (3 Bft) 97,37 %
12.10.2017 16:56 16,9 C 11,7 C 71 % 1023,1 hPa 0,0 l/m 16,4 km/h (3 Bft) W 259 0 min 0,000 mm 0,0 UV-I 49 W/m 11,6 C 13,1 C 27,4 km/h (4 Bft) 96,23 %
12.10.2017 16:58 16,9 C 11,7 C 70 % 1023,1 hPa 0,0 l/m 21,3 km/h (4 Bft) W-SW 248 0 min 0,000 mm 0,0 UV-I 51 W/m 11,4 C 11,9 C 30,6 km/h (5 Bft) 100,00 %
12.10.2017 17:00 16,9 C 11,7 C 70 % 1023,0 hPa 0,0 l/m 11,8 km/h (2 Bft) W-SW 257 0 min 0,102 mm 0,0 UV-I 41 W/m 11,4 C 14,5 C 16,1 km/h (3 Bft) 100,00 %
12.10.2017 17:02 16,8 C 11,7 C 70 % 1023,1 hPa 0,0 l/m 16,3 km/h (3 Bft) W 259 0 min 0,000 mm 0,0 UV-I 31 W/m 11,3 C 13,0 C 24,1 km/h (4 Bft) 97,87 %
12.10.2017 17:04 16,8 C 11,7 C 70 % 1023,1 hPa 0,0 l/m 16,1 km/h (3 Bft) W-SW 250 0 min 0,000 mm 0,0 UV-I 30 W/m 11,3 C 13,1 C 25,7 km/h (4 Bft) 100,00 %
12.10.2017 17:06 16,8 C 11,7 C 70 % 1023,1 hPa 0,0 l/m 17,0 km/h (3 Bft) W-SW 251 0 min 0,000 mm 0,0 UV-I 36 W/m 11,3 C 12,8 C 22,5 km/h (4 Bft) 100,00 %
12.10.2017 17:08 16,8 C 11,7 C 70 % 1023,0 hPa 0,0 l/m 16,4 km/h (3 Bft) W-SW 252 0 min 0,000 mm 0,0 UV-I 42 W/m 11,3 C 13,0 C 27,4 km/h (4 Bft) 100,00 %
12.10.2017 17:10 16,8 C 11,7 C 70 % 1023,0 hPa 0,0 l/m 14,2 km/h (3 Bft) W-SW 245 0 min 0,000 mm 0,0 UV-I 46 W/m 11,3 C 13,6 C 25,7 km/h (4 Bft) 97,92 %
12.10.2017 17:12 16,8 C 11,7 C 70 % 1023,0 hPa 0,0 l/m 12,5 km/h (3 Bft) W-SW 240 0 min 0,000 mm 0,0 UV-I 45 W/m 11,3 C 14,2 C 17,7 km/h (3 Bft) 100,00 %
12.10.2017 17:14 16,7 C 11,7 C 71 % 1023,0 hPa 0,0 l/m 11,0 km/h (2 Bft) W 269 0 min 0,000 mm 0,0 UV-I 44 W/m 11,4 C 14,6 C 16,1 km/h (3 Bft) 98,00 %
12.10.2017 17:16 16,7 C 11,7 C 71 % 1023,1 hPa 0,0 l/m 13,3 km/h (3 Bft) W-SW 247 0 min 0,000 mm 0,0 UV-I 38 W/m 11,4 C 13,8 C 20,9 km/h (4 Bft) 100,00 %
12.10.2017 17:18 16,7 C 11,7 C 71 % 1023,1 hPa 0,0 l/m 13,5 km/h (3 Bft) W 268 0 min 0,000 mm 0,0 UV-I 31 W/m 11,4 C 13,7 C 20,9 km/h (4 Bft) 100,00 %
12.10.2017 17:20 16,6 C 11,7 C 71 % 1023,1 hPa 0,0 l/m 13,8 km/h (3 Bft) W-SW 256 0 min 0,000 mm 0,0 UV-I 32 W/m 11,3 C 13,5 C 17,7 km/h (3 Bft) 100,00 %
12.10.2017 17:22 16,6 C 11,7 C 71 % 1023,0 hPa 0,0 l/m 13,9 km/h (3 Bft) W-SW 254 0 min 0,000 mm 0,0 UV-I 36 W/m 11,3 C 13,5 C 19,3 km/h (3 Bft) 100,00 %
12.10.2017 17:24 16,6 C 11,7 C 71 % 1023,1 hPa 0,0 l/m 13,1 km/h (3 Bft) W-SW 247 0 min 0,000 mm 0,0 UV-I 39 W/m 11,3 C 13,7 C 19,3 km/h (3 Bft) 100,00 %
12.10.2017 17:26 16,6 C 11,7 C 71 % 1023,1 hPa 0,0 l/m 9,7 km/h (2 Bft) W-SW 242 0 min 0,000 mm 0,0 UV-I 40 W/m 11,3 C 15,0 C 12,9 km/h (3 Bft) 97,73 %
12.10.2017 17:28 16,5 C 11,7 C 71 % 1023,1 hPa 0,0 l/m 11,9 km/h (2 Bft) W-SW 239 0 min 0,000 mm 0,0 UV-I 45 W/m 11,2 C 14,0 C 24,1 km/h (4 Bft) 98,21 %
12.10.2017 17:30 16,5 C 11,7 C 71 % 1023,2 hPa 0,0 l/m 9,5 km/h (2 Bft) W-SW 256 0 min 0,000 mm 0,0 UV-I 54 W/m 11,2 C 15,0 C 22,5 km/h (4 Bft) 97,56 %
12.10.2017 17:32 16,5 C 11,7 C 71 % 1023,1 hPa 0,0 l/m 9,8 km/h (2 Bft) W-SW 257 0 min 0,000 mm 0,0 UV-I 49 W/m 11,2 C 14,9 C 14,5 km/h (3 Bft) 95,12 %
12.10.2017 17:34 16,5 C 11,7 C 71 % 1023,2 hPa 0,0 l/m 10,5 km/h (2 Bft) W-SW 252 0 min 0,000 mm 0,0 UV-I 57 W/m 11,2 C 14,6 C 12,9 km/h (3 Bft) 98,21 %
12.10.2017 17:36 16,5 C 11,7 C 72 % 1023,2 hPa 0,0 l/m 11,8 km/h (2 Bft) SW 217 2 min 0,000 mm 0,0 UV-I 63 W/m 11,4 C 14,1 C 17,7 km/h (3 Bft) 97,73 %
12.10.2017 17:38 16,5 C 11,7 C 71 % 1023,2 hPa 0,0 l/m 11,6 km/h (2 Bft) W-SW 237 2 min 0,000 mm 0,0 UV-I 61 W/m 11,2 C 14,1 C 24,1 km/h (4 Bft) 96,00 %
12.10.2017 17:40 16,6 C 11,7 C 71 % 1023,2 hPa 0,0 l/m 10,0 km/h (2 Bft) W-SW 242 2 min 0,000 mm 0,0 UV-I 58 W/m 11,3 C 14,9 C 16,1 km/h (3 Bft) 95,45 %
12.10.2017 17:42 16,5 C 11,7 C 71 % 1023,0 hPa 0,0 l/m 10,7 km/h (2 Bft) W 267 2 min 0,000 mm 0,0 UV-I 57 W/m 11,2 C 14,5 C 17,7 km/h (3 Bft) 98,00 %
12.10.2017 17:44 16,5 C 11,7 C 71 % 1023,0 hPa 0,0 l/m 10,0 km/h (2 Bft) S-SW 211 2 min 0,000 mm 0,0 UV-I 58 W/m 11,2 C 14,8 C 17,7 km/h (3 Bft) 97,73 %
12.10.2017 17:46 16,5 C 11,7 C 71 % 1023,1 hPa 0,0 l/m 11,6 km/h (2 Bft) SW 215 2 min 0,000 mm 0,0 UV-I 56 W/m 11,2 C 14,1 C 17,7 km/h (3 Bft) 96,00 %
12.10.2017 17:48 16,5 C 11,7 C 72 % 1023,1 hPa 0,0 l/m 10,9 km/h (2 Bft) W-SW 243 2 min 0,000 mm 0,0 UV-I 46 W/m 11,4 C 14,4 C 17,7 km/h (3 Bft) 95,12 %
12.10.2017 17:50 16,4 C 11,7 C 72 % 1023,2 hPa 0,0 l/m 9,5 km/h (2 Bft) W-SW 249 2 min 0,000 mm 0,0 UV-I 41 W/m 11,3 C 14,9 C 16,1 km/h (3 Bft) 92,86 %
12.10.2017 17:52 16,4 C 11,7 C 72 % 1023,1 hPa 0,0 l/m 10,2 km/h (2 Bft) W-SW 250 2 min 0,000 mm 0,0 UV-I 42 W/m 11,3 C 14,6 C 16,1 km/h (3 Bft) 98,11 %
12.10.2017 17:54 16,3 C 11,7 C 72 % 1023,2 hPa 0,0 l/m 10,6 km/h (2 Bft) SW 219 2 min 0,000 mm 0,0 UV-I 40 W/m 11,2 C 14,3 C 17,7 km/h (3 Bft) 97,87 %
12.10.2017 17:56 16,3 C 11,7 C 72 % 1023,2 hPa 0,0 l/m 9,3 km/h (2 Bft) W-SW 256 2 min 0,000 mm 0,0 UV-I 38 W/m 11,2 C 14,9 C 14,5 km/h (3 Bft) 96,00 %
12.10.2017 17:58 16,3 C 11,7 C 72 % 1023,2 hPa 0,0 l/m 10,9 km/h (2 Bft) W-SW 252 2 min 0,000 mm 0,0 UV-I 37 W/m 11,2 C 14,2 C 16,1 km/h (3 Bft) 100,00 %
12.10.2017 18:00 16,2 C 11,7 C 72 % 1023,2 hPa 0,0 l/m 10,1 km/h (2 Bft) SW 225 2 min 0,076 mm 0,0 UV-I 36 W/m 11,1 C 14,4 C 14,5 km/h (3 Bft) 100,00 %
12.10.2017 18:02 16,2 C 11,7 C 72 % 1023,3 hPa 0,0 l/m 8,5 km/h (2 Bft) W-SW 238 2 min 0,000 mm 0,0 UV-I 34 W/m 11,1 C 15,1 C 12,9 km/h (3 Bft) 100,00 %
12.10.2017 18:04 16,2 C 11,7 C 72 % 1023,3 hPa 0,0 l/m 6,9 km/h (2 Bft) SW 229 2 min 0,000 mm 0,0 UV-I 31 W/m 11,1 C 15,9 C 12,9 km/h (3 Bft) 98,21 %
12.10.2017 18:06 16,2 C 11,7 C 72 % 1023,2 hPa 0,0 l/m 7,5 km/h (2 Bft) W 260 2 min 0,000 mm 0,0 UV-I 28 W/m 11,1 C 15,6 C 12,9 km/h (3 Bft) 96,00 %
12.10.2017 18:08 16,1 C 11,7 C 72 % 1023,3 hPa 0,0 l/m 9,0 km/h (2 Bft) SW 234 2 min 0,000 mm 0,0 UV-I 26 W/m 11,0 C 14,8 C 12,9 km/h (3 Bft) 100,00 %
12.10.2017 18:10 16,1 C 11,7 C 72 % 1023,2 hPa 0,0 l/m 7,6 km/h (2 Bft) SW 234 2 min 0,000 mm 0,0 UV-I 17 W/m 11,0 C 15,5 C 11,3 km/h (2 Bft) 100,00 %
12.10.2017 18:12 16,0 C 11,7 C 73 % 1023,3 hPa 0,0 l/m 6,9 km/h (2 Bft) W-SW 246 0 min 0,000 mm 0,0 UV-I 11 W/m 11,2 C 15,7 C 9,7 km/h (2 Bft) 100,00 %
12.10.2017 18:14 15,9 C 11,7 C 73 % 1023,3 hPa 0,0 l/m 8,4 km/h (2 Bft) W-SW 239 0 min 0,000 mm 0,0 UV-I 17 W/m 11,1 C 14,8 C 12,9 km/h (3 Bft) 100,00 %
12.10.2017 18:16 15,9 C 11,7 C 73 % 1023,3 hPa 0,0 l/m 6,4 km/h (2 Bft) SW 223 0 min 0,000 mm 0,0 UV-I 12 W/m 11,1 C 15,9 C 9,7 km/h (2 Bft) 100,00 %
12.10.2017 18:18 15,9 C 11,7 C 73 % 1023,4 hPa 0,0 l/m 7,1 km/h (2 Bft) SW 222 0 min 0,000 mm 0,0 UV-I 10 W/m 11,1 C 15,5 C 12,9 km/h (3 Bft) 100,00 %
12.10.2017 18:20 15,9 C 11,7 C 73 % 1023,3 hPa 0,0 l/m 7,8 km/h (2 Bft) SW 221 0 min 0,000 mm 0,0 UV-I 9 W/m 11,1 C 15,1 C 11,3 km/h (2 Bft) 100,00 %
12.10.2017 18:22 15,8 C 11,7 C 74 % 1023,3 hPa 0,0 l/m 6,1 km/h (2 Bft) W-SW 238 0 min 0,000 mm 0,0 UV-I 7 W/m 11,2 C 15,8 C 8,0 km/h (2 Bft) 100,00 %
12.10.2017 18:24 15,8 C 11,7 C 74 % 1023,3 hPa 0,0 l/m 6,6 km/h (2 Bft) SW 233 0 min 0,000 mm 0,0 UV-I 7 W/m 11,2 C 15,7 C 8,0 km/h (2 Bft) 97,87 %
12.10.2017 18:26 15,8 C 11,7 C 74 % 1023,4 hPa 0,0 l/m 5,7 km/h (1 Bft) SW 233 0 min 0,000 mm 0,0 UV-I 7 W/m 11,2 C 15,8 C 8,0 km/h (2 Bft) 97,87 %
12.10.2017 18:28 15,7 C 11,7 C 74 % 1023,4 hPa 0,0 l/m 6,0 km/h (2 Bft) SW 227 0 min 0,000 mm 0,0 UV-I 7 W/m 11,1 C 15,7 C 8,0 km/h (2 Bft) 100,00 %
12.10.2017 18:30 15,7 C 11,7 C 74 % 1023,4 hPa 0,0 l/m 5,2 km/h (1 Bft) W-SW 238 0 min 0,000 mm 0,0 UV-I 7 W/m 11,1 C 15,7 C 8,0 km/h (2 Bft) 100,00 %
12.10.2017 18:32 15,7 C 11,7 C 75 % 1023,4 hPa 0,0 l/m 7,2 km/h (2 Bft) SW 225 0 min 0,000 mm 0,0 UV-I 7 W/m 11,3 C 15,3 C 11,3 km/h (2 Bft) 100,00 %
12.10.2017 18:34 15,7 C 11,7 C 74 % 1023,4 hPa 0,0 l/m 6,8 km/h (2 Bft) W-SW 240 0 min 0,000 mm 0,0 UV-I 5 W/m 11,1 C 15,5 C 12,9 km/h (3 Bft) 100,00 %
12.10.2017 18:36 15,7 C 11,7 C 75 % 1023,4 hPa 0,0 l/m 7,0 km/h (2 Bft) W-SW 237 0 min 0,000 mm 0,0 UV-I 3 W/m 11,3 C 15,4 C 12,9 km/h (3 Bft) 100,00 %
12.10.2017 18:38 15,7 C 11,7 C 75 % 1023,4 hPa 0,0 l/m 7,5 km/h (2 Bft) S-SW 211 0 min 0,000 mm 0,0 UV-I 0 W/m 11,3 C 15,1 C 12,9 km/h (3 Bft) 98,00 %
12.10.2017 18:40 15,7 C 11,7 C 75 % 1023,4 hPa 0,0 l/m 7,6 km/h (2 Bft) SW 215 0 min 0,000 mm 0,0 UV-I 0 W/m 11,3 C 15,0 C 12,9 km/h (3 Bft) 100,00 %
12.10.2017 18:42 15,7 C 11,7 C 75 % 1023,5 hPa 0,0 l/m 9,5 km/h (2 Bft) W-SW 242 0 min 0,000 mm 0,0 UV-I 0 W/m 11,3 C 14,1 C 12,9 km/h (3 Bft) 98,11 %
12.10.2017 18:44 15,7 C 11,7 C 75 % 1023,5 hPa 0,0 l/m 9,7 km/h (2 Bft) W-SW 257 0 min 0,000 mm 0,0 UV-I 0 W/m 11,3 C 14,0 C 12,9 km/h (3 Bft) 100,00 %
12.10.2017 18:46 15,8 C 11,7 C 75 % 1023,5 hPa 0,0 l/m 8,9 km/h (2 Bft) SW 229 0 min 0,000 mm 0,0 UV-I 0 W/m 11,4 C 14,5 C 12,9 km/h (3 Bft) 100,00 %
12.10.2017 18:48 15,7 C 11,7 C 75 % 1023,5 hPa 0,0 l/m 8,2 km/h (2 Bft) SW 234 0 min 0,000 mm 0,0 UV-I 0 W/m 11,3 C 14,7 C 14,5 km/h (3 Bft) 100,00 %
12.10.2017 18:50 15,7 C 11,7 C 75 % 1023,4 hPa 0,0 l/m 8,6 km/h (2 Bft) SW 229 0 min 0,000 mm 0,0 UV-I 0 W/m 11,3 C 14,5 C 12,9 km/h (3 Bft) 97,87 %
12.10.2017 18:52 15,7 C 11,7 C 75 % 1023,5 hPa 0,0 l/m 7,5 km/h (2 Bft) SW 234 0 min 0,000 mm 0,0 UV-I 0 W/m 11,3 C 15,1 C 9,7 km/h (2 Bft) 100,00 %
12.10.2017 18:54 15,7 C 11,7 C 76 % 1023,4 hPa 0,0 l/m 7,5 km/h (2 Bft) SW 233 0 min 0,000 mm 0,0 UV-I 0 W/m 11,5 C 15,1 C 12,9 km/h (3 Bft) 100,00 %
12.10.2017 18:56 15,7 C 11,7 C 76 % 1023,5 hPa 0,0 l/m 6,4 km/h (2 Bft) W-SW 255 0 min 0,000 mm 0,0 UV-I 0 W/m 11,5 C 15,7 C 9,7 km/h (2 Bft) 100,00 %
12.10.2017 18:58 15,7 C 11,7 C 76 % 1023,5 hPa 0,0 l/m 7,4 km/h (2 Bft) SW 215 0 min 0,000 mm 0,0 UV-I 0 W/m 11,5 C 15,2 C 9,7 km/h (2 Bft) 100,00 %
12.10.2017 19:00 15,7 C 11,7 C 76 % 1023,5 hPa 0,0 l/m 8,0 km/h (2 Bft) SW 235 0 min 0,026 mm 0,0 UV-I 0 W/m 11,5 C 14,8 C 12,9 km/h (3 Bft) 100,00 %
12.10.2017 19:02 15,7 C 11,7 C 76 % 1023,6 hPa 0,0 l/m 9,0 km/h (2 Bft) W-SW 242 0 min 0,000 mm 0,0 UV-I 0 W/m 11,5 C 14,3 C 17,7 km/h (3 Bft) 100,00 %
12.10.2017 19:04 15,7 C 11,7 C 76 % 1023,6 hPa 0,0 l/m 10,9 km/h (2 Bft) W-SW 242 0 min 0,000 mm 0,0 UV-I 0 W/m 11,5 C 13,5 C 19,3 km/h (3 Bft) 100,00 %
12.10.2017 19:06 15,8 C 11,7 C 76 % 1023,6 hPa 0,0 l/m 10,2 km/h (2 Bft) W-SW 238 0 min 0,000 mm 0,0 UV-I 0 W/m 11,6 C 13,9 C 16,1 km/h (3 Bft) 100,00 %
12.10.2017 19:08 15,8 C 11,7 C 76 % 1023,7 hPa 0,0 l/m 8,8 km/h (2 Bft) W-SW 240 0 min 0,000 mm 0,0 UV-I 0 W/m 11,6 C 14,5 C 14,5 km/h (3 Bft) 100,00 %
12.10.2017 19:10 15,7 C 11,7 C 76 % 1023,6 hPa 0,0 l/m 9,7 km/h (2 Bft) W-SW 245 0 min 0,000 mm 0,0 UV-I 0 W/m 11,5 C 14,0 C 14,5 km/h (3 Bft) 100,00 %
12.10.2017 19:12 15,7 C 11,7 C 76 % 1023,6 hPa 0,0 l/m 8,9 km/h (2 Bft) W-SW 248 0 min 0,000 mm 0,0 UV-I 0 W/m 11,5 C 14,4 C 12,9 km/h (3 Bft) 97,37 %
12.10.2017 19:14 15,8 C 11,7 C 76 % 1023,6 hPa 0,0 l/m 7,8 km/h (2 Bft) W-SW 237 0 min 0,000 mm 0,0 UV-I 0 W/m 11,6 C 15,0 C 11,3 km/h (2 Bft) 100,00 %
12.10.2017 19:16 15,7 C 11,7 C 76 % 1023,6 hPa 0,0 l/m 8,3 km/h (2 Bft) W-SW 241 0 min 0,000 mm 0,0 UV-I 0 W/m 11,5 C 14,7 C 16,1 km/h (3 Bft) 100,00 %
12.10.2017 19:18 15,7 C 11,7 C 76 % 1023,6 hPa 0,0 l/m 8,5 km/h (2 Bft) SW 227 0 min 0,000 mm 0,0 UV-I 0 W/m 11,5 C 14,6 C 12,9 km/h (3 Bft) 100,00 %
12.10.2017 19:20 15,7 C 11,7 C 77 % 1023,7 hPa 0,0 l/m 8,3 km/h (2 Bft) SW 220 0 min 0,000 mm 0,0 UV-I 0 W/m 11,7 C 14,7 C 12,9 km/h (3 Bft) 100,00 %
12.10.2017 19:22 15,7 C 11,7 C 77 % 1023,7 hPa 0,0 l/m 10,8 km/h (2 Bft) SW 235 0 min 0,000 mm 0,0 UV-I 0 W/m 11,7 C 13,6 C 16,1 km/h (3 Bft) 100,00 %
12.10.2017 19:24 15,7 C 11,7 C 77 % 1023,7 hPa 0,0 l/m 9,9 km/h (2 Bft) W-SW 245 0 min 0,000 mm 0,0 UV-I 0 W/m 11,7 C 13,9 C 16,1 km/h (3 Bft) 97,37 %
12.10.2017 19:26 15,7 C 11,7 C 77 % 1023,7 hPa 0,0 l/m 9,1 km/h (2 Bft) W-SW 254 0 min 0,000 mm 0,0 UV-I 0 W/m 11,7 C 14,3 C 14,5 km/h (3 Bft) 98,00 %
12.10.2017 19:28 15,7 C 11,7 C 77 % 1023,8 hPa 0,0 l/m 10,2 km/h (2 Bft) W 274 0 min 0,000 mm 0,0 UV-I 0 W/m 11,7 C 13,8 C 16,1 km/h (3 Bft) 98,21 %
12.10.2017 19:30 15,7 C 11,7 C 77 % 1023,8 hPa 0,0 l/m 11,4 km/h (2 Bft) W-SW 252 0 min 0,000 mm 0,0 UV-I 0 W/m 11,7 C 13,3 C 16,1 km/h (3 Bft) 91,43 %
12.10.2017 19:32 15,7 C 11,7 C 77 % 1023,8 hPa 0,0 l/m 12,3 km/h (3 Bft) W-SW 257 0 min 0,000 mm 0,0 UV-I 0 W/m 11,7 C 13,0 C 17,7 km/h (3 Bft) 98,00 %
12.10.2017 19:34 15,7 C 11,7 C 77 % 1023,8 hPa 0,0 l/m 10,2 km/h (2 Bft) W 259 0 min 0,000 mm 0,0 UV-I 0 W/m 11,7 C 13,8 C 17,7 km/h (3 Bft) 97,87 %
12.10.2017 19:36 15,7 C 11,7 C 77 % 1023,8 hPa 0,0 l/m 8,3 km/h (2 Bft) W 267 0 min 0,000 mm 0,0 UV-I 0 W/m 11,7 C 14,7 C 16,1 km/h (3 Bft) 98,00 %
12.10.2017 19:38 15,7 C 11,7 C 77 % 1023,8 hPa 0,0 l/m 11,4 km/h (2 Bft) W-SW 256 0 min 0,000 mm 0,0 UV-I 0 W/m 11,7 C 13,3 C 19,3 km/h (3 Bft) 95,83 %
12.10.2017 19:40 15,7 C 11,7 C 77 % 1023,8 hPa 0,0 l/m 9,5 km/h (2 Bft) W-SW 257 0 min 0,000 mm 0,0 UV-I 0 W/m 11,7 C 14,1 C 16,1 km/h (3 Bft) 92,86 %
12.10.2017 19:42 15,7 C 11,7 C 77 % 1023,9 hPa 0,0 l/m 8,6 km/h (2 Bft) W 261 0 min 0,000 mm 0,0 UV-I 0 W/m 11,7 C 14,5 C 12,9 km/h (3 Bft) 98,00 %
12.10.2017 19:44 15,7 C 11,7 C 77 % 1023,9 hPa 0,0 l/m 7,9 km/h (2 Bft) W-SW 252 0 min 0,000 mm 0,0 UV-I 0 W/m 11,7 C 14,9 C 11,3 km/h (2 Bft) 97,73 %
12.10.2017 19:46 15,6 C 11,7 C 77 % 1023,9 hPa 0,0 l/m 10,5 km/h (2 Bft) W 261 0 min 0,000 mm 0,0 UV-I 0 W/m 11,6 C 13,6 C 14,5 km/h (3 Bft) 95,45 %
12.10.2017 19:48 15,6 C 11,7 C 77 % 1024,0 hPa 0,0 l/m 7,7 km/h (2 Bft) S 173 0 min 0,000 mm 0,0 UV-I 0 W/m 11,6 C 14,9 C 11,3 km/h (2 Bft) 97,44 %
12.10.2017 19:50 15,6 C 11,7 C 77 % 1024,0 hPa 0,0 l/m 7,9 km/h (2 Bft) W-SW 246 0 min 0,000 mm 0,0 UV-I 0 W/m 11,6 C 14,8 C 12,9 km/h (3 Bft) 98,21 %
12.10.2017 19:52 15,6 C 11,7 C 77 % 1024,0 hPa 0,0 l/m 10,0 km/h (2 Bft) SW 231 0 min 0,000 mm 0,0 UV-I 0 W/m 11,6 C 13,8 C 14,5 km/h (3 Bft) 96,00 %
12.10.2017 19:54 15,6 C 11,7 C 77 % 1024,0 hPa 0,0 l/m 10,2 km/h (2 Bft) W-SW 252 0 min 0,000 mm 0,0 UV-I 0 W/m 11,6 C 13,7 C 16,1 km/h (3 Bft) 97,37 %
12.10.2017 19:56 15,6 C 11,7 C 77 % 1024,0 hPa 0,0 l/m 8,9 km/h (2 Bft) W-SW 252 0 min 0,000 mm 0,0 UV-I 0 W/m 11,6 C 14,3 C 12,9 km/h (3 Bft) 94,34 %
12.10.2017 19:58 15,6 C 11,7 C 77 % 1024,0 hPa 0,0 l/m 9,6 km/h (2 Bft) SW 225 0 min 0,000 mm 0,0 UV-I 0 W/m 11,6 C 14,0 C 12,9 km/h (3 Bft) 95,12 %
12.10.2017 20:00 15,6 C 11,7 C 77 % 1024,0 hPa 0,0 l/m 11,7 km/h (2 Bft) W 269 0 min 0,025 mm 0,0 UV-I 0 W/m 11,6 C 13,1 C 20,9 km/h (4 Bft) 96,43 %
12.10.2017 20:03 15,6 C 11,7 C 77 % 1024,0 hPa 0,0 l/m 10,2 km/h (2 Bft) W-SW 239 0 min 0,000 mm 0,0 UV-I 0 W/m 11,6 C 13,7 C 16,1 km/h (3 Bft) 98,36 %
12.10.2017 20:04 15,6 C 11,7 C 77 % 1024,0 hPa 0,0 l/m 10,5 km/h (2 Bft) W 263 0 min 0,000 mm 0,0 UV-I 0 W/m 11,6 C 13,6 C 16,1 km/h (3 Bft) 96,67 %
12.10.2017 20:06 15,6 C 11,7 C 77 % 1024,0 hPa 0,0 l/m 12,9 km/h (3 Bft) W-SW 238 0 min 0,000 mm 0,0 UV-I 0 W/m 11,6 C 12,6 C 17,7 km/h (3 Bft) 97,14 %
12.10.2017 20:08 15,6 C 11,7 C 77 % 1024,1 hPa 0,0 l/m 10,8 km/h (2 Bft) W-SW 252 0 min 0,000 mm 0,0 UV-I 0 W/m 11,6 C 13,4 C 16,1 km/h (3 Bft) 98,21 %
12.10.2017 20:10 15,6 C 11,7 C 77 % 1024,1 hPa 0,0 l/m 11,6 km/h (2 Bft) SW 232 0 min 0,000 mm 0,0 UV-I 0 W/m 11,6 C 13,1 C 16,1 km/h (3 Bft) 94,74 %
12.10.2017 20:12 15,6 C 11,7 C 77 % 1024,2 hPa 0,0 l/m 11,7 km/h (2 Bft) SW 219 0 min 0,000 mm 0,0 UV-I 0 W/m 11,6 C 13,1 C 17,7 km/h (3 Bft) 98,31 %
12.10.2017 20:14 15,5 C 11,7 C 77 % 1024,2 hPa 0,0 l/m 14,5 km/h (3 Bft) SW 228 0 min 0,000 mm 0,0 UV-I 0 W/m 11,5 C 12,0 C 20,9 km/h (4 Bft) 97,56 %
12.10.2017 20:16 15,6 C 11,7 C 77 % 1024,2 hPa 0,0 l/m 11,5 km/h (2 Bft) S-SW 207 0 min 0,000 mm 0,0 UV-I 0 W/m 11,6 C 13,2 C 14,5 km/h (3 Bft) 97,73 %
12.10.2017 20:18 15,6 C 11,7 C 77 % 1024,2 hPa 0,0 l/m 13,5 km/h (3 Bft) SW 221 0 min 0,000 mm 0,0 UV-I 0 W/m 11,6 C 12,4 C 20,9 km/h (4 Bft) 94,34 %
12.10.2017 20:20 15,6 C 11,7 C 76 % 1024,2 hPa 0,0 l/m 11,9 km/h (2 Bft) W-SW 242 0 min 0,000 mm 0,0 UV-I 0 W/m 11,4 C 13,0 C 17,7 km/h (3 Bft) 97,56 %
12.10.2017 20:23 15,6 C 11,7 C 76 % 1024,3 hPa 0,0 l/m 9,8 km/h (2 Bft) W-SW 241 0 min 0,000 mm 0,0 UV-I 0 W/m 11,4 C 13,9 C 16,1 km/h (3 Bft) 98,65 %
12.10.2017 20:24 15,6 C 11,7 C 76 % 1024,3 hPa 0,0 l/m 10,5 km/h (2 Bft) S-SW 209 0 min 0,000 mm 0,0 UV-I 0 W/m 11,4 C 13,6 C 14,5 km/h (3 Bft) 95,65 %
12.10.2017 20:26 15,6 C 11,7 C 76 % 1024,3 hPa 0,0 l/m 11,8 km/h (2 Bft) W-SW 243 0 min 0,000 mm 0,0 UV-I 0 W/m 11,4 C 13,0 C 16,1 km/h (3 Bft) 97,62 %
12.10.2017 20:28 15,6 C 11,7 C 76 % 1024,4 hPa 0,0 l/m 12,3 km/h (3 Bft) W-SW 244 0 min 0,000 mm 0,0 UV-I 0 W/m 11,4 C 12,8 C 19,3 km/h (3 Bft) 97,56 %
12.10.2017 20:30 15,5 C 11,7 C 76 % 1024,3 hPa 0,0 l/m 12,3 km/h (3 Bft) W-SW 257 0 min 0,000 mm 0,0 UV-I 0 W/m 11,3 C 12,7 C 17,7 km/h (3 Bft) 96,92 %
12.10.2017 20:32 15,5 C 11,7 C 76 % 1024,4 hPa 0,0 l/m 13,9 km/h (3 Bft) W-SW 244 0 min 0,000 mm 0,0 UV-I 0 W/m 11,3 C 12,2 C 19,3 km/h (3 Bft) 95,65 %
12.10.2017 20:34 15,5 C 11,7 C 76 % 1024,4 hPa 0,0 l/m 13,6 km/h (3 Bft) W 265 0 min 0,000 mm 0,0 UV-I 0 W/m 11,3 C 12,3 C 22,5 km/h (4 Bft) 95,24 %
12.10.2017 20:36 15,5 C 11,7 C 76 % 1024,4 hPa 0,0 l/m 13,7 km/h (3 Bft) W-SW 258 0 min 0,000 mm 0,0 UV-I 0 W/m 11,3 C 12,2 C 20,9 km/h (4 Bft) 96,00 %
12.10.2017 20:38 15,5 C 11,7 C 76 % 1024,5 hPa 0,0 l/m 12,7 km/h (3 Bft) SW 236 0 min 0,000 mm 0,0 UV-I 0 W/m 11,3 C 12,6 C 20,9 km/h (4 Bft) 100,00 %
12.10.2017 20:40 15,5 C 11,7 C 76 % 1024,4 hPa 0,0 l/m 10,7 km/h (2 Bft) SW 234 0 min 0,000 mm 0,0 UV-I 0 W/m 11,3 C 13,4 C 16,1 km/h (3 Bft) 96,43 %
12.10.2017 20:42 15,5 C 11,7 C 76 % 1024,5 hPa 0,0 l/m 10,3 km/h (2 Bft) W-SW 248 0 min 0,000 mm 0,0 UV-I 0 W/m 11,3 C 13,5 C 14,5 km/h (3 Bft) 96,00 %
12.10.2017 20:44 15,4 C 11,7 C 76 % 1024,6 hPa 0,0 l/m 11,4 km/h (2 Bft) SW 215 0 min 0,000 mm 0,0 UV-I 0 W/m 11,2 C 13,0 C 16,1 km/h (3 Bft) 95,35 %
12.10.2017 20:46 15,4 C 11,7 C 76 % 1024,5 hPa 0,0 l/m 9,3 km/h (2 Bft) W 275 0 min 0,000 mm 0,0 UV-I 0 W/m 11,2 C 13,9 C 17,7 km/h (3 Bft) 95,74 %
12.10.2017 20:48 15,4 C 11,7 C 76 % 1024,6 hPa 0,0 l/m 9,2 km/h (2 Bft) W-SW 238 0 min 0,000 mm 0,0 UV-I 0 W/m 11,2 C 13,9 C 14,5 km/h (3 Bft) 98,00 %
12.10.2017 20:50 15,4 C 11,7 C 76 % 1024,6 hPa 0,0 l/m 11,7 km/h (2 Bft) SW 230 0 min 0,000 mm 0,0 UV-I 0 W/m 11,2 C 12,8 C 17,7 km/h (3 Bft) 95,74 %
12.10.2017 20:52 15,4 C 11,7 C 76 % 1024,7 hPa 0,0 l/m 10,4 km/h (2 Bft) SW 230 0 min 0,000 mm 0,0 UV-I 0 W/m 11,2 C 13,4 C 16,1 km/h (3 Bft) 97,56 %
12.10.2017 20:54 15,4 C 11,7 C 76 % 1024,7 hPa 0,0 l/m 10,4 km/h (2 Bft) S-SW 203 0 min 0,000 mm 0,0 UV-I 0 W/m 11,2 C 13,4 C 17,7 km/h (3 Bft) 98,00 %
12.10.2017 20:56 15,4 C 11,7 C 76 % 1024,7 hPa 0,0 l/m 9,8 km/h (2 Bft) W-SW 248 0 min 0,000 mm 0,0 UV-I 0 W/m 11,2 C 13,6 C 14,5 km/h (3 Bft) 97,37 %
12.10.2017 20:58 15,4 C 11,7 C 76 % 1024,7 hPa 0,0 l/m 9,7 km/h (2 Bft) W-SW 237 0 min 0,000 mm 0,0 UV-I 0 W/m 11,2 C 13,7 C 19,3 km/h (3 Bft) 98,11 %
12.10.2017 21:00 15,4 C 11,7 C 76 % 1024,7 hPa 0,0 l/m 9,1 km/h (2 Bft) S-SW 207 0 min 0,051 mm 0,0 UV-I 0 W/m 11,2 C 14,0 C 14,5 km/h (3 Bft) 96,23 %
12.10.2017 21:02 15,4 C 11,7 C 76 % 1024,7 hPa 0,0 l/m 10,0 km/h (2 Bft) W-SW 240 0 min 0,000 mm 0,0 UV-I 0 W/m 11,2 C 13,6 C 14,5 km/h (3 Bft) 97,37 %
12.10.2017 21:04 15,4 C 11,7 C 76 % 1024,8 hPa 0,0 l/m 10,0 km/h (2 Bft) W-SW 244 0 min 0,000 mm 0,0 UV-I 0 W/m 11,2 C 13,6 C 14,5 km/h (3 Bft) 97,92 %
12.10.2017 21:06 15,4 C 11,7 C 76 % 1024,8 hPa 0,0 l/m 8,8 km/h (2 Bft) SW 232 0 min 0,000 mm 0,0 UV-I 0 W/m 11,2 C 14,1 C 14,5 km/h (3 Bft) 97,73 %
12.10.2017 21:08 15,3 C 11,7 C 76 % 1024,8 hPa 0,0 l/m 10,7 km/h (2 Bft) W-SW 237 0 min 0,000 mm 0,0 UV-I 0 W/m 11,1 C 13,1 C 16,1 km/h (3 Bft) 98,11 %
12.10.2017 21:10 15,3 C 11,7 C 76 % 1025,0 hPa 0,0 l/m 10,7 km/h (2 Bft) SW 223 0 min 0,000 mm 0,0 UV-I 0 W/m 11,1 C 13,1 C 17,7 km/h (3 Bft) 100,00 %
12.10.2017 21:12 15,3 C 11,7 C 76 % 1025,0 hPa 0,0 l/m 11,7 km/h (2 Bft) SW 233 0 min 0,000 mm 0,0 UV-I 0 W/m 11,1 C 12,7 C 20,9 km/h (4 Bft) 100,00 %
12.10.2017 21:14 15,3 C 11,7 C 76 % 1025,1 hPa 0,0 l/m 10,1 km/h (2 Bft) W-SW 241 0 min 0,000 mm 0,0 UV-I 0 W/m 11,1 C 13,4 C 16,1 km/h (3 Bft) 97,56 %
12.10.2017 21:16 15,3 C 11,7 C 76 % 1025,1 hPa 0,0 l/m 10,4 km/h (2 Bft) S 190 0 min 0,000 mm 0,0 UV-I 0 W/m 11,1 C 13,3 C 14,5 km/h (3 Bft) 97,87 %
12.10.2017 21:18 15,3 C 11,7 C 76 % 1025,1 hPa 0,0 l/m 11,4 km/h (2 Bft) W-SW 257 0 min 0,000 mm 0,0 UV-I 0 W/m 11,1 C 12,9 C 19,3 km/h (3 Bft) 100,00 %
12.10.2017 21:20 15,3 C 11,7 C 76 % 1025,2 hPa 0,0 l/m 10,6 km/h (2 Bft) SW 229 0 min 0,000 mm 0,0 UV-I 0 W/m 11,1 C 13,2 C 14,5 km/h (3 Bft) 97,67 %
12.10.2017 21:22 15,3 C 11,7 C 76 % 1025,2 hPa 0,0 l/m 12,9 km/h (3 Bft) W-SW 256 0 min 0,000 mm 0,0 UV-I 0 W/m 11,1 C 12,3 C 16,1 km/h (3 Bft) 97,56 %
12.10.2017 21:24 15,3 C 11,7 C 76 % 1025,3 hPa 0,0 l/m 8,7 km/h (2 Bft) W-SW 251 0 min 0,000 mm 0,0 UV-I 0 W/m 11,1 C 14,1 C 12,9 km/h (3 Bft) 98,11 %
12.10.2017 21:26 15,3 C 11,7 C 76 % 1025,3 hPa 0,0 l/m 11,9 km/h (2 Bft) W-SW 242 0 min 0,000 mm 0,0 UV-I 0 W/m 11,1 C 12,7 C 16,1 km/h (3 Bft) 95,12 %
12.10.2017 21:28 15,3 C 11,7 C 76 % 1025,3 hPa 0,0 l/m 7,1 km/h (2 Bft) W-SW 257 0 min 0,000 mm 0,0 UV-I 0 W/m 11,1 C 14,9 C 12,9 km/h (3 Bft) 98,11 %
12.10.2017 21:30 15,3 C 11,7 C 76 % 1025,3 hPa 0,0 l/m 8,8 km/h (2 Bft) W 266 0 min 0,000 mm 0,0 UV-I 0 W/m 11,1 C 14,0 C 12,9 km/h (3 Bft) 97,37 %
12.10.2017 21:32 15,3 C 11,7 C 76 % 1025,3 hPa 0,0 l/m 12,0 km/h (2 Bft) W-SW 250 0 min 0,000 mm 0,0 UV-I 0 W/m 11,1 C 12,6 C 16,1 km/h (3 Bft) 96,23 %
12.10.2017 21:34 15,2 C 11,7 C 76 % 1025,3 hPa 0,0 l/m 7,5 km/h (2 Bft) W-SW 240 0 min 0,000 mm 0,0 UV-I 0 W/m 11,0 C 14,6 C 11,3 km/h (2 Bft) 97,87 %
12.10.2017 21:36 15,2 C 11,7 C 76 % 1025,2 hPa 0,0 l/m 8,0 km/h (2 Bft) W-SW 248 0 min 0,000 mm 0,0 UV-I 0 W/m 11,0 C 14,3 C 16,1 km/h (3 Bft) 97,56 %
12.10.2017 21:38 15,2 C 11,7 C 77 % 1025,3 hPa 0,0 l/m 11,1 km/h (2 Bft) SW 229 0 min 0,000 mm 0,0 UV-I 0 W/m 11,2 C 12,9 C 14,5 km/h (3 Bft) 98,21 %
12.10.2017 21:40 15,2 C 11,7 C 77 % 1025,3 hPa 0,0 l/m 8,8 km/h (2 Bft) W-SW 248 0 min 0,000 mm 0,0 UV-I 0 W/m 11,2 C 13,9 C 14,5 km/h (3 Bft) 96,00 %
12.10.2017 21:42 15,2 C 11,7 C 77 % 1025,3 hPa 0,0 l/m 9,1 km/h (2 Bft) W-SW 252 0 min 0,000 mm 0,0 UV-I 0 W/m 11,2 C 13,8 C 12,9 km/h (3 Bft) 97,37 %
12.10.2017 21:44 15,1 C 11,7 C 77 % 1025,3 hPa 0,0 l/m 6,5 km/h (2 Bft) W-SW 247 0 min 0,000 mm 0,0 UV-I 0 W/m 11,1 C 15,1 C 11,3 km/h (2 Bft) 96,00 %
12.10.2017 21:46 15,1 C 11,7 C 77 % 1025,4 hPa 0,0 l/m 7,2 km/h (2 Bft) W 263 0 min 0,000 mm 0,0 UV-I 0 W/m 11,1 C 14,6 C 11,3 km/h (2 Bft) 98,00 %
12.10.2017 21:48 15,1 C 11,7 C 77 % 1025,3 hPa 0,0 l/m 6,4 km/h (2 Bft) W-SW 243 0 min 0,000 mm 0,0 UV-I 0 W/m 11,1 C 15,1 C 9,7 km/h (2 Bft) 96,00 %
12.10.2017 21:50 15,1 C 11,7 C 77 % 1025,3 hPa 0,0 l/m 7,7 km/h (2 Bft) W-SW 250 0 min 0,000 mm 0,0 UV-I 0 W/m 11,1 C 14,4 C 12,9 km/h (3 Bft) 97,73 %
12.10.2017 21:52 15,1 C 11,7 C 77 % 1025,4 hPa 0,0 l/m 7,3 km/h (2 Bft) SW 236 0 min 0,000 mm 0,0 UV-I 0 W/m 11,1 C 14,6 C 12,9 km/h (3 Bft) 97,56 %
12.10.2017 21:54 15,1 C 11,7 C 77 % 1025,4 hPa 0,0 l/m 6,1 km/h (2 Bft) W-SW 248 0 min 0,000 mm 0,0 UV-I 0 W/m 11,1 C 15,1 C 8,0 km/h (2 Bft) 97,87 %
12.10.2017 21:56 15,0 C 11,7 C 77 % 1025,4 hPa 0,0 l/m 5,5 km/h (1 Bft) W-SW 240 0 min 0,000 mm 0,0 UV-I 0 W/m 11,0 C 15,0 C 6,4 km/h (2 Bft) 94,34 %
12.10.2017 21:58 15,0 C 11,7 C 78 % 1025,4 hPa 0,0 l/m 6,1 km/h (2 Bft) SW 226 0 min 0,000 mm 0,0 UV-I 0 W/m 11,2 C 15,0 C 8,0 km/h (2 Bft) 98,00 %
12.10.2017 22:00 14,9 C 11,7 C 78 % 1025,4 hPa 0,0 l/m 5,5 km/h (1 Bft) W-SW 241 0 min 0,025 mm 0,0 UV-I 0 W/m 11,1 C 14,9 C 8,0 km/h (2 Bft) 94,74 %
12.10.2017 22:02 14,9 C 11,7 C 78 % 1025,5 hPa 0,0 l/m 6,4 km/h (2 Bft) W-SW 238 0 min 0,000 mm 0,0 UV-I 0 W/m 11,1 C 14,9 C 8,0 km/h (2 Bft) 100,00 %
12.10.2017 22:04 14,8 C 11,7 C 78 % 1025,4 hPa 0,0 l/m 7,2 km/h (2 Bft) SW 223 0 min 0,000 mm 0,0 UV-I 0 W/m 11,0 C 14,3 C 11,3 km/h (2 Bft) 100,00 %
12.10.2017 22:06 14,8 C 11,7 C 78 % 1025,4 hPa 0,0 l/m 9,6 km/h (2 Bft) SW 236 0 min 0,000 mm 0,0 UV-I 0 W/m 11,0 C 13,1 C 14,5 km/h (3 Bft) 96,00 %
12.10.2017 22:08 14,8 C 11,7 C 78 % 1025,3 hPa 0,0 l/m 8,0 km/h (2 Bft) SW 225 0 min 0,000 mm 0,0 UV-I 0 W/m 11,0 C 13,9 C 11,3 km/h (2 Bft) 94,74 %
12.10.2017 22:10 14,8 C 11,7 C 78 % 1025,4 hPa 0,0 l/m 8,2 km/h (2 Bft) W-SW 252 0 min 0,000 mm 0,0 UV-I 0 W/m 11,0 C 13,8 C 14,5 km/h (3 Bft) 100,00 %
12.10.2017 22:12 14,8 C 11,7 C 78 % 1025,4 hPa 0,0 l/m 8,1 km/h (2 Bft) S-SW 211 0 min 0,000 mm 0,0 UV-I 0 W/m 11,0 C 13,8 C 12,9 km/h (3 Bft) 100,00 %
12.10.2017 22:14 14,8 C 11,7 C 78 % 1025,4 hPa 0,0 l/m 7,4 km/h (2 Bft) W-SW 248 0 min 0,000 mm 0,0 UV-I 0 W/m 11,0 C 14,2 C 12,9 km/h (3 Bft) 98,00 %
12.10.2017 22:16 14,8 C 11,7 C 78 % 1025,4 hPa 0,0 l/m 9,4 km/h (2 Bft) SW 225 0 min 0,000 mm 0,0 UV-I 0 W/m 11,0 C 13,2 C 12,9 km/h (3 Bft) 100,00 %
12.10.2017 22:18 14,8 C 11,7 C 78 % 1025,4 hPa 0,0 l/m 8,7 km/h (2 Bft) SW 236 0 min 0,000 mm 0,0 UV-I 0 W/m 11,0 C 13,5 C 12,9 km/h (3 Bft) 100,00 %
12.10.2017 22:20 14,8 C 11,7 C 78 % 1025,4 hPa 0,0 l/m 7,4 km/h (2 Bft) SW 229 0 min 0,000 mm 0,0 UV-I 0 W/m 11,0 C 14,2 C 11,3 km/h (2 Bft) 98,21 %
12.10.2017 22:22 14,7 C 11,7 C 78 % 1025,4 hPa 0,0 l/m 7,2 km/h (2 Bft) W-SW 242 0 min 0,000 mm 0,0 UV-I 0 W/m 10,9 C 14,2 C 9,7 km/h (2 Bft) 100,00 %
12.10.2017 22:24 14,7 C 11,7 C 79 % 1025,4 hPa 0,0 l/m 7,4 km/h (2 Bft) W-SW 240 0 min 0,000 mm 0,0 UV-I 0 W/m 11,1 C 14,1 C 11,3 km/h (2 Bft) 100,00 %
12.10.2017 22:26 14,7 C 11,7 C 79 % 1025,4 hPa 0,0 l/m 5,8 km/h (2 Bft) W-SW 252 0 min 0,000 mm 0,0 UV-I 0 W/m 11,1 C 14,7 C 8,0 km/h (2 Bft) 100,00 %
12.10.2017 22:28 14,7 C 11,7 C 79 % 1025,5 hPa 0,0 l/m 6,8 km/h (2 Bft) W-SW 253 0 min 0,000 mm 0,0 UV-I 0 W/m 11,1 C 14,5 C 11,3 km/h (2 Bft) 100,00 %
12.10.2017 22:30 14,6 C 11,7 C 79 % 1025,4 hPa 0,0 l/m 6,3 km/h (2 Bft) W-SW 240 0 min 0,000 mm 0,0 UV-I 0 W/m 11,0 C 14,6 C 8,0 km/h (2 Bft) 100,00 %
12.10.2017 22:32 14,6 C 11,7 C 79 % 1025,4 hPa 0,0 l/m 6,7 km/h (2 Bft) W-SW 250 0 min 0,000 mm 0,0 UV-I 0 W/m 11,0 C 14,4 C 11,3 km/h (2 Bft) 100,00 %
12.10.2017 22:34 14,6 C 11,7 C 79 % 1025,4 hPa 0,0 l/m 5,7 km/h (1 Bft) SW 233 0 min 0,000 mm 0,0 UV-I 0 W/m 11,0 C 14,6 C 8,0 km/h (2 Bft) 98,11 %
12.10.2017 22:36 14,6 C 11,7 C 79 % 1025,4 hPa 0,0 l/m 8,0 km/h (2 Bft) SW 218 0 min 0,000 mm 0,0 UV-I 0 W/m 11,0 C 13,7 C 11,3 km/h (2 Bft) 100,00 %
12.10.2017 22:38 14,6 C 11,7 C 79 % 1025,3 hPa 0,0 l/m 7,9 km/h (2 Bft) W-SW 240 0 min 0,000 mm 0,0 UV-I 0 W/m 11,0 C 13,7 C 11,3 km/h (2 Bft) 100,00 %
12.10.2017 22:40 14,6 C 11,7 C 79 % 1025,4 hPa 0,0 l/m 5,5 km/h (1 Bft) SW 235 0 min 0,000 mm 0,0 UV-I 0 W/m 11,0 C 14,6 C 8,0 km/h (2 Bft) 100,00 %
12.10.2017 22:42 14,6 C 11,7 C 79 % 1025,4 hPa 0,0 l/m 7,2 km/h (2 Bft) W-SW 242 0 min 0,000 mm 0,0 UV-I 0 W/m 11,0 C 14,1 C 9,7 km/h (2 Bft) 98,11 %
12.10.2017 22:44 14,6 C 11,7 C 79 % 1025,5 hPa 0,0 l/m 6,6 km/h (2 Bft) W-SW 251 0 min 0,000 mm 0,0 UV-I 0 W/m 11,0 C 14,5 C 11,3 km/h (2 Bft) 100,00 %
12.10.2017 22:46 14,6 C 11,7 C 79 % 1025,5 hPa 0,0 l/m 7,4 km/h (2 Bft) W 259 0 min 0,000 mm 0,0 UV-I 0 W/m 11,0 C 14,0 C 11,3 km/h (2 Bft) 100,00 %
12.10.2017 22:48 14,6 C 11,7 C 79 % 1025,4 hPa 0,0 l/m 7,9 km/h (2 Bft) W-SW 250 0 min 0,000 mm 0,0 UV-I 0 W/m 11,0 C 13,7 C 12,9 km/h (3 Bft) 100,00 %
12.10.2017 22:50 14,6 C 11,7 C 79 % 1025,4 hPa 0,0 l/m 8,9 km/h (2 Bft) W-SW 240 0 min 0,000 mm 0,0 UV-I 0 W/m 11,0 C 13,2 C 14,5 km/h (3 Bft) 97,37 %
12.10.2017 22:53 14,6 C 11,7 C 79 % 1025,5 hPa 0,0 l/m 8,0 km/h (2 Bft) SW 225 0 min 0,000 mm 0,0 UV-I 0 W/m 11,0 C 13,7 C 11,3 km/h (2 Bft) 100,00 %
12.10.2017 22:54 14,6 C 11,7 C 79 % 1025,5 hPa 0,0 l/m 8,4 km/h (2 Bft) W 259 0 min 0,000 mm 0,0 UV-I 0 W/m 11,0 C 13,5 C 11,3 km/h (2 Bft) 100,00 %
12.10.2017 22:56 14,6 C 11,7 C 79 % 1025,5 hPa 0,0 l/m 6,2 km/h (2 Bft) W 265 0 min 0,000 mm 0,0 UV-I 0 W/m 11,0 C 14,6 C 9,7 km/h (2 Bft) 92,11 %
12.10.2017 22:58 14,6 C 11,7 C 79 % 1025,5 hPa 0,0 l/m 5,6 km/h (1 Bft) W-SW 252 0 min 0,000 mm 0,0 UV-I 0 W/m 11,0 C 14,6 C 9,7 km/h (2 Bft) 100,00 %
12.10.2017 23:00 14,6 C 11,7 C 79 % 1025,5 hPa 0,0 l/m 5,9 km/h (2 Bft) W-SW 251 0 min 0,000 mm 0,0 UV-I 0 W/m 11,0 C 14,6 C 6,4 km/h (2 Bft) 100,00 %
12.10.2017 23:02 14,6 C 11,7 C 79 % 1025,5 hPa 0,0 l/m 5,9 km/h (2 Bft) W 263 0 min 0,026 mm 0,0 UV-I 0 W/m 11,0 C 14,6 C 8,0 km/h (2 Bft) 100,00 %
12.10.2017 23:04 14,6 C 11,7 C 79 % 1025,5 hPa 0,0 l/m 4,8 km/h (1 Bft) W 265 0 min 0,000 mm 0,0 UV-I 0 W/m 11,0 C 14,6 C 6,4 km/h (2 Bft) 100,00 %
12.10.2017 23:06 14,5 C 11,7 C 80 % 1025,5 hPa 0,0 l/m 4,3 km/h (1 Bft) W-SW 246 0 min 0,000 mm 0,0 UV-I 0 W/m 11,1 C 14,5 C 8,0 km/h (2 Bft) 100,00 %
12.10.2017 23:08 14,5 C 11,7 C 80 % 1025,5 hPa 0,0 l/m 4,6 km/h (1 Bft) W-SW 244 0 min 0,000 mm 0,0 UV-I 0 W/m 11,1 C 14,5 C 6,4 km/h (2 Bft) 100,00 %
12.10.2017 23:10 14,4 C 11,7 C 80 % 1025,5 hPa 0,0 l/m 4,7 km/h (1 Bft) SW 236 0 min 0,000 mm 0,0 UV-I 0 W/m 11,0 C 14,4 C 6,4 km/h (2 Bft) 98,31 %
12.10.2017 23:12 14,4 C 11,7 C 80 % 1025,5 hPa 0,0 l/m 5,0 km/h (1 Bft) SW 236 0 min 0,000 mm 0,0 UV-I 0 W/m 11,0 C 14,4 C 8,0 km/h (2 Bft) 97,87 %
12.10.2017 23:14 14,4 C 11,7 C 80 % 1025,5 hPa 0,0 l/m 6,1 km/h (2 Bft) W 263 0 min 0,000 mm 0,0 UV-I 0 W/m 11,0 C 14,4 C 11,3 km/h (2 Bft) 100,00 %
12.10.2017 23:16 14,4 C 11,7 C 80 % 1025,5 hPa 0,0 l/m 4,6 km/h (1 Bft) W-SW 254 0 min 0,000 mm 0,0 UV-I 0 W/m 11,0 C 14,4 C 6,4 km/h (2 Bft) 100,00 %
12.10.2017 23:18 14,4 C 11,7 C 80 % 1025,5 hPa 0,0 l/m 3,7 km/h (1 Bft) W-SW 252 0 min 0,000 mm 0,0 UV-I 0 W/m 11,0 C 14,4 C 4,8 km/h (1 Bft) 100,00 %
12.10.2017 23:20 14,4 C 11,7 C 80 % 1025,5 hPa 0,0 l/m 4,5 km/h (1 Bft) S-SW 207 0 min 0,000 mm 0,0 UV-I 0 W/m 11,0 C 14,4 C 6,4 km/h (2 Bft) 97,87 %
12.10.2017 23:22 14,4 C 11,7 C 80 % 1025,5 hPa 0,0 l/m 4,8 km/h (1 Bft) W-SW 257 0 min 0,000 mm 0,0 UV-I 0 W/m 11,0 C 14,4 C 9,7 km/h (2 Bft) 100,00 %
12.10.2017 23:24 14,3 C 11,7 C 80 % 1025,6 hPa 0,0 l/m 4,8 km/h (1 Bft) W-SW 256 0 min 0,000 mm 0,0 UV-I 0 W/m 10,9 C 14,3 C 6,4 km/h (2 Bft) 97,56 %
12.10.2017 23:26 14,3 C 11,7 C 80 % 1025,5 hPa 0,0 l/m 5,2 km/h (1 Bft) W 264 0 min 0,000 mm 0,0 UV-I 0 W/m 10,9 C 14,3 C 11,3 km/h (2 Bft) 97,87 %
12.10.2017 23:28 14,3 C 11,7 C 80 % 1025,5 hPa 0,0 l/m 6,7 km/h (2 Bft) W-SW 251 0 min 0,000 mm 0,0 UV-I 0 W/m 10,9 C 14,1 C 12,9 km/h (3 Bft) 98,00 %
12.10.2017 23:30 14,3 C 11,7 C 80 % 1025,6 hPa 0,0 l/m 6,3 km/h (2 Bft) W-SW 249 0 min 0,000 mm 0,0 UV-I 0 W/m 10,9 C 14,3 C 8,0 km/h (2 Bft) 97,87 %
12.10.2017 23:32 14,2 C 11,7 C 81 % 1025,6 hPa 0,0 l/m 6,7 km/h (2 Bft) W-SW 257 0 min 0,000 mm 0,0 UV-I 0 W/m 11,0 C 14,0 C 9,7 km/h (2 Bft) 97,56 %
12.10.2017 23:34 14,2 C 11,7 C 81 % 1025,6 hPa 0,0 l/m 6,7 km/h (2 Bft) W 262 0 min 0,000 mm 0,0 UV-I 0 W/m 11,0 C 14,0 C 9,7 km/h (2 Bft) 98,21 %
12.10.2017 23:36 14,2 C 11,7 C 81 % 1025,6 hPa 0,0 l/m 5,6 km/h (1 Bft) W 261 0 min 0,000 mm 0,0 UV-I 0 W/m 11,0 C 14,2 C 8,0 km/h (2 Bft) 95,45 %
12.10.2017 23:38 14,2 C 11,7 C 81 % 1025,5 hPa 0,0 l/m 6,1 km/h (2 Bft) W 260 0 min 0,000 mm 0,0 UV-I 0 W/m 11,0 C 14,2 C 9,7 km/h (2 Bft) 96,23 %
12.10.2017 23:40 14,2 C 11,7 C 81 % 1025,5 hPa 0,0 l/m 5,0 km/h (1 Bft) W-SW 250 0 min 0,000 mm 0,0 UV-I 0 W/m 11,0 C 14,2 C 6,4 km/h (2 Bft) 92,68 %
12.10.2017 23:42 14,2 C 11,7 C 81 % 1025,5 hPa 0,0 l/m 6,5 km/h (2 Bft) W-SW 251 0 min 0,000 mm 0,0 UV-I 0 W/m 11,0 C 14,2 C 11,3 km/h (2 Bft) 94,00 %
12.10.2017 23:44 14,2 C 11,7 C 81 % 1025,5 hPa 0,0 l/m 4,9 km/h (1 Bft) W-SW 238 0 min 0,000 mm 0,0 UV-I 0 W/m 11,0 C 14,2 C 6,4 km/h (2 Bft) 93,62 %
12.10.2017 23:46 14,1 C 11,7 C 81 % 1025,5 hPa 0,0 l/m 4,2 km/h (1 Bft) SW 232 0 min 0,000 mm 0,0 UV-I 0 W/m 10,9 C 14,1 C 6,4 km/h (2 Bft) 97,92 %
12.10.2017 23:48 14,1 C 11,7 C 81 % 1025,6 hPa 0,0 l/m 5,3 km/h (1 Bft) SW 227 0 min 0,000 mm 0,0 UV-I 0 W/m 10,9 C 14,1 C 8,0 km/h (2 Bft) 97,56 %
12.10.2017 23:50 14,1 C 11,7 C 81 % 1025,6 hPa 0,0 l/m 6,4 km/h (2 Bft) SW 231 0 min 0,000 mm 0,0 UV-I 0 W/m 10,9 C 14,1 C 8,0 km/h (2 Bft) 98,00 %
12.10.2017 23:52 14,1 C 11,7 C 81 % 1025,6 hPa 0,0 l/m 5,8 km/h (2 Bft) SW 225 0 min 0,000 mm 0,0 UV-I 0 W/m 10,9 C 14,1 C 8,0 km/h (2 Bft) 95,12 %
12.10.2017 23:54 14,1 C 11,7 C 81 % 1025,6 hPa 0,0 l/m 5,4 km/h (1 Bft) SW 224 0 min 0,000 mm 0,0 UV-I 0 W/m 10,9 C 14,1 C 8,0 km/h (2 Bft) 96,00 %
12.10.2017 23:56 14,1 C 11,7 C 81 % 1025,5 hPa 0,0 l/m 6,7 km/h (2 Bft) W-SW 237 0 min 0,000 mm 0,0 UV-I 0 W/m 10,9 C 13,9 C 9,7 km/h (2 Bft) 96,23 %
12.10.2017 23:58 14,1 C 11,7 C 81 % 1025,5 hPa 0,0 l/m 7,6 km/h (2 Bft) W-SW 243 0 min 0,000 mm 0,0 UV-I 0 W/m 10,9 C 13,4 C 12,9 km/h (3 Bft) 94,74 %
_ Min-Zeit 07:12 05:56 13:22 01:02 - 03:06 - - - - - - 07:12 07:12 03:06 06:06
Minimum _ 6,1 C 11,1 C 52 % 1019,2 hPa - 0,0 km/h (0 Bft) - - - - - - 5,5 C 6,1 C 0,0 km/h (0 Bft) 89,36 %
_ Max-Zeit 13:20 00:00 06:54 23:24 00:00 13:52 - - 08:33 13:00 12:36 13:26 12:28 12:40 13:48 00:00
Maximum _ 21,1 C 11,7 C 97 % 1025,6 hPa 0,0 l/m 22,3 km/h
W (4 Bft)
- - 3 min 0,330 mm 2,5 UV-I 696 W/m 12,6 C 19,2 C 43,5 km/h
W (6 Bft)
100,00 %
Durchschnitt _ 12,8 C 11,5 C 82 % 1021,9 hPa #0,0 l/m 5,3 km/h (1 Bft) W-SW - #5:18 h #1,880 mm 1,4 UV-I 229 W/m 9,5 C 12,1 C 9,0 km/h (2 Bft) 98,05 %